[[[{"header":{"parameterUnit":"kt","parameterCategory":2,"dx":1,"dy":1,"la1":29.587661999999998,"la2":31.0,"lo1":-88.76705300000003,"lo2":-86.6583820000003,"nx":115,"ny":88,"refTime":"2022-10-25T00:00:00:Z","depth":0,"parameterNumber":1,"parameterNumberName":"U-component_of_WINDS"},"data":[7.4982,7.4982,7.4982,7.4982,7.4982,7.4982,7.4982,7.4982,7.4093,7.0514,6.5214,6.3513,6.1181,5.7954,5.4503,5.329,5.3914,5.4225,5.4459,5.4693,5.4719,5.4719,5.2671,4.7972,4.5621,4.1922,3.7882,3.6209,3.587,3.5938,3.393,2.9484,2.9142,2.7795,2.7795,2.7795,2.7795,2.7795,2.7795,2.7795,2.7795,2.7795,2.7795,2.7795,2.7795,2.7834,2.7874,2.7887,2.7966,2.2372,-0.0,-0.0,-0.0,-0.0,-0.0,-1.2913,-2.274,-2.6581,-2.8006,-2.8019,-2.823,-2.8612,-2.8863,-2.9074,-3.0719,-3.3093,-3.596,-3.8827,-4.3111,-4.9551,-5.3122,-5.5276,-5.7449,-5.7798,-5.8147,-5.8147,-5.8147,-5.8817,-6.0526,-6.4746,-6.8502,-7.1766,-7.6925,-8.2098,-8.4701,-8.4948,-8.4967,-8.649,-8.649,-8.7088,-8.8039,-9.1061,-9.4157,-10.042,-10.7063,-10.7998,-10.8565,-10.9983,-11.2677,-11.8732,-12.5439,-13.3359,-13.8217,-14.079,-14.5337,-15.011,-15.1846,-15.2505,-15.398,-15.5413,-15.6433,-15.8048,-16.0227,-16.2799,-16.581,7.4982,7.4982,7.4982,7.4982,7.4982,7.4982,7.4982,7.4377,7.1412,6.9325,6.7841,6.4627,6.1212,5.7722,5.4126,5.364,5.3602,5.3616,5.4355,5.4563,5.4693,5.4719,5.3025,5.0668,4.8327,4.5288,4.2927,4.1922,4.0242,3.7936,3.6278,3.3541,3.0826,2.8138,2.7795,2.7795,2.8469,2.8812,2.7795,2.7795,2.7795,2.7795,2.7795,2.7795,2.7795,2.7808,2.7834,2.7874,2.794,2.1279,-0.0,-0.0,-0.0,-0.0,-0.1395,-0.8025,-1.7459,-2.3782,-2.8019,-2.8085,-2.8335,-2.8625,-2.8902,-2.9513,-3.0467,-3.2745,-3.5598,-3.8467,-4.1699,-4.5983,-4.9551,-5.2067,-5.495,-5.6751,-5.7449,-5.8147,-5.8147,-5.8469,-6.119,-6.423,-6.6233,-6.7309,-7.3824,-8.1841,-8.404,-8.4684,-8.589,-8.7405,-8.8632,-8.8316,-9.1372,-9.5341,-9.8373,-10.2584,-10.771,-10.8899,-10.8801,-11.0678,-11.3423,-11.9822,-12.655,-13.375,-13.9127,-14.1871,-14.5266,-14.9467,-15.174,-15.3669,-15.5265,-15.6646,-15.833,-16.0535,-16.244,-16.3838,-16.6704,7.4982,7.4982,7.4982,7.4982,7.4982,7.4982,7.4982,7.4699,7.3201,7.2308,7.1412,6.4071,6.0367,6.0581,5.4732,5.2667,5.3265,5.3307,5.3823,5.4537,5.4719,5.4719,5.4365,5.3025,5.0668,4.899,4.764,4.662,4.462,4.1646,3.895,3.7562,3.4529,3.2844,3.5208,3.2859,3.1836,3.1153,2.8812,2.8138,2.7795,2.7795,2.7795,2.7795,2.7795,2.7795,2.7808,2.7834,2.7887,2.3693,1.9853,1.4972,1.3964,1.3622,0.9772,0.1046,-0.7669,-1.6747,-2.4499,-2.8111,-2.8243,-2.8546,-2.8849,-2.9153,-3.0117,-3.3123,-3.5614,-3.7043,-4.0265,-4.1643,-4.4854,-4.9551,-5.2794,-5.6076,-5.7501,-5.7824,-5.8147,-5.9165,-6.2198,-6.5598,-6.8779,-6.989,-7.432,-8.2025,-8.4227,-8.4873,-8.4967,-8.649,-8.7722,-8.8039,-9.5298,-10.0765,-10.4096,-10.7757,-10.928,-10.9183,-10.9222,-11.1671,-11.4102,-11.9714,-12.5361,-13.3132,-13.9818,-14.2873,-14.6084,-14.9641,-15.2488,-15.4676,-15.636,-15.833,-16.0677,-16.2654,-16.372,-16.494,-16.6813,7.4982,7.4982,7.4982,7.4982,7.4982,7.4982,7.4982,7.4982,7.4982,7.4982,7.2916,6.4627,6.0543,6.1233,5.5045,5.233,5.2953,5.31,5.4044,5.4511,5.4693,5.4719,5.4693,5.4037,5.2671,5.1683,5.2013,5.2342,4.9321,4.5621,4.2592,4.2257,3.8557,3.7224,3.9569,3.7882,3.5208,3.3525,3.1509,3.0156,2.9827,2.9142,2.7795,2.7795,2.7795,2.7795,2.7795,2.7808,2.7834,2.7874,2.7887,2.7953,2.7724,2.739,1.9948,0.907,0.209,-1.1856,-2.1708,-2.7815,-2.8024,-2.8639,-2.8876,-2.914,-3.0412,-3.3049,-3.4922,-3.5976,-3.7026,-3.8039,-4.0514,-4.5942,-5.0678,-5.3969,-5.7253,-5.7526,-5.8147,-6.0526,-6.3201,-6.7331,-7.1817,-7.4727,-7.7669,-8.1194,-8.3766,-8.4986,-8.5364,-8.7127,-8.8947,-9.2882,-10.0467,-10.2878,-10.7135,-10.8947,-10.9232,-10.9417,-10.9343,-11.1169,-11.5395,-11.9616,-12.4396,-13.1415,-13.8341,-14.241,-14.697,-15.0764,-15.386,-15.6039,-15.8265,-16.0411,-16.2454,-16.3605,-16.4677,-16.5882,-16.7073,7.4982,7.4982,7.4982,7.4982,7.4982,7.4982,7.4982,7.4982,7.4982,7.4982,7.3524,6.6126,6.2593,6.1406,5.5322,5.2356,5.2693,5.2764,5.368,5.4667,5.4667,5.4719,5.4719,5.4693,5.4037,5.4365,5.4365,5.4037,5.2671,4.9321,4.631,4.7308,4.2927,4.1922,4.2927,4.1586,3.9569,3.7562,3.5887,3.3865,3.3184,3.0498,2.7795,2.8125,2.8125,2.7781,2.7781,2.7808,2.7821,2.7874,2.79,2.7913,2.7992,2.7698,2.7737,2.0634,1.0115,-0.4528,-1.7135,-2.6432,-2.707,-2.8427,-2.8675,-2.7409,-2.7583,-2.99,-3.1346,-3.241,-3.4906,-3.6288,-3.9852,-4.4558,-5.0038,-5.4065,-5.6877,-5.785,-5.8147,-5.9165,-6.2198,-6.625,-7.1049,-7.7045,-7.9999,-8.2061,-8.4911,-8.6325,-8.7722,-9.1372,-9.4422,-9.8973,-10.263,-10.3804,-10.7135,-10.9232,-10.9515,-10.9786,-10.9656,-11.2489,-11.6514,-12.1126,-12.659,-13.1712,-13.6893,-14.1999,-14.7113,-15.1235,-15.5209,-15.7987,-16.0235,-16.1956,-16.2868,-16.4214,-16.5605,-16.6855,-16.8036,7.4982,7.4982,7.4982,7.4982,7.4982,7.4982,7.4982,7.4982,7.4982,7.4982,7.4093,6.671,6.3185,6.1969,5.521,5.1758,5.2537,5.2849,5.342,5.4251,5.4537,5.4641,5.4719,5.4719,5.4719,5.4719,5.4719,5.4693,5.3354,5.0668,5.0007,5.0999,4.764,4.7308,4.764,4.6288,4.4286,4.3283,4.1586,3.9232,3.7562,3.5548,3.173,2.9998,3.1123,2.97,2.8293,2.7755,2.7795,2.7834,2.7834,2.7861,2.7874,2.794,2.7992,2.6309,1.818,0.662,-0.8726,-1.9333,-2.6729,-2.7702,-2.3818,-2.2226,-2.2397,-2.7034,-2.8843,-3.0266,-3.2396,-3.489,-3.9204,-4.3884,-4.9351,-5.4491,-5.6151,-5.7798,-5.8147,-5.8147,-6.1163,-6.5198,-7.089,-7.7202,-8.159,-8.3605,-8.557,-8.7722,-9.0477,-9.4115,-9.8373,-10.2925,-10.5017,-10.5645,-10.7757,-10.9417,-11.0314,-11.0958,-11.3423,-11.6882,-11.9885,-12.3696,-12.9125,-13.4056,-13.7875,-14.2622,-14.7451,-15.1571,-15.5712,-15.8753,-16.1712,-16.1901,-16.2597,-16.4897,-16.6977,-16.7712,-16.8058,7.4982,7.4982,7.4982,7.4982,7.4982,7.4982,7.4982,7.4982,7.4982,7.4982,7.4415,6.671,6.3185,6.2297,5.4879,5.2378,5.233,5.2849,5.342,5.3992,5.4563,5.4667,5.4719,5.4719,5.4719,5.4719,5.4719,5.4693,5.4037,5.2342,5.2342,5.4037,5.1329,5.2013,5.2013,5.1683,5.0338,4.9321,4.7308,4.4286,4.1586,3.9905,4.0001,3.7224,3.7973,3.2286,3.0223,2.933,3.0141,2.9484,2.8812,2.7795,2.7795,2.7847,2.7913,2.7672,2.6309,2.2772,0.8381,-0.9117,-1.8834,-1.6523,-1.4074,-1.2005,-1.9483,-2.5564,-2.9261,-3.1023,-3.3138,-3.4906,-3.8485,-4.4221,-5.0348,-5.3993,-5.6101,-5.7449,-5.8147,-5.8469,-6.0499,-6.4857,-6.9085,-7.5452,-8.2922,-8.4967,-8.649,-8.9536,-9.2882,-9.6559,-10.081,-10.5308,-10.7757,-10.8043,-10.9183,-10.9308,-11.02,-11.23,-11.6714,-12.1054,-12.2736,-12.5868,-13.0759,-13.5277,-13.9112,-14.3225,-14.7547,-15.1744,-15.6033,-15.9948,-16.3544,-16.3462,-16.3568,-16.6124,-16.7981,-16.7355,-16.7389,7.4982,7.4982,7.4982,7.4982,7.4982,7.4982,7.4982,7.4982,7.4982,7.4982,7.4377,6.6418,6.2889,6.1406,5.4879,5.2121,5.2589,5.2901,5.3576,5.4251,5.4563,5.4667,5.4719,5.4719,5.4719,5.4719,5.4719,5.4719,5.4693,5.3354,5.3683,5.4365,5.3683,5.4037,5.4365,5.4037,5.3683,5.2342,5.0668,4.7972,4.5621,4.3952,4.5839,4.6305,4.3784,3.733,3.3527,3.2271,3.3785,3.2503,3.0498,2.8812,2.7795,2.7808,2.7847,2.7913,2.7685,2.6296,1.9627,0.8165,-0.0,-0.6115,-0.0,-0.0,-2.1474,-2.7892,-2.9693,-3.1065,-3.5031,-3.6402,-3.8862,-4.5688,-5.216,-5.4224,-5.6401,-5.71,-5.7798,-5.9165,-6.0845,-6.383,-6.8073,-7.5087,-8.2562,-8.557,-8.6809,-9.0789,-9.5646,-9.9572,-10.4096,-10.8663,-10.8947,-10.928,-10.9271,-10.9343,-11.1244,-11.3372,-11.7941,-12.5414,-12.6997,-12.8065,-13.2125,-13.6461,-14.0388,-14.4336,-14.8071,-15.219,-15.6765,-16.0829,-16.4467,-16.5668,-16.5444,-16.7048,-16.6368,-16.6076,-16.6592,7.4982,7.4982,7.4982,7.4982,7.4982,7.4982,7.4982,7.4982,7.4982,7.3486,7.0514,6.5833,6.2,5.8418,5.3993,5.168,5.1914,5.2589,5.3472,5.3576,5.4303,5.4641,5.4719,5.4719,5.4719,5.4719,5.4719,5.4719,5.4719,5.4719,5.4719,5.4719,5.4693,5.4719,5.4719,5.4719,5.4719,5.4365,5.3354,5.0999,4.9321,4.9723,5.1597,5.1817,4.8936,4.3097,3.8895,3.7294,3.7544,3.4869,3.2844,3.1168,2.8469,2.7795,2.7808,2.7834,2.7209,2.4453,2.3164,1.4189,1.004,-0.0,-0.0,-0.0,-2.4537,-2.8692,-2.901,-3.15,-3.7722,-3.9777,-4.2888,-5.0973,-5.522,-5.6026,-5.7449,-5.7798,-5.8147,-5.8147,-5.9486,-6.1853,-6.6161,-7.5189,-8.2959,-8.4532,-8.7921,-9.3149,-9.8373,-10.3218,-10.7757,-10.8663,-10.928,-10.928,-10.9368,-10.9308,-11.0839,-11.3867,-12.081,-12.8725,-13.0753,-13.105,-13.4697,-13.7479,-14.1622,-14.559,-14.9556,-15.3724,-15.7724,-16.0797,-16.3644,-16.5352,-16.6105,-16.5587,-16.4828,-16.5183,-16.5817,7.4982,7.4982,7.4982,7.4982,7.4982,7.4982,7.4982,7.4982,7.4982,7.3486,7.0514,6.5247,6.1406,5.8117,5.4602,5.1447,5.1758,5.2641,5.3213,5.342,5.4277,5.4615,5.4719,5.4719,5.4719,5.4719,5.4719,5.4719,5.4719,5.4719,5.4719,5.4719,5.4719,5.4719,5.4719,5.4719,5.4719,5.4719,5.4693,5.3683,5.0999,5.3025,5.4494,5.4396,5.2186,4.8897,4.6354,4.3784,4.1467,3.7648,3.4636,3.1886,2.8104,2.761,2.7623,2.765,2.7464,2.4372,2.2751,2.1289,1.867,-0.0,-0.0,-0.0,-1.8196,-2.4189,-2.6393,-2.7389,-3.5125,-4.0933,-4.4002,-5.1351,-5.5647,-5.6451,-5.8147,-5.8147,-5.8147,-5.8147,-5.8817,-6.119,-6.5569,-7.4261,-7.9387,-8.0866,-8.9015,-9.5824,-10.0125,-10.4726,-10.8377,-10.8947,-10.928,-10.928,-10.9232,-10.9271,-11.0989,-11.5595,-12.191,-12.8063,-13.098,-13.2535,-13.5566,-13.8611,-14.22,-14.5488,-15.0371,-15.5066,-15.7591,-16.0138,-16.291,-16.4321,-16.4561,-16.4291,-16.3845,-16.4202,-16.4779,7.4982,7.4982,7.4982,7.4982,7.4982,7.4982,7.4982,7.4982,7.4982,7.4699,7.2879,6.6418,6.2889,6.0513,5.427,5.1781,5.1966,5.2563,5.3135,5.3602,5.4199,5.4589,5.4693,5.4719,5.4719,5.4719,5.4719,5.4719,5.4719,5.4719,5.4719,5.4719,5.4719,5.4719,5.4719,5.4719,5.4719,5.4719,5.4719,5.4693,5.4037,5.4365,5.4719,5.4797,5.3708,5.3354,5.156,4.9629,4.5072,4.0466,3.6746,3.26,2.8101,2.7254,2.736,2.7399,2.7636,2.7451,2.7222,2.7486,2.0219,-0.0,-0.0,-0.0,-0.0,-1.4467,-2.3028,-2.0324,-3.1416,-3.8398,-4.3382,-4.7994,-5.1569,-5.3969,-5.71,-5.8147,-5.8147,-5.8147,-5.9512,-6.119,-6.6901,-7.2229,-7.5248,-8.0538,-9.0985,-9.8196,-10.204,-10.5064,-10.8377,-10.928,-10.928,-10.928,-10.9232,-10.9271,-11.0331,-11.5812,-12.1724,-12.6912,-13.0534,-13.2419,-13.5026,-13.812,-14.1658,-14.5251,-14.9938,-15.4879,-15.7397,-15.9622,-16.0831,-16.2019,-16.2422,-16.2656,-16.2853,-16.2971,-16.3337,7.4982,7.4982,7.4982,7.4982,7.4982,7.4982,7.4982,7.4982,7.4982,7.3771,7.0514,6.5507,6.1703,5.8147,5.3383,5.1447,5.1706,5.2174,5.2745,5.3316,5.3888,5.4303,5.4589,5.4719,5.4719,5.4719,5.4719,5.4719,5.4719,5.4719,5.4719,5.4719,5.4719,5.4719,5.4719,5.4719,5.4719,5.4719,5.4719,5.4719,5.4719,5.4719,5.4719,5.4719,5.4719,5.4719,5.4037,5.3,4.8381,4.2747,3.854,3.4421,3.0005,2.7004,2.7149,2.7294,2.7465,2.7623,2.7887,2.7985,2.5847,1.7138,-0.0,-0.0,-0.0,-0.445,-1.4817,-1.4396,-2.5519,-3.4791,-3.8176,-4.3566,-4.7844,-5.1784,-5.4575,-5.8147,-5.8147,-5.8147,-5.9486,-6.1881,-6.804,-7.4128,-7.8221,-8.4739,-9.479,-10.2887,-10.5152,-10.6223,-10.8663,-10.928,-10.928,-10.928,-10.928,-10.9173,-11.0002,-11.628,-12.2691,-12.7418,-12.97,-13.1889,-13.4485,-13.72,-14.0445,-14.515,-14.9764,-15.4426,-15.7279,-15.9302,-15.9934,-16.0024,-15.9898,-15.9961,-16.0333,-16.1367,-16.1693,7.4982,7.4982,7.4982,7.4982,7.4982,7.4982,7.4982,7.4982,7.4982,7.3486,7.1089,6.58,6.1703,5.8418,5.4575,5.1317,5.1395,5.1888,5.2459,5.3005,5.3576,5.4147,5.4511,5.4719,5.4719,5.4719,5.4719,5.4719,5.4719,5.4719,5.4719,5.4719,5.4719,5.4719,5.4719,5.4719,5.4719,5.4719,5.4719,5.4719,5.4719,5.4719,5.4719,5.4719,5.4719,5.4719,5.4693,5.4693,4.8993,4.3324,4.1103,3.4862,2.842,2.7071,2.6819,2.6951,2.7254,2.7439,2.7689,2.8217,2.8665,2.5154,-0.0,-0.0,-0.0,-0.0,-0.0,-1.4047,-2.4071,-3.112,-3.4937,-3.9906,-4.4935,-4.8843,-5.2771,-5.67,-5.8147,-5.8147,-5.9512,-6.3545,-6.9057,-7.5261,-8.1919,-8.8551,-9.7832,-10.6139,-10.6756,-10.7422,-10.8377,-10.928,-10.928,-10.928,-10.928,-10.9271,-11.2778,-11.8037,-12.3606,-12.6464,-12.8923,-13.1535,-13.4425,-13.7234,-14.1136,-14.5331,-15.0015,-15.3666,-15.6611,-15.8873,-15.9561,-15.9011,-15.8467,-15.8093,-15.8719,-15.9621,-16.0025,7.4982,7.4982,7.4982,7.4982,7.4982,7.4982,7.4982,7.4982,7.4982,7.4982,7.3486,6.7875,6.4332,6.1406,5.5761,5.2212,5.1317,5.1836,5.2407,5.2979,5.355,5.407,5.4537,5.4719,5.4719,5.4719,5.4719,5.4719,5.4719,5.4719,5.4719,5.4719,5.4719,5.4719,5.4719,5.4719,5.4719,5.4719,5.4719,5.4719,5.4719,5.4719,5.4719,5.4719,5.4719,5.4693,5.4365,5.3683,4.9063,4.0291,3.994,3.5966,2.8881,2.7472,2.7158,2.7031,2.7004,2.728,2.7584,2.8111,2.8665,2.3534,-0.0,-0.0,-0.0,-0.0,-0.0,-1.4034,-2.3703,-2.9248,-3.2454,-3.7059,-4.283,-4.7091,-5.0986,-5.4925,-5.7798,-5.7798,-6.0526,-6.4886,-7.0039,-7.5892,-8.2281,-8.7958,-9.6568,-10.2741,-10.3894,-10.5308,-10.6847,-10.8663,-10.8663,-10.928,-10.928,-11.1107,-11.5011,-11.9481,-12.4055,-12.6995,-12.9681,-13.2415,-13.4923,-13.858,-14.2226,-14.6548,-15.0843,-15.3257,-15.5844,-15.7869,-15.894,-15.8187,-15.7966,-15.8319,-15.8815,-15.9002,-15.9052,7.4982,7.4982,7.4982,7.4982,7.4982,7.4982,7.4982,7.4982,7.4982,7.4982,7.4377,7.2594,6.8166,6.3153,5.8117,5.3661,5.1291,5.1447,5.2096,5.2745,5.3239,5.381,5.4433,5.4719,5.4719,5.4719,5.4719,5.4719,5.4719,5.4719,5.4719,5.4719,5.4719,5.4719,5.4719,5.4719,5.4719,5.4719,5.4719,5.4719,5.4693,5.4693,5.4693,5.4693,5.4365,5.3354,5.0338,4.9652,4.5404,3.8652,3.826,3.5586,2.8795,2.8269,2.8508,2.6817,2.6448,2.7083,2.7452,2.8312,2.8559,2.5366,1.762,-0.0,-0.0,-0.0,-0.4061,-1.5139,-2.4439,-2.8502,-3.1374,-3.7933,-4.1849,-4.5332,-4.9197,-5.3497,-5.7075,-5.8147,-6.0179,-6.4886,-7.0313,-7.6521,-8.0579,-8.6932,-9.2736,-9.881,-10.201,-10.3496,-10.5308,-10.747,-10.8091,-10.928,-10.9504,-11.1094,-11.5958,-12.144,-12.4494,-12.7956,-13.1184,-13.4065,-13.6395,-13.9713,-14.3916,-14.8038,-15.2389,-15.4912,-15.6688,-15.764,-15.8529,-15.8242,-15.8182,-15.853,-15.8622,-15.8541,-15.8421,7.4982,7.4982,7.4982,7.4982,7.4982,7.4982,7.4982,7.4982,7.4982,7.4982,7.4699,7.3486,7.0226,6.5247,5.9616,5.5154,5.1905,5.1317,5.194,5.2823,5.3109,5.3628,5.4459,5.4719,5.4719,5.4719,5.4719,5.4719,5.4719,5.4719,5.4719,5.4719,5.4719,5.4719,5.4719,5.4719,5.4693,5.4693,5.4693,5.4693,5.4365,5.3025,5.1683,5.1683,4.9652,4.764,4.5621,4.4954,4.1113,3.6552,3.566,3.3674,2.9223,2.8241,2.8965,2.6331,2.624,2.6526,2.7215,2.8192,2.8766,2.6742,2.421,1.8124,1.2969,0.5555,-0.5178,-1.9597,-2.669,-2.9248,-3.1023,-3.7225,-4.0049,-4.3208,-4.7049,-5.1339,-5.42,-5.6325,-5.9806,-6.5198,-7.0586,-7.2935,-7.6287,-8.1401,-8.6044,-9.1254,-9.4832,-9.777,-10.0765,-10.4435,-10.6847,-10.8329,-10.9574,-11.0818,-11.6929,-12.3333,-12.6408,-12.9691,-13.3094,-13.5894,-13.8155,-14.1715,-14.6081,-15.0324,-15.3491,-15.5773,-15.7829,-15.8496,-15.853,-15.8431,-15.8357,-15.8557,-15.8769,-15.853,-15.7815,7.4982,7.4982,7.4982,7.4982,7.4982,7.4982,7.4982,7.4982,7.4982,7.4982,7.4699,7.1699,7.0226,6.7875,6.1672,5.5761,5.2492,5.1369,5.1914,5.2875,5.3031,5.3602,5.4563,5.4693,5.4719,5.4719,5.4719,5.4719,5.4719,5.4719,5.4719,5.4719,5.4719,5.4719,5.4719,5.4719,5.4693,5.4037,5.3683,5.3354,5.2013,4.899,4.7285,4.5933,4.391,4.1922,4.129,4.0242,3.822,3.4059,3.3506,3.1529,2.78,2.6684,2.6739,2.6133,2.6005,2.6305,2.7069,2.8401,2.905,2.8519,2.8222,2.854,1.8533,0.5923,-1.2981,-2.8641,-2.9365,-2.9667,-3.0658,-3.4621,-3.6748,-3.9923,-4.3468,-4.7049,-5.0633,-5.2395,-5.7295,-6.2717,-6.721,-6.9809,-7.0662,-7.4784,-7.9239,-8.3852,-8.8079,-9.1994,-9.6212,-10.1403,-10.4726,-10.6656,-10.8071,-11.1169,-11.6661,-12.4423,-12.8487,-13.1594,-13.5008,-13.8004,-14.1235,-14.497,-14.8946,-15.1547,-15.411,-15.6565,-15.7864,-15.8425,-15.8535,-15.853,-15.8468,-15.8546,-15.8724,-15.8041,-15.7304,7.4982,7.4982,7.4982,7.4982,7.4982,7.4982,7.4982,7.4982,7.4982,7.4982,7.4982,7.4093,7.3486,7.1735,6.5507,5.7817,5.1598,5.1317,5.194,5.2771,5.3005,5.3602,5.4433,5.4719,5.4719,5.4719,5.4719,5.4719,5.4719,5.4719,5.4719,5.4693,5.4693,5.4719,5.4365,5.3708,5.2013,5.0668,4.9321,4.7308,4.462,4.2927,4.1527,3.9026,4.0501,3.9606,3.7277,3.6565,3.3525,3.1669,3.1276,3.1167,2.8118,2.9568,2.9227,2.6726,2.6331,2.6753,2.7175,2.8415,2.8928,2.8823,2.8857,2.4641,1.5847,-0.0369,-2.1219,-2.7941,-2.8616,-2.7756,-2.9601,-3.101,-3.3123,-3.596,-3.8467,-4.1322,-4.5271,-4.9882,-5.4778,-5.8953,-6.3459,-6.4877,-6.4409,-6.7981,-7.585,-8.0868,-8.5097,-8.8748,-9.3541,-9.8673,-10.1949,-10.4108,-10.7464,-11.0917,-11.7411,-12.4881,-12.7721,-13.2041,-13.6927,-14.0315,-14.4175,-14.7606,-15.0413,-15.3002,-15.5248,-15.6443,-15.7434,-15.8243,-15.8485,-15.8596,-15.8536,-15.8344,-15.798,-15.743,-15.6079,7.4982,7.4982,7.4982,7.4982,7.4982,7.4982,7.4982,7.4982,7.4982,7.4982,7.4377,7.3164,7.3164,7.2022,6.492,5.7244,5.2492,5.1317,5.1784,5.2485,5.2901,5.3498,5.4173,5.4589,5.4667,5.4719,5.4719,5.4719,5.4719,5.4719,5.4719,5.4365,5.2342,5.2796,5.3582,5.0741,4.6953,4.5621,4.462,4.3597,4.1586,4.1251,3.7756,3.467,3.3736,3.3865,3.2565,3.1509,3.0156,2.8689,2.9218,2.8616,2.8048,2.8028,2.8265,2.6739,2.6331,2.67,2.7083,2.7925,2.8392,2.8639,2.8727,2.5995,1.7588,0.515,-0.4806,-0.8489,-1.0677,-1.881,-2.8514,-2.9601,-3.0631,-3.3108,-3.5598,-3.8107,-4.1341,-4.7049,-5.094,-5.4428,-5.89,-6.115,-5.9768,-6.4923,-7.2433,-7.7859,-8.2091,-8.6576,-9.1102,-9.4771,-9.8071,-10.0971,-10.5072,-10.9953,-11.7624,-12.2296,-12.4757,-13.2639,-13.8791,-14.261,-14.6128,-14.878,-15.1511,-15.3839,-15.5118,-15.6195,-15.7188,-15.789,-15.8355,-15.859,-15.8255,-15.782,-15.7342,-15.6219,-15.454,7.4982,7.4982,7.4982,7.4982,7.4982,7.4982,7.4982,7.4982,7.4982,7.4982,7.4661,7.1699,7.2594,7.1412,6.2857,5.6942,5.4575,5.1931,5.1628,5.22,5.2771,5.3316,5.3966,5.4433,5.4693,5.4719,5.4719,5.4719,5.4719,5.4719,5.4771,5.3785,5.0362,4.8751,4.8867,4.5795,4.1922,4.0578,4.0242,3.9232,3.7882,3.7206,3.443,2.9629,2.9058,2.8798,2.8482,2.8138,2.7795,2.7742,2.7215,2.6938,2.6713,2.6331,2.6403,2.612,2.6397,2.67,2.699,2.7805,2.8245,2.8269,2.8375,2.7956,2.6625,2.016,1.3971,1.2504,0.6985,-0.4049,-2.4406,-2.8514,-2.9222,-3.0252,-3.2745,-3.5614,-3.8107,-4.3825,-4.9551,-5.1973,-5.5402,-5.8397,-6.0561,-6.4555,-7.2466,-7.9159,-8.2525,-8.6181,-9.102,-9.4157,-9.6862,-10.0169,-10.3465,-11.066,-11.7466,-12.0075,-12.5968,-13.5346,-14.0959,-14.4756,-14.7806,-15.0026,-15.1742,-15.3664,-15.5098,-15.6313,-15.6927,-15.7451,-15.7646,-15.7423,-15.7363,-15.7326,-15.5882,-15.437,-15.2648,7.4982,7.4982,7.4982,7.4982,7.4982,7.4982,7.4982,7.4982,7.4982,7.4868,7.4661,7.4699,7.3547,7.2842,6.5407,6.2265,5.9287,5.5154,5.1499,5.2096,5.2693,5.3265,5.3784,5.4303,5.4641,5.4693,5.4719,5.4365,5.4365,5.4719,5.4216,5.3378,4.8728,4.4933,4.3303,4.1251,3.8895,3.5887,3.5565,3.4238,3.1539,3.087,3.0527,2.7742,2.7808,2.7795,2.7795,2.7795,2.7781,2.7768,2.7228,2.6832,2.6555,2.6239,2.6041,2.6081,2.6542,2.6819,2.7043,2.7465,2.7913,2.8177,2.8076,2.8232,2.8479,2.654,2.486,2.4585,2.1735,1.106,-1.3647,-2.4417,-2.8855,-2.99,-2.9874,-3.2745,-3.6321,-4.1341,-4.7404,-5.0588,-5.5377,-5.922,-6.1752,-6.5776,-7.3662,-8.0429,-8.2848,-8.6064,-9.1519,-9.5646,-9.8973,-10.229,-10.5745,-11.1822,-11.6348,-11.9783,-12.9893,-13.8031,-14.3083,-14.6657,-14.9958,-15.2092,-15.3827,-15.4772,-15.5473,-15.6621,-15.7473,-15.7234,-15.6681,-15.6076,-15.5772,-15.5306,-15.3936,-15.2399,-15.0639,7.4982,7.4982,7.4982,7.4982,7.4982,7.4982,7.4982,7.4906,7.4527,7.4299,7.4223,7.3805,7.25,7.018,6.4951,6.0826,5.8418,5.3528,5.1135,5.1758,5.2589,5.3109,5.3498,5.394,5.4433,5.4693,5.4719,5.3025,5.2417,5.2896,5.2284,4.7533,4.303,3.8839,3.4686,3.3785,3.3184,3.1524,3.0972,3.0399,2.8352,2.8019,2.8019,2.8006,2.7874,2.7795,2.7795,2.7795,2.7716,2.7505,2.7149,2.6779,2.6502,2.6212,2.616,2.6305,2.67,2.6938,2.7188,2.7544,2.7861,2.7979,2.7867,2.7998,2.8154,2.844,2.861,2.8688,2.6322,1.7293,-1.105,-2.3671,-2.8502,-2.9548,-2.9509,-3.1668,-3.6321,-4.0982,-4.6338,-5.3426,-5.637,-5.9592,-6.4659,-6.992,-7.6734,-8.1152,-8.3617,-8.7131,-9.2263,-9.6255,-9.9871,-10.405,-10.7753,-11.1445,-11.5656,-12.2417,-13.216,-13.9857,-14.4959,-14.8696,-15.1244,-15.3408,-15.5743,-15.6294,-15.676,-15.7711,-15.719,-15.6681,-15.6088,-15.4999,-15.3918,-15.3144,-15.1817,-14.9637,-14.7748,7.4451,7.4451,7.4451,7.4451,7.4451,7.4846,7.4808,7.4337,7.3729,7.3463,7.3034,7.1953,6.9721,6.7106,6.2053,5.873,5.6052,5.2355,5.0486,5.1083,5.2122,5.2615,5.2927,5.3394,5.4018,5.4589,5.4719,5.2342,4.97,5.0197,4.82,3.9512,3.5784,3.241,2.8934,2.9086,2.7795,2.7834,2.8058,2.8526,2.8177,2.8243,2.8309,2.8283,2.8045,2.7887,2.7821,2.7795,2.761,2.728,2.6964,2.6648,2.6397,2.616,2.6146,2.6371,2.6674,2.7004,2.7254,2.7544,2.7795,2.7847,2.7685,2.7841,2.8151,2.8089,2.8232,2.8665,2.7854,1.5264,-1.0595,-2.3597,-2.8451,-2.9535,-2.9509,-3.1262,-3.6126,-4.0688,-4.6754,-5.3535,-5.7064,-6.0499,-6.6972,-7.0013,-7.5462,-8.1404,-8.5251,-8.8355,-9.2263,-9.6255,-10.081,-10.5645,-10.9357,-11.3135,-11.6991,-12.1865,-13.2367,-14.1606,-14.6817,-15.1088,-15.2215,-15.3935,-15.5743,-15.7007,-15.7778,-15.7306,-15.667,-15.6013,-15.4342,-15.3334,-15.2426,-14.9865,-14.7748,-14.6589,-14.4491,7.2742,7.278,7.278,7.2742,7.3169,7.4263,7.4064,7.3131,7.2704,7.2628,7.1691,6.9057,6.7103,6.6476,5.9384,5.5908,5.5179,5.1436,5.0057,5.02,5.0901,5.1784,5.2226,5.2745,5.355,5.4485,5.4693,5.1988,4.8327,4.6576,4.0739,3.2979,2.9912,2.8266,2.8058,2.7768,2.7795,2.7874,2.8124,2.8269,2.8348,2.8507,2.8599,2.8559,2.8335,2.8432,2.79,2.7742,2.7505,2.6977,2.6687,2.6423,2.616,2.6094,2.6094,2.6226,2.6621,2.6924,2.7043,2.7518,2.7795,2.7808,2.7847,2.7847,2.7927,2.8111,2.8296,2.8335,2.7955,1.2916,-0.9731,-2.2961,-2.7859,-2.9403,-2.9456,-3.1371,-3.5572,-3.9898,-4.4932,-5.0534,-5.504,-5.7163,-6.06,-6.4497,-7.0427,-7.8458,-8.4652,-8.9959,-9.6081,-9.8814,-10.2479,-10.675,-11.0794,-11.4719,-11.8229,-12.1701,-13.2992,-14.236,-14.6894,-15.1398,-15.255,-15.4785,-15.6276,-15.6946,-15.725,-15.7044,-15.5874,-15.4044,-15.2466,-15.1146,-14.9504,-14.6343,-14.3111,-14.2527,-13.9209,7.2514,7.2476,7.1428,7.174,7.2514,7.3253,7.3215,7.2438,7.2021,7.0668,6.8534,6.6494,6.3187,5.9006,5.596,5.3621,5.1639,4.9965,4.9291,4.9629,5.0396,5.1102,5.1499,5.1862,5.2797,5.4044,5.4199,5.0379,4.5223,4.3555,3.7473,2.9671,2.765,2.7702,2.7795,2.7795,2.7861,2.8058,2.8309,2.8559,2.8718,2.8849,2.8902,2.8849,2.8625,2.8335,2.8019,2.7702,2.7267,2.6779,2.6555,2.6357,2.6094,2.6041,2.6133,2.6318,2.6674,2.7004,2.7228,2.7557,2.7808,2.7847,2.7808,2.7795,2.7821,2.7887,2.7992,2.7029,2.2295,0.8508,-0.9971,-1.8329,-2.3132,-2.7918,-2.9008,-3.1031,-3.5312,-3.7661,-4.0888,-4.6129,-5.1529,-5.6225,-5.6745,-6.5823,-7.132,-7.6083,-8.3937,-9.2048,-9.9722,-10.1657,-10.418,-10.7947,-11.1718,-11.6866,-12.1092,-12.5232,-13.4699,-14.0239,-14.5148,-15.1052,-15.3434,-15.663,-15.7628,-15.7843,-15.7296,-15.6352,-15.3892,-15.1808,-14.9732,-14.7513,-14.67,-14.4172,-14.0949,-13.9198,-13.4173,7.1869,7.1831,7.0443,7.0752,7.1831,7.1869,7.1831,7.1755,7.034,6.8421,6.634,6.3328,5.9045,5.4841,5.3213,5.0913,4.9304,4.8538,4.8798,4.9109,4.9482,5.0004,5.0278,5.0849,5.1966,5.3126,5.2144,4.808,4.1408,3.9848,3.5191,2.8138,2.7781,2.7795,2.7795,2.7795,2.794,2.8203,2.8493,2.8784,2.9034,2.9153,2.9205,2.9179,2.8929,2.8639,2.7959,2.7768,2.7175,2.6568,2.6423,2.6265,2.6081,2.6054,2.612,2.6357,2.6674,2.703,2.7294,2.7597,2.7808,2.7861,2.7821,2.7795,2.7795,2.7808,2.7861,2.5827,1.6438,0.4216,-0.7756,-1.6009,-2.1793,-2.7511,-2.852,-2.982,-3.2881,-3.4638,-3.6741,-4.0587,-4.6534,-5.1656,-5.6222,-6.4384,-7.244,-7.6875,-8.3659,-9.1032,-9.8145,-10.2244,-10.6432,-10.9617,-11.4242,-11.9299,-12.4518,-12.9103,-13.3745,-13.9537,-14.5512,-15.166,-15.4455,-15.7174,-15.7989,-15.7938,-15.6315,-15.4171,-15.179,-14.8502,-14.5765,-14.2951,-14.079,-13.7527,-13.5461,-13.3017,-12.7712,7.016,7.016,7.0123,6.9971,7.0274,7.0312,7.0046,6.9401,6.681,6.6542,6.6273,5.9013,5.565,5.6177,5.1205,4.8462,4.7941,4.7993,4.8096,4.8122,4.8148,4.8226,4.8668,4.9888,5.1395,5.2241,4.956,4.5189,4.0661,3.733,3.2518,2.8442,2.7781,2.7795,2.7795,2.7795,2.7927,2.8217,2.8507,2.8797,2.9087,2.9337,2.9482,2.9456,2.9567,2.926,2.852,2.7633,2.7333,2.6582,2.6252,2.6107,2.6054,2.6041,2.6054,2.612,2.6608,2.6885,2.7056,2.7491,2.7808,2.7821,2.7821,2.7795,2.7808,2.7516,2.7197,2.4084,1.1139,-0.0,-0.0,-1.6234,-2.5962,-2.8428,-2.7841,-2.8006,-2.855,-3.1942,-3.4482,-3.6331,-3.8171,-4.3132,-5.5706,-6.2823,-7.151,-7.8761,-8.5021,-9.2002,-9.8532,-10.4341,-10.8526,-11.3148,-11.7813,-12.3384,-12.954,-13.3927,-13.7541,-14.3091,-14.8834,-15.2665,-15.5039,-15.6677,-15.7722,-15.6013,-15.4325,-15.1879,-14.898,-14.4599,-14.1173,-13.8034,-13.4185,-13.009,-12.7081,-12.4548,-12.032,7.0047,7.0047,7.0047,7.0047,7.0047,7.0047,6.8645,6.6434,6.5017,6.2544,5.9533,5.5121,5.2874,5.1489,4.9268,4.7889,4.7889,4.7889,4.7889,4.7889,4.7889,4.7889,4.8096,4.9291,5.0823,5.126,4.8129,4.4166,4.0209,3.7044,3.2916,2.8239,2.7716,2.7795,2.7795,2.7808,2.7927,2.8217,2.8507,2.8823,2.9153,2.9443,2.9588,2.9561,2.9364,2.9313,2.8388,2.7158,2.6567,2.6648,2.6226,2.6054,2.6041,2.6041,2.6041,2.616,2.6582,2.663,2.6695,2.7518,2.7861,2.7861,2.7861,2.7861,2.7874,2.7927,2.1249,1.287,-0.0,-0.0,-0.0,-1.72,-2.4289,-2.0324,-2.4442,-2.7529,-2.8152,-2.9484,-3.1584,-3.5615,-3.9493,-4.7413,-5.7985,-6.7359,-7.7295,-8.2762,-8.759,-9.306,-10.1571,-10.7256,-11.3948,-11.9653,-12.284,-12.7834,-13.4083,-13.826,-14.1532,-14.7011,-15.1965,-15.3392,-15.4471,-15.5698,-15.5033,-15.333,-14.954,-14.6797,-14.1575,-13.8042,-13.4732,-13.2256,-12.8903,-12.3792,-11.8791,-11.6163,-11.2424,6.9781,7.0009,7.0009,6.9401,6.8415,6.9434,6.7908,6.4513,6.1727,5.9533,5.6765,5.3184,5.0949,4.9553,4.815,4.7889,4.7889,4.7889,4.7889,4.7889,4.7889,4.7889,4.8071,4.8876,5.0044,5.0265,4.6112,4.1727,3.7867,3.4685,3.158,2.7942,2.7505,2.765,2.765,2.7755,2.7927,2.8217,2.852,2.8492,2.8818,2.65,2.3241,2.1677,2.6769,2.8942,2.7828,2.6597,2.6115,2.6318,2.6292,2.6107,2.6081,2.6067,2.6054,2.6133,2.6305,2.6643,2.6734,2.7531,2.7861,2.7887,2.79,2.6839,2.4027,2.0546,1.287,0.3129,-0.0,-0.0,-0.0,-1.221,-1.8502,-1.8449,-2.3693,-2.7874,-2.8152,-2.9484,-3.2487,-3.7792,-4.4302,-5.2619,-6.3354,-7.2426,-8.1283,-8.6719,-9.2763,-9.8445,-10.6132,-11.1758,-11.8791,-12.6491,-12.8283,-13.1828,-13.8166,-14.3269,-14.7289,-15.2487,-15.3438,-15.3613,-15.368,-15.392,-15.1914,-14.923,-14.4509,-13.9769,-13.3948,-12.9614,-12.6265,-12.3519,-11.9626,-11.5316,-11.1168,-10.6874,-10.3143,6.9287,6.9441,6.9964,6.7209,6.5229,6.7315,6.7315,6.2919,5.7043,5.7321,5.95,5.2591,4.9838,5.1517,4.9008,4.7889,4.7889,4.7889,4.7889,4.7889,4.7889,4.7889,4.7915,4.8538,4.9239,4.899,4.2484,3.7344,3.3583,2.9697,2.7577,2.6964,2.7215,2.736,2.736,2.7584,2.7874,2.8124,2.8102,2.7727,2.7709,1.9057,1.0985,0.5083,1.8548,2.6287,2.4823,2.5752,2.6039,2.6039,2.5731,2.5888,2.581,2.6094,2.6081,2.6199,2.6279,2.6898,2.703,2.7478,2.7808,2.749,2.6826,2.1564,1.4244,-0.0,-0.0,-0.0,-0.0,-0.0,-0.0,-0.3134,-1.0082,-2.4084,-2.7542,-2.8536,-2.9155,-3.1836,-3.781,-4.5361,-5.3126,-5.9946,-6.9719,-7.7658,-8.3883,-9.0894,-9.9154,-10.6729,-11.0807,-11.8268,-12.6342,-13.2915,-13.5779,-13.8133,-14.3163,-14.8223,-15.2676,-15.5761,-15.3561,-15.1072,-15.035,-14.543,-14.2775,-14.2567,-13.7881,-13.159,-12.5837,-12.0286,-11.715,-11.2463,-10.8763,-10.4613,-9.9795,-9.4866,-9.1957,6.7006,6.5073,6.1391,6.0226,6.0599,6.0181,5.8769,5.6796,5.4561,5.3184,5.262,4.9553,4.8436,4.9294,4.8462,4.7889,4.7889,4.7889,4.7889,4.7889,4.7889,4.7889,4.7967,4.8486,4.7534,4.5117,4.3113,3.8931,3.2877,2.8411,2.6621,2.6648,2.6911,2.7056,2.7056,2.7135,2.7254,2.7465,2.7913,2.146,1.024,0.6454,0.2889,-0.0,0.609,0.9191,0.8631,1.9797,2.6039,2.5072,2.0407,1.9909,2.5163,2.6133,2.6107,2.6133,2.6175,2.6396,2.674,2.693,2.7268,2.6914,1.6604,0.799,0.5212,0.174,-0.0,-0.0,-0.0,-0.0,-0.0,-0.7639,-1.666,-2.5432,-3.057,-3.2534,-3.2844,-3.9101,-4.4344,-4.9345,-6.1162,-7.0132,-7.4245,-8.2109,-8.8701,-9.3082,-10.441,-11.3776,-11.8819,-12.6146,-13.3661,-13.9733,-14.1986,-14.5092,-14.775,-14.7791,-15.0225,-15.127,-14.9811,-14.6397,-14.3265,-13.5908,-13.2271,-13.3165,-12.983,-12.3518,-11.7544,-11.1356,-10.6228,-10.1191,-9.7166,-9.268,-8.7773,-8.2857,-7.9342,6.4423,6.011,5.6282,5.5229,5.5962,5.3277,5.2536,5.274,5.1404,5.0032,4.9216,4.8042,4.7577,4.7577,4.7369,4.7265,4.7291,4.7499,4.7577,4.7603,4.7785,4.7889,4.7627,4.6753,4.5223,4.315,4.0753,3.6241,3.0127,2.7509,2.6331,2.6371,2.6608,2.6753,2.6779,2.6872,2.6964,2.6387,2.0293,1.2158,-0.0,-0.0,-0.0,-0.0,-0.0,-0.0,-0.0,1.056,1.6536,1.6764,1.7832,2.0264,2.5422,2.6067,2.6001,2.5856,2.5784,2.594,2.6292,2.6487,2.5467,2.1348,0.819,-0.0,-0.0,-0.0,-0.0,-0.0,-0.0,-0.0,-0.0,-1.6437,-2.3266,-2.7711,-3.2758,-3.7133,-3.9859,-4.5122,-5.0392,-5.4524,-6.7838,-8.0669,-8.286,-8.7365,-9.3771,-10.0511,-11.1358,-12.1097,-12.8199,-13.6098,-14.2485,-14.6203,-14.7687,-14.8228,-14.9349,-14.5868,-14.6046,-14.6452,-14.1906,-13.5981,-13.0564,-12.2959,-11.9047,-11.9384,-11.4478,-10.8517,-10.5354,-9.9049,-9.1324,-8.6922,-8.4908,-8.0387,-7.5257,-7.0967,-6.7093,6.192,5.5804,5.3647,5.2273,5.1219,4.8134,4.8657,5.112,4.7858,4.8382,5.0357,4.8144,4.7006,4.6902,4.6512,4.6227,4.6305,4.6492,4.6698,4.7058,4.7525,4.7498,4.7263,4.3729,4.2198,4.1298,3.53,3.014,2.6658,2.6054,2.6041,2.6081,2.6344,2.6489,2.6516,2.6435,2.6271,2.2539,0.9582,-0.0,-0.0,-0.0,-0.0,-0.0,-0.0,-0.0,-0.0,-0.0,-0.0,-0.0,1.4915,2.4577,2.5936,2.5549,2.5075,2.5133,2.5198,2.5302,2.579,2.5953,2.1922,1.2613,-0.0,-0.0,-0.0,-0.0,-0.0,-0.0,-0.0,-0.0,-2.422,-2.8532,-2.9038,-2.9879,-3.5877,-4.2633,-4.7085,-5.2919,-5.6456,-6.239,-7.3233,-8.3703,-9.4775,-9.4361,-10.073,-11.0882,-12.0842,-12.9333,-13.6576,-14.486,-14.9186,-15.0218,-14.9123,-14.6162,-13.6646,-13.2394,-13.7223,-13.9823,-13.1691,-11.9293,-11.42,-10.9471,-10.6864,-10.3746,-9.9594,-9.5671,-9.2131,-8.6366,-7.9232,-7.4875,-7.3223,-6.7397,-6.1718,-5.856,-5.5683,5.4318,5.0972,5.0177,4.8717,4.7186,4.657,4.703,4.7529,4.6754,4.6754,4.7556,4.6912,4.6201,4.5889,4.6097,4.6227,4.6227,4.6356,4.6434,4.646,4.659,4.5443,4.3183,4.1751,3.8909,3.4792,3.2181,2.9171,2.631,2.6041,2.6041,2.6067,2.6173,2.6239,2.6265,2.6044,2.011,0.8233,-0.0,-0.0,-0.0,-0.0,-0.0,-0.0,-0.0,-0.0,-0.0,-0.0,-0.0,-0.0,0.4238,1.2885,2.4642,2.0037,1.9334,2.4414,2.5055,2.5146,2.5049,2.4789,1.8761,0.53,0.1676,-0.0,-0.0,-0.0,-0.0,-0.0,-1.2022,-2.5962,-4.0963,-4.2005,-3.9277,-3.7419,-4.6483,-5.4546,-5.8801,-6.5763,-7.1523,-7.5647,-8.2694,-8.9258,-9.79,-10.6717,-11.3871,-12.242,-13.115,-13.8656,-14.082,-14.3396,-14.5862,-14.4815,-14.3788,-13.6046,-12.1338,-11.7067,-12.2515,-12.6115,-11.7543,-10.3308,-10.1504,-9.3664,-8.9125,-9.0247,-8.7734,-8.4095,-7.9342,-7.6963,-7.1748,-6.7572,-6.2015,-5.5268,-4.9599,-4.6177,-4.3957,5.0428,4.6508,4.7756,4.6697,4.457,4.4876,4.5136,4.5162,4.537,4.5473,4.5473,4.5499,4.5292,4.5006,4.5318,4.5473,4.5499,4.5733,4.5863,4.5863,4.4385,4.2934,4.0633,3.8076,3.4601,3.0782,2.9178,2.7448,2.611,2.6001,2.6067,2.6094,2.6133,2.4167,2.0547,1.7301,1.0461,-0.0,-0.0,-0.0,-0.0,-0.0,-0.0,-0.0,-0.0,-0.0,-0.0,-0.0,-0.0,-0.0,-0.0,0.4763,1.4791,1.3784,1.6246,2.4058,2.4854,2.4456,2.4495,1.7923,1.0196,0.0967,-0.0,-0.0,-0.0,-0.0,-0.3303,-1.1057,-2.6043,-4.0959,-5.2591,-5.3494,-5.1624,-5.1005,-5.8176,-6.6106,-7.0285,-7.8575,-8.5398,-8.9698,-9.6757,-10.3834,-10.9213,-11.6293,-12.2396,-12.7447,-13.1739,-13.5822,-13.8866,-14.0803,-14.0813,-13.7845,-12.91,-11.6277,-9.9307,-9.8353,-10.4105,-10.5809,-9.7477,-8.7306,-8.5027,-7.846,-7.5444,-7.5545,-7.1844,-6.8091,-6.594,-6.3165,-5.9397,-5.918,-5.2767,-4.5141,-4.0418,-3.7654,-3.4532,4.8259,4.3557,4.578,4.5331,4.2773,4.337,4.3682,4.3811,4.4227,4.4409,4.4305,4.4279,4.4305,4.4357,4.3884,4.3833,4.4201,4.4056,4.3966,4.3875,4.1338,3.9652,3.8689,3.2496,2.9484,2.9016,2.6372,2.5309,2.5566,2.5817,2.6001,2.6094,2.4154,1.923,1.2049,0.4238,-0.0,-0.0,-0.0,-0.0,-0.0,-0.0,-0.0,-0.0,-0.0,-0.0,-0.0,-0.0,-0.0,-0.0,-0.0,0.0939,0.3411,0.9565,1.6591,2.3815,2.4428,2.4134,2.2751,0.8999,-0.0,-0.0,-0.0,-0.0,-0.0,-0.0,-0.9847,-2.7573,-4.2325,-5.3431,-6.1474,-6.3062,-6.37,-6.5002,-7.1878,-7.7698,-8.3225,-9.0849,-9.7976,-10.2497,-11.1383,-12.1303,-12.1985,-12.2489,-12.3765,-12.8067,-12.9658,-13.0335,-13.2662,-13.4262,-13.3601,-12.5532,-11.0889,-9.0866,-7.8627,-8.3701,-8.7245,-8.1702,-7.9553,-7.5799,-6.9325,-6.5405,-6.3701,-6.1614,-5.7145,-5.4423,-5.282,-4.8668,-4.3319,-4.7272,-4.3934,-3.7118,-3.2979,-3.1069,-2.7844,4.2855,4.1422,4.214,4.2404,4.2175,4.3162,4.3837,4.4253,4.4357,4.3941,4.3188,4.311,4.337,4.3342,4.0015,3.9974,4.1467,3.6691,3.5824,3.7871,3.5432,3.3036,3.1159,2.984,2.7539,2.5718,2.4956,2.4709,2.5237,2.5355,2.5527,2.4169,1.2318,0.4887,0.2934,0.098,-0.0,-0.0,-0.0,-0.0,-0.0,-0.0,-0.0,-0.0,-0.0,-0.0,-0.0,-0.0,-0.0,-0.0,-0.0,0.5815,1.7641,2.077,2.2425,2.3839,2.4334,2.4041,2.2363,0.881,-0.0,-0.0,-0.5703,-0.955,-0.9868,-1.5442,-2.8906,-5.1174,-5.8506,-6.5744,-7.4812,-7.5202,-7.5237,-8.0393,-8.6543,-9.2003,-9.7693,-10.536,-11.0982,-11.1629,-11.5632,-12.2118,-12.7584,-12.7452,-12.8037,-13.3139,-13.2083,-12.7025,-12.2928,-12.1359,-11.4751,-10.2504,-8.8865,-7.7617,-7.2088,-7.1148,-7.1807,-7.6211,-7.1153,-6.4363,-5.7662,-5.4435,-5.2572,-4.7082,-4.3665,-4.3329,-4.2927,-4.0096,-3.8458,-3.7099,-3.5166,-3.2009,-2.8193,-2.5306,-2.0474,4.0254,4.0254,4.0254,4.0435,4.0799,4.1656,4.2487,4.3214,4.2721,4.2149,4.1656,4.083,4.0531,4.0703,3.8314,3.7316,3.7547,3.5209,3.4268,3.4464,3.157,2.9478,2.8087,2.6501,2.5314,2.3892,2.4169,2.4538,2.4973,2.5144,2.5003,2.3897,0.8308,-0.0,-0.0,-0.0,-0.0,-0.0,-0.0,-0.0,-0.0,-0.0,-0.0,-0.0,-0.0,-0.0,-0.0,-0.0,-0.2377,-0.7581,0.4261,1.1605,1.3244,1.6683,2.0583,2.3934,2.376,2.0202,1.2725,0.419,-0.1825,-0.5268,-0.9652,-1.7948,-3.2301,-4.0935,-5.2914,-7.0432,-7.3411,-7.846,-8.9118,-8.9708,-9.0917,-9.5717,-10.1896,-10.5659,-10.7085,-11.3752,-11.7743,-11.5897,-12.0489,-12.4864,-12.6023,-12.7006,-12.9528,-13.023,-12.6051,-11.8343,-10.9981,-10.4031,-9.5561,-8.3827,-7.658,-6.9852,-6.2814,-6.1955,-6.3485,-6.3602,-6.0336,-5.5289,-4.978,-4.6393,-4.3934,-3.962,-3.7118,-3.5816,-3.5725,-3.2896,-2.8701,-2.5764,-2.3886,-2.5319,-2.5061,-2.0839,-1.3977,3.9345,3.9345,3.9345,3.9241,3.9137,3.9708,4.0409,4.1111,4.0078,3.9312,3.8903,3.7477,3.677,3.6837,3.6097,3.4485,3.2455,3.4336,3.3843,3.1454,2.8115,2.6744,2.6651,2.3996,2.3035,2.3351,2.3918,2.4353,2.4643,2.4664,2.3575,1.9798,0.7217,-0.0,-0.0,-0.0,-0.0,-0.0,-0.0,-0.0,-0.0,-0.0,-0.0,-0.0,-0.0,-0.0,-0.0,-0.0,-0.6615,-1.4639,0.7603,1.5392,0.3482,0.9184,1.6041,2.332,2.117,1.364,0.0579,-0.2884,-0.6718,-1.2974,-1.4883,-2.7694,-5.5442,-6.663,-7.5639,-8.4144,-8.6596,-9.1794,-10.1488,-10.2329,-10.3616,-10.9971,-11.4594,-11.5376,-11.1088,-11.8206,-12.1279,-11.5456,-12.4291,-12.7027,-11.7762,-12.1015,-12.3955,-12.1191,-11.5553,-10.7353,-9.8629,-8.7734,-7.8412,-7.2023,-6.8552,-6.3092,-5.739,-5.9452,-5.9132,-5.2432,-5.118,-4.8859,-4.3668,-3.956,-3.6412,-3.5816,-3.1356,-2.9079,-2.8657,-2.3293,-1.8137,-1.2918,-1.3927,-1.5303,-1.8935,-1.3941,-0.5485,3.9345,3.9345,3.9345,3.8799,3.7994,3.854,3.8384,3.7611,3.7007,0.0,0.0,3.2334,3.2386,3.2649,2.9101,2.8592,3.0062,2.4961,2.3578,2.5874,2.2943,2.2112,2.2832,2.2399,2.2441,2.2758,2.3391,2.3826,2.3804,2.4156,1.7574,0.5268,0.1552,-0.0,-0.0,-0.0,-0.0,-0.0,-0.0,-0.0,-0.0,-0.0,-0.0,-0.0,-0.0,-0.0,-0.0,-0.9262,-1.2793,-0.949,-0.0748,0.6674,1.2515,1.4155,1.7384,2.1861,1.1134,0.2782,-0.0,-1.2087,-2.023,-2.1393,-2.8034,-3.8405,-5.3836,-7.095,-8.4389,-9.2861,-9.7654,-10.5365,-11.7657,-10.6331,-10.3496,-11.9006,-11.5741,-11.278,-11.3354,-12.0485,-12.125,-11.431,-11.8741,-11.8798,-10.3035,-10.7566,-11.3302,-11.3982,-10.6017,-9.8236,-9.3407,-8.1653,-7.193,-6.9102,-6.2465,-5.6243,-5.6949,-5.7143,-5.3356,-5.1369,-4.8131,-4.3356,-3.643,-3.1006,-2.7163,-2.4588,-1.9485,-1.7196,-1.655,-1.5249,-1.1388,-0.3902,-0.7809,-1.1399,-0.5855,0.1923,0.7914,3.8488,3.8514,3.8773,3.8591,0.0,3.8981,3.8202,3.6217,3.5993,3.463,3.1959,2.9408,2.8534,2.8678,2.636,2.5474,2.5369,2.3364,2.2665,2.2631,2.1281,2.107,2.1505,2.2099,2.2441,2.2613,2.3233,2.2091,1.9514,1.4599,0.7988,-0.0,-0.0,-0.0,-0.0,-0.0,-0.0,-0.0,-0.0,-0.0,-0.0,-0.0,-0.0,-0.0,-0.0,0.0,0.0,0.0,0.0,0.0,0.0,0.0,0.0,1.0662,0.8793,1.0909,0.8626,0.4983,-0.0,-1.4728,-2.0591,-1.4297,-2.2218,-3.1802,-4.2297,-6.4036,-7.7064,-7.6892,-9.5241,-11.0192,-11.8079,-11.8687,-11.9392,-12.1689,-11.9476,-11.5143,-11.122,-11.3546,-11.1615,-10.2476,-10.4408,-10.4076,-9.3535,-9.7772,-9.9546,-9.4196,-9.1038,-8.7473,-8.107,-7.3873,-6.9933,-6.982,-6.3803,-5.8967,-5.5675,-5.2327,-5.1154,-4.9654,-4.3818,-3.7117,-3.2443,-2.6734,-2.1684,-1.9496,-1.5995,-1.2167,-1.0249,-0.7997,-0.5434,-0.1601,-0.032,0.2876,1.0872,1.4275,1.6044,3.7968,3.7994,3.8462,3.8514,3.841,3.8339,3.7042,3.4782,3.412,3.3218,3.1595,2.6801,2.4691,2.4691,2.4691,2.3227,2.101,2.3527,2.3346,2.0938,2.1162,2.1307,2.1413,2.2138,2.2507,2.2534,2.2854,2.0178,1.4565,0.4682,-0.0,-0.0,-0.0,-0.0,-0.0,0.0,0.0,0.0,-0.0,-0.0,-0.0,-0.0,-0.0786,-0.2075,-0.337,0.0,-1.9525,-2.1387,-1.5362,-0.1266,0.9815,0.0,1.2588,0.0,0.0,0.0,0.0,0.0,0.0,0.0,0.0,0.0,-1.2661,-2.1846,-3.0574,-5.1671,-6.1626,-5.4986,-8.9466,-11.1344,-10.7791,-12.2724,-12.8544,-11.7804,-11.5649,-11.1971,-10.3793,-10.3666,-9.9745,-8.8261,-9.0766,-9.1486,-8.6305,-8.8745,-8.6544,-7.6022,-7.6167,-7.5077,-6.616,-6.6218,-6.7018,-6.6884,-6.6156,-6.2229,-5.0739,-5.0004,-4.9718,-4.4863,-3.6693,-3.1433,-2.8717,-2.2533,-1.7866,-1.6366,-1.3215,-0.8826,-0.4728,-0.1573,0.1574,0.4408,0.8502,1.4783,2.2976,2.2305,2.0691,3.9111,3.9111,3.9189,3.8643,3.7359,3.3211,3.128,3.0772,2.7665,2.6312,2.5984,2.2487,2.0826,2.0826,2.0826,2.0713,2.045,2.0956,2.124,2.1215,2.1268,2.1413,2.165,2.2033,2.2191,2.223,2.2323,1.8823,1.1829,0.38,-0.0,-0.0,-0.0,-0.0,-0.0,-0.0,-0.0,-0.0,-0.0,-0.0,-0.0,-0.0,-0.3123,-0.9609,-1.5088,-1.9083,-2.1051,-1.6369,-1.033,-0.2693,0.9086,1.1542,0.2667,0.0668,0.3581,0.0,0.5587,0.0,0.0,0.0,0.0,0.0,0.0,0.0,0.0,-3.579,-4.0195,-3.6797,-8.9136,-11.1085,-8.1985,-9.6676,-10.5053,-9.776,-9.0137,-8.6484,-8.87,-9.4191,-9.304,-8.0801,-9.0042,-9.0586,-7.5227,-7.7617,-7.8857,-7.1953,-6.9358,-6.4818,-5.7477,-5.7698,-5.7443,-5.1517,-5.5686,-5.7321,-4.9776,-4.8686,-4.43,-3.2139,-2.9301,-2.8352,-2.193,-1.6425,-1.2138,-0.8798,-0.5046,-0.0631,0.3782,0.4728,0.8821,1.7998,1.607,1.5681,2.2414,2.3931,2.4098,3.7437,3.5794,3.6109,3.505,3.2788,3.0641,2.9775,2.9779,2.8107,2.6553,2.5077,2.338,2.1675,2.0002,2.0147,2.0279,2.0398,2.0569,2.078,2.1031,2.1031,2.111,2.1242,2.1729,2.1954,2.198,2.2372,1.6587,0.5412,0.1723,-0.0,-0.0,-0.0,-0.0,-0.0,-0.0,-0.0,-0.0,-0.0,-0.0,-0.0,-0.8163,-1.4178,-1.747,-2.0633,-2.2476,-2.2415,-2.0181,-1.5583,-0.8214,0.1354,0.1052,-1.1472,-0.2254,0.4547,0.0,0.0,0.0,0.0,0.0,0.0,0.0,0.0,0.0,0.0,0.0,-1.3715,-3.7436,-5.5909,-6.2038,-5.1057,-7.5888,-8.7377,-7.421,-6.8368,-6.8065,-7.5114,-7.6376,-7.3665,-6.6292,-7.2922,-7.4138,-6.3441,-6.6874,-7.0283,-7.0205,-6.2031,-5.4428,-5.0642,-5.1169,-5.2108,-5.1802,-5.3323,-5.2959,-4.8331,-4.0959,-3.3631,-2.8812,-2.576,-2.2759,-1.8953,-1.3237,-0.8373,-0.624,-0.0942,0.4102,0.5991,0.976,1.5426,2.2097,2.1761,2.1046,2.4084,2.4986,2.4973,3.5439,3.3199,3.2605,3.0291,2.6898,2.6898,2.7035,2.6906,2.6906,2.5697,2.3333,2.3254,2.1715,1.9158,1.9158,1.9382,1.9778,2.0015,2.0332,2.0727,2.082,2.0899,2.0991,2.1545,2.0986,1.9353,1.8051,1.1191,-0.0,-0.0,-0.0,-0.0,-0.0,-0.0,-0.0,-0.0,-0.0,-0.0,-0.1899,-0.2814,-0.3205,-1.5897,-2.2619,-2.2611,-2.3205,-2.3641,-2.3635,-2.4037,-1.971,-1.0016,-0.6847,-0.8963,-1.6736,-0.1989,0.0,0.0,0.0,0.0,0.0,0.0,0.0,0.0,0.0,0.2916,1.5188,0.0,0.1953,0.0,-3.2857,-2.8477,-3.2649,-5.4568,0.0,0.0,-4.9821,-5.0446,-5.8352,-5.8822,-5.6977,-5.2849,-5.8322,-6.0022,-5.2939,-5.7789,-6.2591,-6.3973,-5.559,-4.8114,-4.502,-4.5756,-4.7858,-4.9965,-4.9536,-4.8154,-4.5175,-3.4443,-2.6882,-2.702,-2.2263,-1.7488,-1.5721,-0.9148,-0.4301,-0.2774,0.3112,0.7836,0.9411,1.4446,2.0131,2.4274,2.5224,2.5197,2.5197,2.5184,2.5184,3.4121,3.2992,2.9632,2.5281,2.0622,2.0638,2.0134,1.922,1.922,1.9021,1.874,1.7659,1.6966,1.6719,1.5941,0.0,1.7998,1.8024,1.8895,2.0437,2.0754,2.0783,2.0793,2.1408,1.853,1.1935,0.5104,0.1077,-0.0,-0.0,-0.0,-0.0,-0.0,-0.0,-0.0,-0.0,-0.0,-0.0,-0.7514,-1.1215,-1.1228,-1.8806,-2.2646,-2.3127,-2.3444,-2.3615,-2.4241,-2.4321,-1.7105,-0.2554,-1.3532,-1.5025,-0.2624,0.0,0.0,0.0,0.0,0.0,0.0,0.0,0.0,0.0,0.0,0.0,0.0,0.0,0.0,-3.3494,-4.3051,0.0,-3.8835,-3.0303,0.0,0.0,0.0,-3.027,-3.4673,-4.5594,-5.0494,-4.5269,0.0,0.0,-4.5295,-5.13,-5.4628,-4.9044,-5.0153,-4.8232,-4.0245,-4.1629,-4.3075,-4.1031,-4.0368,-4.0312,-3.9553,-3.4459,-2.8037,-2.1386,-1.8045,-1.4731,-0.8335,-0.299,0.0901,0.3951,0.891,1.3006,1.7033,1.812,2.0444,2.4561,2.5509,2.5509,2.5197,2.5496,2.5496,3.0208,2.6897,2.4477,2.1064,1.7531,1.6788,1.6103,1.5361,1.5361,1.5453,1.5572,1.511,1.4913,1.4899,1.4741,0.0,0.0,0.0,1.7124,1.8155,1.8282,1.7118,1.4343,1.0397,0.7063,0.4446,0.1314,-0.0,-0.0,-0.0,-0.0,-0.0,0.0,-0.0,-0.0,-0.0,-0.1498,-0.4434,-1.4061,-1.892,-1.8737,-2.1534,-2.2711,-2.288,-2.3219,-2.3969,-2.4267,-1.4856,-0.8978,-0.7619,-0.8339,-0.4653,0.0,0.0,0.0,0.0,0.0,0.0,0.0,0.0,0.0,0.0,0.0,0.751,2.0707,0.0,0.0,0.0,-0.6741,0.1945,0.5311,-1.535,0.0,0.0,0.0,0.0,0.0,0.0,0.0,-2.9528,-4.1889,-4.519,-3.1273,-4.0273,-4.5113,-3.6287,-3.8095,-3.7377,-2.9682,0.0,-3.509,-3.3505,-3.4035,-3.4033,-3.2467,-2.866,-2.5007,-2.2024,-1.5672,-0.9253,-0.5936,-0.0583,0.3884,0.6025,1.1296,1.6689,1.8246,2.0913,2.3288,2.4872,2.5184,2.5197,2.5184,2.7023,2.7939,2.5556,0.0,0.0,0.0,0.0,1.6073,1.5293,1.4469,1.4154,1.41,1.4112,1.3442,0.0,0.0,0.0,0.0,0.0,0.0,1.5114,1.5586,1.2946,1.0472,0.7446,0.2443,-0.0,-0.0,-0.0,0.0489,0.1233,0.2202,0.2445,0.2537,0.0,0.0,0.0,0.0,-0.619,-1.0826,-1.8956,-2.3338,-2.3074,-2.2916,-2.285,-2.2606,-2.3333,-2.1695,-1.7384,-0.668,-0.3156,-0.8255,-0.0654,0.0,0.0,0.0,0.0,0.0,0.0,0.0,0.0,0.0,0.0,0.0,0.0,0.0,0.0,0.0,0.0,0.0,0.0,0.0,2.3691,-0.7105,-2.1372,0.0,0.0,0.0,0.0,0.0,0.0,0.0,0.0,0.0,-2.3045,-3.2735,-3.7553,0.0,0.0,-3.169,-2.4661,-2.6031,-2.7102,-2.5442,-2.4845,0.0,-2.0116,-1.8967,-1.8973,-2.0566,-1.2752,-0.5402,-0.3512,0.221,0.7045,0.788,1.4275,1.8948,1.8694,2.125,2.34,2.3753,2.434,2.4941,2.4998,2.6432,2.7531,0.0,0.0,0.0,0.0,1.8727,0.0,0.0,0.0,1.5662,1.4995,0.0,1.2384,0.0,0.0,0.0,0.0,1.2341,1.2764,0.0,0.0,0.467,0.0469,0.0438,-0.0,-0.0,-0.0,-0.0,0.1592,0.4163,0.709,0.8542,0.0,0.0,0.0,0.0,0.0,-1.5384,-1.8957,-2.1785,-2.3088,-2.2995,-2.2468,-2.2336,-2.2666,-2.2982,-1.6312,-0.1968,-0.156,-0.145,-0.0226,0.8495,0.0,0.0,0.0,0.0,0.0,0.0,0.0,0.0,0.0,0.0,0.0,0.0,0.0,0.0,0.0,0.0,0.0,0.0,0.0,0.0,-0.6922,0.0,0.0,0.0,0.0,0.0,0.0,0.0,0.0,0.0,-2.9499,-2.4171,-3.0587,-3.3388,-2.8191,0.0,0.0,0.0,0.0,-2.013,-1.6273,-1.1398,-0.6748,-0.195,-0.6193,-1.0864,-1.2481,0.0,0.0,0.2131,0.656,1.0144,1.2284,1.7485,2.1057,1.8348,1.9544,2.0643,2.0629,2.2664,2.4152,2.457,2.4164,2.3457,0.0,0.0,0.0,0.0,0.0,0.0,0.0,0.0,0.0,1.1353,1.0297,0.9417,0.9019,0.0,0.0,0.0,0.0,0.0,0.0,0.0,0.4165,0.1837,-0.0,-0.0,0.0969,0.2869,0.469,0.6202,0.0,0.0,0.0,0.0,0.0,0.0,0.0,0.0,-1.5992,-1.8808,-2.1504,-2.2837,-2.2969,-2.2626,-2.2216,-2.2066,-1.7582,-1.0224,-0.0253,-0.0457,0.3083,0.0,0.0,0.0,0.0,0.0,0.0,0.0,0.0,0.0,0.0,0.0,0.0,0.0,0.0,0.0,0.0,0.0,0.0,0.0,0.0,0.0,0.0,0.0,0.4359,0.0,0.0,0.0,0.0,0.0,0.0,0.0,0.0,0.0,-0.6848,-1.9247,-2.9679,-3.1674,-3.0447,-2.7872,-2.3887,0.0,0.0,0.0,0.0,0.0,0.0,0.0,-0.378,-0.4284,0.0411,0.5274,0.9028,1.1365,1.2975,1.3864,0.0,0.0,1.9219,2.0493,2.194,2.2949,2.4472,2.5487,2.612,2.8681,2.9936,0.0,0.0,0.0,0.0,0.0,0.0,0.0,0.0,0.0,0.9474,0.8309,0.0,0.0,0.0,0.0,0.0,0.0,0.0,0.0,0.0,0.0,0.0,0.1323,0.2349,0.0,0.0,0.0,0.0,0.0,0.0,0.0,0.0,0.0,0.0,0.0,0.0,-1.6357,-1.9254,-2.1213,-2.297,-2.4346,-2.2983,-2.2086,-2.195,-1.4806,-0.7278,-0.0238,0.0,0.0,0.0,2.6198,0.0,0.0,0.0,0.0,0.0,0.0,0.0,0.0,0.0,0.0,0.0,0.0,0.0,0.0,0.0,0.0,0.0,0.0,0.0,0.0,0.0,0.9272,0.0,0.0,0.0,0.0,0.0,0.0,0.0,0.0,0.0,0.0,-0.8504,-2.1414,-2.8009,-2.5391,-2.2269,-2.1326,-1.6492,-1.265,0.0,0.0,0.0,0.0,0.0,0.0,0.0,0.0,0.0,0.0,0.0,0.0,0.0,1.6148,1.7061,1.8004,1.9593,2.1214,2.2769,0.0,0.0,0.0,0.0,0.0,0.0,0.0,0.0,0.0,0.0,0.0,0.0,0.0,0.0,0.0,0.9284,0.0,0.0,0.7318,0.0,0.0,0.0,0.0,0.0,0.0,0.0,0.0,0.0,0.0,0.0,0.0,0.0,0.0,0.0,0.0,0.0,0.0,0.0,0.0,0.0,0.0,-1.6951,-2.1535,-2.1863,-2.3695,-2.6954,-2.3709,-2.1888,-2.1706,-1.4988,-0.7513,0.0474,0.0,0.0,0.0,0.0,0.0,0.0,0.0,0.0,0.0,0.0,0.0,0.0,0.0,0.0,0.0,0.0,0.0,0.0,0.0,0.0,0.0,0.0,0.0,0.0,0.0,0.0,0.6053,0.7342,0.8354,0.0,0.0,0.0,0.0,0.0,0.0,0.0,0.0,0.0,-1.6758,-1.8206,-1.9205,-2.0978,-1.327,-0.684,-0.5447,0.4719,0.9498,0.1966,0.787,1.2404,0.0,0.0,0.0,0.0,0.0,0.0,0.0,0.0,0.0,0.0,0.0,0.0,0.0,0.0,0.0,0.0,0.0,0.0,0.0,0.0,0.0,0.0,0.0,0.0,0.0,0.0,0.0,0.0,0.7085,0.6526,0.0,0.0,0.0,0.0,0.0,0.0,0.0,0.0,0.0,0.0,0.0,0.0,0.0,0.0,0.0,0.0,0.0,0.0,0.0,0.0,0.0,0.0,0.0,0.0,-1.9055,-2.1319,-2.5566,-2.7551,-2.685,-2.5749,-2.3954,-2.1656,-1.4532,-0.2809,1.377,0.0,0.0,0.0,0.0,0.0,0.0,0.0,0.0,0.0,0.0,0.0,0.0,0.0,0.0,0.0,0.0,0.0,0.0,0.0,0.0,0.0,0.0,0.0,0.0,0.0,0.0,0.0,0.9522,0.9321,0.7381,0.0,0.0,0.0,0.0,0.0,0.0,0.0,0.0,0.0,0.0,-1.4919,-1.5264,-1.0612,-0.6774,-0.636,0.2463,0.9694,1.0788,1.2234,1.4513,1.8416,0.0,0.0,0.0,0.0,0.0,0.0,0.0,0.0,0.0,0.0,0.0,0.0,0.0,0.0,0.0,0.0,0.0,0.0,0.0,0.0,0.0,0.0,0.0,0.0,0.0,0.7169,0.657,0.5646,0.5564,0.0,0.0,0.0,0.0,0.0,0.0,0.0,0.0,0.0,0.0,0.0,0.0,0.0,0.0,0.0,0.0,0.0,0.0,0.0,0.0,0.0,0.0,0.0,0.0,-2.034,-2.2396,-2.6287,-2.8261,-2.8089,-2.571,-2.3222,-2.1408,-1.4287,-0.1984,0.0,0.0,0.0,0.0,0.0,0.0,0.0,0.0,0.0,0.0,0.0,0.0,0.0,0.0,0.0,0.0,0.0,0.0,0.0,0.0,0.0,0.0,0.0,0.0,0.0,0.0,0.0,0.0,0.8111,0.8256,0.6506,0.0,0.0,0.0,0.0,0.0,0.0,0.0,0.0,0.0,0.0,-1.0644,-1.1697,-0.9126,0.0,0.0,0.2203,1.0812,1.4613,1.5376,1.719,2.2348,2.0457,0.0,0.0,0.0,0.0,0.0,0.0,0.0,0.0,0.0,0.0,0.0,0.0,0.0,0.0,0.0,0.0,0.0,0.0,0.0,0.0,0.0,0.0,0.0,0.0,0.0,0.0,0.4805,0.4805,0.0,0.0,0.0,0.0,0.0,0.0,0.0,0.0,0.0,0.0,0.0,0.0,0.0,0.0,0.0,0.0,0.0,0.0,0.0,0.0,0.0,0.0,0.0,0.0,-2.1091,-2.4709,-2.5794,-2.7938,-3.039,-2.5149,-2.1753,-2.078,-1.4086,-0.364,0.0,0.0,0.0,0.0,0.0,0.0,0.0,0.0,0.0,0.0,0.0,0.0,0.0,0.0,0.0,0.0,0.0,0.0,0.0,0.0,0.0,0.0,0.0,0.0,0.0,0.0,0.0,0.0,0.0,0.0,0.0,0.0,0.0,0.0,0.0,0.0,0.0,0.0,0.0,0.0,0.0,-0.6389,-0.9871,-0.8251,-0.6876,0.0,0.3991,1.2889,1.4553,1.7182,1.9555,2.0838,0.0,0.0,0.0,0.0,0.0,0.0,0.0,0.0,0.0,0.0,0.0,0.0,0.0,0.0,0.0,0.0,0.0,0.0,0.0,0.0,0.0,0.0,0.0,0.0,0.0,0.0,0.0,0.0,0.0,0.0,0.0,0.0,0.0,0.0,0.0,0.0,0.0,0.0,0.0,0.0,0.0,0.0,0.0,0.0,0.0,0.0,0.0,0.0,0.0,0.0,0.0,0.0,0.0,0.0,-2.9012,-3.5111,-3.6757,-3.3477,-3.182,-2.7546,-2.0957,-1.3864,0.0,0.0,0.0,0.0,0.0,0.0,0.0,0.0,0.0,0.0,0.0,0.0,0.0,0.0,0.0,0.0,0.0,0.0,0.0,0.0,0.0,0.0,0.0,0.0,0.0,0.0,0.0,0.19,0.0,0.0,0.0,0.0,0.0,0.0,0.0,0.0,0.0,0.0,0.0,0.0,0.0,0.0,-0.5593,-0.8762,-0.6372,-0.4326,0.0,0.0,1.4308,1.4123,1.6632,1.8271,0.0,0.0,0.0,0.0,0.0,0.0,0.0,0.0,0.0,0.0,0.0,0.0,0.0,0.0,0.0,0.0,0.0,0.0,0.0,0.0,0.0,0.0,0.0,0.0,0.0,0.0,0.0,0.0,0.0,0.0,0.0,0.0,0.0,0.0,0.0,0.0,0.0,0.0,0.0,0.0,0.0,0.0,0.0,0.0,0.0,0.0,0.0,0.0,0.0,0.0,0.0,0.0,0.0,0.0,-2.5498,-3.0106,-3.6579,-3.8577,-3.5928,-3.4126,-3.0318,-2.4156,-1.2149,0.3537,0.0,0.0,0.0,0.0,0.0,0.0,0.0,0.0,0.0,0.0,0.0,0.0,0.0,0.0,0.0,0.0,0.0,0.0,0.0,0.0,0.0,0.0,0.0,0.0,0.0,0.0,0.0,0.0,0.0,0.0,0.0,0.0,0.0,0.0,0.0,0.0,0.0,0.0,0.0,0.0,0.0,0.0,-0.6925,-0.4568,0.0,0.0,0.0,1.3029,1.3633,0.0,0.0,0.0,0.0,0.0,0.0,0.0,0.0,0.0,0.0,0.0,0.0,0.0,0.0,0.0,0.0,0.0,0.0,0.0,0.0,0.0,0.0,0.0,0.0,0.0,0.0,0.0,0.0,0.0,0.0,0.0,0.0,0.0,0.0,0.0,0.0,0.0,0.0,0.0,0.0,0.0,0.0,0.0,0.0,0.0,0.0,0.0,0.0,0.0,0.0,0.0,0.0,0.0,0.0,0.0,0.0,0.0,-2.9942,-3.4789,-3.7569,-3.7994,-3.522,-3.1844,-2.8203,-0.943,0.9701,0.0,0.0,0.0,0.0,0.0,0.0,0.0,0.0,0.0,0.0,0.0,0.0,0.0,0.0,0.0,0.0,0.0,0.0,0.0,0.0,0.0,0.0,0.0,0.0,0.0,0.0,0.0,0.0,0.0,0.0,0.0,0.0,0.0,0.0,0.0,0.0,0.0,0.0,0.0,0.0,0.0,-0.6128,-0.5402,-0.3286,-0.074,0.0,0.0,1.0547,1.2391,1.3316,0.0,0.0,0.0,0.0,0.0,0.0,0.0,0.0,0.0,0.0,0.0,0.0,0.0,0.0,0.0,0.0,0.0,0.0,0.0,0.0,0.0,0.0,0.0,0.0,0.0,0.0,0.0,0.0,0.0,0.0,0.0,0.0,0.0,0.0,0.0,0.0,0.0,0.0,0.0,0.0,0.0,0.0,0.0,0.0,0.0,0.0,0.0,0.0,0.0,0.0,0.0,0.0,0.0,0.0,0.0,0.0,-3.2842,-4.0746,-4.3708,-4.1472,-4.0827,-3.6349,-2.7625,-0.5336,1.5302,0.0,0.0,0.0,0.0,0.0,0.0,0.0,0.0,0.0,0.0,0.0,0.0,0.0,0.0,0.0,0.0,0.0,0.0,0.0,0.0,0.0,0.0,0.0,0.0,0.0,0.0,0.0,0.0,0.0,0.0,0.0,0.0,0.0,0.0,0.0,0.0,0.0,0.0,0.0,0.0,0.0,-0.4266,-0.7523,-0.4369,0.0,0.0,0.0,0.0,0.6646,1.1181,0.0,0.0,0.0,0.0,0.0,0.0,0.0,0.0,0.0,0.0,0.0,0.0,0.0,0.0,0.0,0.0,0.0,0.0,0.0,0.0,0.0,0.0,0.0,0.0,0.0,0.0,0.0,0.0,0.0,0.0,0.0,0.0,0.0,0.0,0.0,0.0,0.0,0.0,0.0,0.0,0.0,0.0,0.0,0.0,0.0,0.0,0.0,0.0,0.0,0.0,0.0,0.0,0.0,0.0,0.0,0.0,-3.4981,-4.0701,-4.431,-4.5674,-4.6674,-4.1009,-2.7397,-0.0211,2.0589,0.0,0.0,0.0,0.0,0.0,0.0,0.0,0.0,0.0,0.0,0.0,0.0,0.0,0.0,0.0,0.0,0.0,0.0,0.0,0.0,0.0,0.0,0.0,0.0,0.0,0.0,0.0,0.0,0.0,0.0,0.0,0.0,0.0,0.0,0.0,0.0,0.0,0.0,0.0,0.0,-0.1741,-0.2272,-0.5249,0.0,0.0,0.0,0.0,0.0,0.0,1.0298,1.4057,0.0,0.0,0.0,0.0,0.0,0.0,0.0,0.0,0.0,0.0,0.0,0.0,0.0,0.0,0.0,0.0,0.0,0.0,0.0,0.0,0.0,0.0,0.0,0.0,0.0,0.0,0.0,0.0,0.0,0.0,0.0,0.0,0.0,0.0,0.0,0.0,0.0,0.0,0.0,0.0,0.0,0.0,0.0,0.0,0.0,0.0,0.0,0.0,0.0,0.0,0.0,0.0,0.0,0.0,0.0,-3.493,-3.8881,-4.3148,-4.77,-5.1358,-4.4839,-2.712,0.0824,2.0405,2.9857,0.0,0.0,0.0,0.0,0.0,0.0,0.0,0.0,0.0,0.0,0.0,0.0,0.0,0.0,0.0,0.0,0.0,0.0,0.0,0.0,0.0,0.0,0.0,0.0,0.0,0.0,0.0,0.0,0.0,0.0,0.0,0.0,0.0,0.0,0.0,0.0,0.0,0.0,0.0,-0.0222,-0.011,0.0,0.0,0.0,0.0,0.0,0.0,0.0,0.0,1.216,0.0,0.0,0.0,0.0,0.0,0.0,0.0,0.0,0.0,0.0,0.0,0.0,0.0,0.0,0.0,0.0,0.0,0.0,0.0,0.0,0.0,0.0,0.0,0.0,0.0,0.0,0.0,0.0,0.0,0.0,0.0,0.0,0.0,0.0,0.0,0.0,0.0,0.0,0.0,0.0,0.0,0.0,0.0,0.0,0.0,0.0,0.0,0.0,0.0,0.0,0.0,0.0,0.0,0.0,0.0,0.0,-3.8386,-4.2976,-4.1828,-5.1197,-4.6441,-2.5886,-1.1311,0.3443,1.8161,0.0,0.0,0.0,0.0,0.0,0.0,0.0,0.0,0.0,0.0,0.0,0.0,0.0,0.0,0.0,0.0,0.0,0.0,0.0,0.0,0.0,0.0,0.0,0.0,0.0,0.0,0.0,0.0,0.0,0.0,0.0,0.0,0.0,0.0,0.0,0.0,0.0,0.0,0.6148,0.4425,0.0,0.0,0.0,0.0,0.0,0.0,0.0,0.0,1.0504,0.0,0.0,0.0,0.0,0.0,0.0,0.0,0.0,0.0,0.0,0.0,0.0,0.0,0.0,0.0,0.0,0.0,0.0,0.0,0.0,0.0,0.0,0.0,0.0,0.0,0.0,0.0,0.0,0.0,0.0,0.0,0.0,0.0,0.0,0.0,0.0,0.0,0.0,0.0,0.0,0.0,0.0,0.0,0.0,0.0,0.0,0.0,0.0,0.0,0.0,0.0,0.0,0.0,0.0,0.0,0.0,0.0,0.0,-4.0282,-4.1546,-4.6456,-4.5622,-3.839,-2.892,-1.131,0.0,0.0,0.0,0.0,0.0,0.0,0.0,0.0,0.0,0.0,0.0,0.0,0.0,0.0,0.0,0.0,0.0,0.0,0.0,0.0,0.0,0.0,0.0,0.0,0.0,0.0,0.0,0.0,0.0,0.0,0.0,0.0,0.0,0.0,0.0,0.0,0.0,0.0,0.0,0.0,0.0,0.0,0.0,0.0,0.0,0.0,0.0,0.0,0.0,0.0,0.0,0.0,0.0,0.0,0.0,0.0,0.0,0.0,0.0,0.0,0.0,0.0,0.0,0.0,0.0,0.0,0.0,0.0,0.0,0.0,0.0,0.0,0.0,0.0,0.0,0.0,0.0,0.0,0.0,0.0,0.0,0.0,0.0,0.0,0.0,0.0,0.0,0.0,0.0,0.0,0.0,0.0,0.0,0.0,0.0,0.0,0.0,0.0,0.0,0.0,0.0,0.0,0.0,0.0,0.0,0.0,0.0,0.0,-3.8326,-4.1599,-4.3591,-4.5232,-4.6207,-3.5669,-1.5686,0.0,0.0,0.0,0.0,0.0,0.0,0.0,0.0,0.0,0.0,0.0,0.0,0.0,0.0,0.0,0.0,0.0,0.0,0.0,0.0,0.0,0.0,0.0,0.0,0.0,0.0,0.0,0.0,0.0,0.0,0.0,0.0,0.0,0.0,0.0,0.0,0.0,0.0,0.0,0.0,0.0,0.0,0.0,0.0,0.0,0.0,0.0,0.0,0.7627,0.0,0.0,0.0,0.0,0.0,0.0,0.0,0.0,0.0,0.0,0.0,0.0,0.0,0.0,0.0,0.0,0.0,0.0,0.0,0.0,0.0,0.0,0.0,0.0,0.0,0.0,0.0,0.0,0.0,0.0,0.0,0.0,0.0,0.0,0.0,0.0,0.0,0.0,0.0,0.0,0.0,0.0,0.0,0.0,0.0,0.0,0.0,0.0,0.0,0.0,0.0,0.0,0.0,0.0,0.0,0.0,0.0,0.0,0.0,-3.9616,-3.7898,-4.7453,-4.6603,-3.3968,-1.4445,0.1349,0.0,0.0,0.0,0.0,0.0,0.0,0.0,0.0,0.0,0.0,0.0,0.0,0.0,0.0,0.0,0.0,0.0,0.0,0.0,0.0,0.0,0.0,0.0,0.0,0.0,0.0,0.0,0.0,0.0,0.0,0.0,0.0,0.0,0.0,0.0,0.0,0.0,0.0,0.0,0.0,0.0,0.0,0.0,0.0,0.0,0.0,0.0,0.0,0.0,0.0,0.0,0.0,0.0,0.0,0.0,0.0,0.0,0.0,0.0,0.0,0.0,0.0,0.0,0.0,0.0,0.0,0.0,0.0,0.0,0.0,0.0,0.0,0.0,0.0,0.0,0.0,0.0,0.0,0.0,0.0,0.0,0.0,0.0,0.0,0.0,0.0,0.0,0.0,0.0,0.0,0.0,0.0,0.0,0.0,0.0,0.0,0.0,0.0,0.0,0.0,0.0,0.0,0.0,0.0,0.0,0.0,0.0,0.0,-3.7386,-4.1864,-4.6186,-3.7272,-1.406,-1.3716,-0.5722,0.0,0.0,0.0,0.0,0.0,0.0,0.0,0.0,0.0,0.0,0.0,0.0,0.0,0.0,0.0,0.0,0.0,0.0,0.0,0.0,0.0,0.0,0.0,0.0,0.0,0.0,0.0,0.0,0.0,0.0,0.0,0.0,0.0,0.0,0.0,0.0,0.0,0.0,0.0,0.0,0.0,0.0,0.0,0.0,0.0,0.0,0.0,0.0,0.0,0.0,0.0,0.0,0.0,0.0,0.0,0.0,0.0,0.0,0.0,0.0,0.0,0.0,0.0,0.0,0.0,0.0,0.0,0.0,0.0,0.0,0.0,0.0,0.0,0.0,0.0,0.0,0.0,0.0,0.0,0.0,0.0,0.0,0.0,0.0,0.0,0.0,0.0,0.0,0.0,0.0,0.0,0.0,0.0,0.0,0.0,0.0,0.0,0.0,0.0,0.0,0.0,0.0,0.0,0.0,0.0,0.0,0.0,0.0,0.0,-4.1635,-4.1591,-3.079,-0.9661,-1.7299,-1.2285,0.0,0.0,0.0,0.0,0.0,0.0,0.0,0.0,0.0,0.0,0.0,0.0,0.0,0.0,0.0,0.0,0.0,0.0,0.0,0.0,0.0,0.0,0.0,0.0,0.0,0.0,0.0,0.0,0.0,0.0,0.0,0.0,0.0,0.0,0.0,0.0,0.0,0.0,0.0,0.0,0.0,0.0,0.0,0.0,0.0,0.0,0.0,0.0,0.0,0.0,0.0,0.0,0.0,0.0,0.0,0.0,0.0,0.0,0.0,0.0,0.0,0.0,0.0,0.0,0.0,0.0,0.0,0.0,0.0,0.0,0.0,0.0,0.0,0.0,0.0,0.0,0.0,0.0,0.0,0.0,0.0,0.0,0.0,0.0,0.0,0.0,0.0,0.0,0.0,0.0,0.0,0.0,0.0,0.0,0.0,0.0,0.0,0.0,0.0,0.0,0.0,0.0,0.0,0.0,0.0,0.0,0.0,0.0,0.0,-3.3556,-3.2811,-3.1571,-2.9885,-2.1657,-1.1531,0.0,0.0,0.0,0.0,0.0,0.0,0.0,0.0,0.0,0.0,0.0,0.0,0.0,0.0,0.0,0.0,0.0,0.0,0.0,0.0,0.0,0.0,0.0,0.0,0.0,0.0,0.0,0.0,0.0,0.0,0.0,0.0,0.0,0.0,0.0,0.0,0.0,0.0,0.0,0.0,0.0,0.0,0.0,0.0,0.0,0.0,0.0,0.0,0.0,0.0,0.0,0.0,0.0,0.0,0.0,0.0,0.0,0.0,0.0,0.0,0.0,0.0,0.0,0.0,0.0,0.0,0.0,0.0,0.0,0.0,0.0,0.0,0.0,0.0,0.0,0.0,0.0,0.0,0.0,0.0,0.0,0.0,0.0,0.0,0.0,0.0,0.0,0.0,0.0,0.0,0.0,0.0,0.0,0.0,0.0,0.0,0.0,0.0,0.0,0.0,0.0,0.0,0.0,0.0,0.0,0.0,0.0,0.0,0.0,-3.1001,-2.9585,-3.1395,-3.7031,-2.4439,-1.2077,-0.064,0.0,0.0,0.0,0.0,0.0,0.0,0.0,0.0,0.0,0.0,0.0,0.0,0.0,0.0,0.0,0.0,0.0,0.0,0.0,0.0,0.0,0.0,0.0,0.0,0.0,0.0,0.0,0.0,0.0,0.0,0.0,0.0,0.0,0.0,0.0,0.0,0.0,0.0,0.0,0.0,0.0,0.0,0.0,0.0,0.0,0.0,0.0,0.0,0.0,0.0,0.0,0.0,0.0,0.0,0.0,0.0,0.0,0.0,0.0,0.0,0.0,0.0,0.0,0.0,0.0,0.0,0.0,0.0,0.0,0.0,0.0,0.0,0.0,0.0,0.0,0.0,0.0,0.0,0.0,0.0,0.0,0.0,0.0,0.0,0.0,0.0,0.0,0.0,0.0,0.0,0.0,0.0,0.0,0.0,0.0,0.0,0.0,0.0,0.0,0.0,0.0,0.0,0.0,0.0,0.0,0.0,0.0,0.0,-3.238,-2.9609,-3.0682,-3.5634,-2.5351,-1.4629,0.0,0.0,0.0,0.0,0.0,0.0,0.0,0.0,0.0,0.0,0.0,0.0,0.0,0.0,0.0,0.0,0.0,0.0,0.0,0.0,0.0,0.0,0.0,0.0,0.0,0.0,0.0,0.0,0.0,0.0,0.0,0.0,0.0,0.0,0.0,0.0,0.0,0.0,0.0,0.0,0.0,0.0,0.0,0.0,0.0,0.0,0.0,0.0,0.0,0.0,0.0,0.0,0.0,0.0,0.0,0.0,0.0,0.0,0.0,0.0,0.0,0.0,0.0,0.0,0.0,0.0,0.0,0.0,0.0,0.0,0.0,0.0,0.0,0.0,0.0,0.0,0.0,0.0,0.0,0.0,0.0,0.0,0.0,0.0,0.0,0.0,0.0,0.0,0.0,0.0,0.0,0.0,0.0,0.0,0.0,0.0,0.0,0.0,0.0,0.0,0.0,0.0,0.0,0.0,0.0,0.0,0.0,0.0,-3.4918,-3.7483,-3.2623,-2.932,-2.7793,-2.4422,-1.9585,0.0,0.0,0.0,0.0,0.0,0.0,0.0,0.0,0.0,0.0,0.0,0.0,0.0,0.0,0.0,0.0,0.0,0.0,0.0,0.0,0.0,0.0,0.0,0.0,0.0,0.0,0.0,0.0,0.0,0.0,0.0,0.0,0.0,0.0,0.0,0.0,0.0,0.0,0.0,0.0,0.0,0.0,0.0,0.0,0.0,0.0,0.0,0.0,0.0,0.0,0.0,0.0,0.0,0.0,0.0,0.0,0.0,0.0,0.0,0.0,0.0,0.0,0.0,0.0,0.0,0.0,0.0,0.0,0.0,0.0,0.0,0.0,0.0,0.0,0.0,0.0,0.0,0.0,0.0,0.0,0.0,0.0,0.0,0.0,0.0,0.0,0.0,0.0,0.0,0.0,0.0,0.0,0.0,0.0,0.0,0.0,0.0,0.0,0.0,0.0,0.0,0.0,0.0,0.0,0.0,0.0,0.0,0.0,0.0,-3.195,-2.9824,-2.8245,-2.7153,-2.535,-2.2312,0.0,0.0,0.0,0.0,0.0,0.0,0.0,0.0,0.0,0.0,0.0,0.0,0.0,0.0,0.0,0.0,0.0,0.0,0.0,0.0,0.0,0.0,0.0,0.0,0.0,0.0,0.0,0.0,0.0,0.0,0.0,0.0,0.0,0.0,0.0,0.0,0.0,0.0,0.0,0.0,0.0,0.0,0.0,0.0,0.0,0.0,0.0,0.0,0.0,0.0,0.0,0.0,0.0,0.0,0.0,0.0,0.0,0.0,0.0,0.0,0.0,0.0,0.0,0.0,0.0,0.0,0.0,0.0,0.0,0.0,0.0,0.0,0.0,0.0,0.0,0.0,0.0,0.0,0.0,0.0,0.0,0.0,0.0,0.0,0.0,0.0,0.0,0.0,0.0,0.0,0.0,0.0,0.0,0.0,0.0,0.0,0.0,0.0,0.0,0.0,0.0,0.0,0.0,0.0,0.0,0.0,0.0,0.0,0.0,-3.0778,-3.0342,-2.9277,-2.7535,-2.6065,-2.4037,0.0,0.0,0.0,0.0,0.0,0.0,0.0,0.0,0.0,0.0,0.0,0.0,0.0,0.0,0.0,0.0,0.0,0.0,0.0,0.0,0.0,0.0,0.0,0.0,0.0,0.0,0.0,0.0,0.0,0.0,0.0,0.0,0.0,0.0,0.0,0.0,0.0,0.0,0.0,0.0,0.0,0.0,0.0,0.0,0.0,0.0,0.0,0.0,0.0,0.0,0.0,0.0,0.0,0.0,0.0,0.0,0.0,0.0,0.0,0.0,0.0,0.0,0.0,0.0,0.0,0.0,0.0,0.0,0.0,0.0,0.0,0.0,0.0,0.0,0.0,0.0,0.0,0.0,0.0,0.0,0.0,0.0,0.0,0.0,0.0,0.0,0.0,0.0,0.0,0.0,0.0,0.0,0.0,0.0,0.0,0.0,0.0,0.0,0.0,0.0,0.0,0.0,0.0,0.0,0.0,0.0,0.0,0.0,0.0,-3.3459,-3.3743,-3.2104,-2.8665,-2.6617,-2.4908,0.0,0.0,0.0,0.0,0.0,0.0,0.0,0.0,0.0,0.0,0.0,0.0,0.0,0.0,0.0,0.0,0.0,0.0,0.0,0.0,0.0,0.0,0.0,0.0,0.0,0.0,0.0,0.0,0.0,0.0,0.0,0.0,0.0,0.0,0.0,0.0,0.0,0.0,0.0,0.0,0.0,0.0,0.0,0.0,0.0,0.0,0.0,0.0,0.0,0.0,0.0,0.0,0.0,0.0,0.0,0.0,0.0,0.0,0.0,0.0,0.0,0.0,0.0,0.0,0.0,0.0,0.0,0.0,0.0,0.0,0.0,0.0,0.0,0.0,0.0,0.0,0.0,0.0,0.0,0.0,0.0,0.0,0.0,0.0,0.0,0.0,0.0,0.0,0.0,0.0,0.0,0.0,0.0,0.0,0.0,0.0,0.0,0.0,0.0,0.0,0.0,0.0,0.0,0.0,0.0,0.0,0.0,0.0,0.0,0.0,-3.3169,-3.3101,-3.1506,-3.0471,-2.8353,-2.4891,0.0,0.0,0.0,0.0,0.0,0.0,0.0,0.0,0.0,0.0,0.0,0.0,0.0,0.0,0.0,0.0,0.0,0.0,0.0,0.0,0.0,0.0,0.0,0.0,0.0,0.0,0.0,0.0,0.0,0.0,0.0,0.0,0.0,0.0,0.0,0.0,0.0,0.0,0.0,0.0,0.0,0.0,0.0,0.0,0.0,0.0,0.0,0.0,0.0,0.0,0.0,0.0,0.0,0.0,0.0,0.0,0.0,0.0,0.0,0.0,0.0,0.0,0.0,0.0,0.0,0.0,0.0,0.0,0.0,0.0,0.0,0.0,0.0,0.0,0.0,0.0,0.0,0.0,0.0,0.0,0.0,0.0,0.0,0.0,0.0,0.0,0.0,0.0,0.0,0.0,0.0,0.0,0.0,0.0,0.0,0.0,0.0,0.0,0.0,0.0,0.0,0.0,0.0,0.0,0.0,0.0,0.0,0.0,0.0,0.0,-3.3752,-3.3352,-3.3027,-3.13,0.0,0.0,0.0,0.0,0.0,0.0,0.0,0.0,0.0,0.0,0.0,0.0,0.0,0.0,0.0,0.0,0.0,0.0,0.0,0.0,0.0,0.0,0.0,0.0,0.0,0.0,0.0,0.0,0.0,0.0,0.0,0.0,0.0,0.0,0.0,0.0,0.0,0.0,0.0,0.0,0.0,0.0,0.0,0.0,0.0,0.0,0.0,0.0,0.0,0.0,0.0,0.0,0.0,0.0,0.0,0.0,0.0,0.0,0.0,0.0,0.0,0.0,0.0,0.0,0.0,0.0,0.0,0.0,0.0,0.0,0.0,0.0,0.0,0.0,0.0,0.0,0.0,0.0,0.0,0.0,0.0,0.0,0.0,0.0,0.0,0.0,0.0,0.0,0.0,0.0,0.0,0.0,0.0,0.0,0.0,0.0,0.0,0.0,0.0,0.0,0.0,0.0,0.0,0.0,0.0,0.0,0.0,0.0,0.0,0.0,0.0,-3.4131,-3.4498,-3.432,0.0,-3.1837,0.0,0.0,0.0,0.0,0.0,0.0,0.0,0.0,0.0,0.0,0.0,0.0,0.0,0.0,0.0,0.0,0.0,0.0,0.0,0.0,0.0,0.0,0.0,0.0,0.0,0.0,0.0,0.0,0.0,0.0,0.0,0.0,0.0,0.0,0.0,0.0,0.0,0.0,0.0,0.0,0.0,0.0,0.0,0.0,0.0,0.0,0.0,0.0,0.0,0.0,0.0,0.0,0.0,0.0,0.0,0.0,0.0,0.0,0.0,0.0,0.0,0.0,0.0,0.0,0.0,0.0,0.0,0.0,0.0,0.0,0.0,0.0,0.0,0.0,0.0,0.0,0.0,0.0,0.0,0.0,0.0,0.0,0.0,0.0,0.0,0.0,0.0,0.0,0.0,0.0,0.0,0.0,0.0,0.0,0.0,0.0,0.0,0.0,0.0,0.0,0.0,0.0,0.0,0.0,0.0,0.0,0.0,0.0,0.0,0.0,0.0,0.0,-3.2782,-3.2004,-3.3019,0.0,0.0,0.0,0.0,0.0,0.0,0.0,0.0,0.0,0.0,0.0,0.0,0.0,0.0,0.0,0.0,0.0,0.0,0.0,0.0,0.0,0.0,0.0,0.0,0.0,0.0,0.0,0.0,0.0,0.0,0.0,0.0,0.0,0.0,0.0,0.0,0.0,0.0,0.0,0.0,0.0,0.0,0.0,0.0,0.0,0.0,0.0,0.0,0.0,0.0,0.0,0.0,0.0,0.0,0.0,0.0,0.0,0.0,0.0,0.0,0.0,0.0,0.0,0.0,0.0,0.0,0.0,0.0,0.0,0.0,0.0,0.0,0.0,0.0,0.0,0.0,0.0,0.0,0.0,0.0,0.0,0.0,0.0,0.0,0.0,0.0,0.0,0.0,0.0,0.0,0.0,0.0,0.0,0.0,0.0,0.0,0.0,0.0,0.0,0.0,0.0,0.0,0.0,0.0,0.0,0.0,0.0,0.0,0.0,0.0,-3.3439,-3.4321,-3.2222,-3.1574,-3.2551,0.0,0.0,0.0,0.0,0.0,0.0,0.0,0.0,0.0,0.0,0.0,0.0,0.0,0.0,0.0,0.0,0.0,0.0,0.0,0.0,0.0,0.0,0.0,0.0,0.0,0.0,0.0,0.0,0.0,0.0,0.0,0.0,0.0,0.0,0.0,0.0,0.0,0.0,0.0,0.0,0.0,0.0,0.0,0.0,0.0,0.0,0.0,0.0,0.0,0.0,0.0,0.0,0.0,0.0,0.0,0.0,0.0,0.0,0.0,0.0,0.0,0.0,0.0,0.0,0.0,0.0,0.0,0.0,0.0,0.0,0.0,0.0,0.0,0.0,0.0,0.0,0.0,0.0,0.0,0.0,0.0,0.0,0.0,0.0,0.0,0.0,0.0,0.0,0.0,0.0,0.0,0.0,0.0,0.0,0.0,0.0,0.0,0.0,0.0,0.0,0.0,0.0,0.0,0.0,0.0,0.0,0.0,0.0,0.0,0.0,-3.3411,0.0,0.0,0.0,-3.1379,0.0,0.0,0.0,0.0,0.0,0.0,0.0,0.0,0.0,0.0,0.0,0.0,0.0,0.0,0.0,0.0,0.0,0.0,0.0,0.0,0.0,0.0,0.0,0.0,0.0,0.0,0.0,0.0,0.0,0.0,0.0,0.0,0.0,0.0,0.0,0.0,0.0,0.0,0.0,0.0,0.0,0.0,0.0,0.0,0.0,0.0,0.0,0.0,0.0,0.0,0.0,0.0,0.0,0.0,0.0,0.0,0.0,0.0,0.0,0.0,0.0,0.0,0.0,0.0,0.0,0.0,0.0,0.0,0.0,0.0,0.0,0.0,0.0,0.0,0.0,0.0,0.0,0.0,0.0,0.0,0.0,0.0,0.0,0.0,0.0,0.0,0.0,0.0,0.0,0.0,0.0,0.0,0.0,0.0,0.0,0.0,0.0,0.0,0.0,0.0,0.0,0.0,0.0,0.0,0.0,0.0,0.0,0.0,0.0,0.0,0.0,0.0,0.0,0.0,0.0,0.0,0.0,0.0,0.0,0.0,0.0,0.0,0.0,0.0,0.0,0.0,0.0,0.0,0.0,0.0,0.0,0.0,0.0,0.0,0.0,0.0,0.0,0.0,0.0,0.0,0.0,0.0,0.0,0.0,0.0,0.0,0.0,0.0,0.0,0.0,0.0,0.0,0.0,0.0,0.0,0.0,0.0,0.0,0.0,0.0,0.0,0.0,0.0,0.0,0.0,0.0,0.0,0.0,0.0,0.0,0.0,0.0,0.0,0.0,0.0,0.0,0.0,0.0,0.0,0.0,0.0,0.0,0.0,0.0,0.0,0.0,0.0,0.0,0.0,0.0,0.0,0.0,0.0,0.0,0.0,0.0,0.0,0.0,0.0,0.0,0.0,0.0,0.0,0.0,0.0,0.0,0.0,0.0,0.0,0.0,0.0,0.0,0.0,0.0,0.0,0.0,0.0,0.0,0.0,0.0,0.0,0.0,0.0,0.0,0.0,0.0,0.0,0.0,0.0,0.0,0.0,0.0,0.0,0.0,0.0,0.0,0.0,0.0,0.0,0.0,0.0,0.0,0.0,0.0,0.0,0.0,0.0,0.0,0.0,0.0,0.0,0.0,0.0,0.0,0.0,0.0,0.0,0.0,0.0,0.0,0.0,0.0,0.0,0.0,0.0,0.0,0.0,0.0,0.0,0.0,0.0,0.0,0.0,0.0,0.0,0.0,0.0,0.0,0.0,0.0,0.0,0.0,0.0,0.0,0.0,0.0,0.0,0.0,0.0,0.0,0.0,0.0,0.0,0.0,0.0,0.0,0.0,0.0,0.0,0.0,0.0,0.0,0.0,0.0,0.0,0.0,0.0,0.0,0.0,0.0,0.0,0.0,0.0,0.0,0.0,0.0,0.0,0.0,0.0,0.0,0.0,0.0,0.0,0.0,0.0,0.0,0.0,0.0,0.0,0.0,0.0,0.0,0.0,0.0,0.0,0.0,0.0,0.0,0.0,0.0,0.0,0.0,0.0,0.0,0.0,0.0,0.0,0.0,0.0,0.0,0.0,0.0,0.0,0.0,0.0,0.0,0.0,0.0,0.0,0.0,0.0,0.0,0.0,0.0,0.0,0.0,0.0,0.0,0.0,0.0,0.0,0.0,0.0,0.0,0.0,0.0,0.0,0.0,0.0,0.0,0.0,0.0,0.0,0.0,0.0,0.0,0.0,0.0,0.0,0.0,0.0,0.0,0.0,0.0,0.0,0.0,0.0,0.0,0.0,0.0,0.0,0.0,0.0,0.0,0.0,0.0,0.0,0.0,0.0,0.0,0.0,0.0,0.0,0.0,0.0,0.0,0.0,0.0,0.0,0.0,0.0,0.0,0.0,0.0,0.0,0.0,0.0,0.0,0.0,0.0,0.0,0.0,0.0,0.0,0.0,0.0,0.0,0.0,0.0,0.0,0.0,0.0,0.0,0.0,0.0,0.0,0.0,0.0,0.0,0.0,0.0,0.0,0.0,0.0,0.0,0.0,0.0,0.0,0.0,0.0,0.0,0.0,0.0,0.0,0.0,0.0,0.0,0.0,0.0,0.0,0.0,0.0,0.0,0.0,0.0,0.0,0.0,0.0,0.0,0.0,0.0,0.0,0.0,0.0,0.0,0.0,0.0,0.0,0.0,0.0,0.0,0.0,0.0,0.0,0.0,0.0,0.0,0.0,0.0,0.0,0.0,0.0,0.0,0.0,0.0,0.0,0.0,0.0,0.0,0.0,0.0,0.0,0.0,0.0,0.0,0.0,0.0,0.0,0.0,0.0,0.0,0.0,0.0,0.0,0.0,0.0,0.0,0.0,0.0,0.0,0.0,0.0,0.0,0.0,0.0,0.0,0.0,0.0,0.0,0.0,0.0,0.0,0.0,0.0,0.0,0.0,0.0,0.0,0.0,0.0,0.0,0.0,0.0,0.0,0.0,0.0,0.0,0.0,0.0,0.0,0.0,0.0,0.0,0.0,0.0,0.0,0.0,0.0,0.0,0.0,0.0,0.0,0.0,0.0,0.0,0.0,0.0,0.0,0.0,0.0,0.0,0.0,0.0,0.0,0.0,0.0,0.0,0.0,0.0,0.0,0.0,0.0,0.0,0.0,0.0,0.0,0.0,0.0,0.0,0.0,0.0,0.0,0.0,0.0,0.0,0.0,0.0,0.0,0.0,0.0,0.0,0.0,0.0,0.0,0.0,0.0,0.0,0.0,0.0,0.0,0.0,0.0,0.0,0.0,0.0,0.0,0.0,0.0,0.0,0.0,0.0,0.0,0.0,0.0,0.0,0.0,0.0,0.0,0.0,0.0,0.0,0.0,0.0,0.0,0.0,0.0,0.0,0.0,0.0,0.0,0.0,0.0,0.0,0.0,0.0,0.0,0.0,0.0,0.0,0.0,0.0,0.0,0.0,0.0,0.0,0.0,0.0,0.0,0.0,0.0,0.0,0.0,0.0,0.0,0.0,0.0,0.0,0.0,0.0,0.0,0.0,0.0,0.0,0.0,0.0,0.0,0.0,0.0,0.0,0.0,0.0,0.0,0.0,0.0,0.0,0.0,0.0,0.0,0.0,0.0,0.0,0.0,0.0,0.0,0.0,0.0,0.0,0.0,0.0,0.0,0.0,0.0,0.0,0.0,0.0,0.0,0.0,0.0,0.0,0.0,0.0,0.0,0.0,0.0,0.0,0.0,0.0,0.0,0.0,0.0,0.0,0.0,0.0,0.0,0.0,0.0,0.0,0.0,0.0,0.0,0.0,0.0,0.0,0.0,0.0,0.0,0.0,0.0,0.0,0.0,0.0,0.0,0.0,0.0,0.0,0.0,0.0,0.0,0.0,0.0,0.0,0.0,0.0,0.0,0.0,0.0,0.0,0.0,0.0,0.0,0.0,0.0,0.0,0.0,0.0,0.0,0.0,0.0,0.0,0.0,0.0,0.0,0.0,0.0,0.0,0.0,0.0,0.0,0.0,0.0,0.0,0.0,0.0,0.0,0.0,0.0,0.0,0.0,0.0,0.0,0.0,0.0,0.0,0.0,0.0,0.0,0.0,0.0,0.0,0.0,0.0,0.0,0.0,0.0,0.0,0.0,0.0,0.0,0.0,0.0,0.0,0.0,0.0,0.0,0.0,0.0,0.0,0.0,0.0,0.0,0.0,0.0,0.0,0.0,0.0,0.0,0.0,0.0,0.0,0.0,0.0,0.0,0.0,0.0,0.0,0.0,0.0,0.0,0.0,0.0,0.0,0.0,0.0,0.0,0.0,0.0,0.0,0.0,0.0,0.0,0.0,0.0,0.0,0.0,0.0,0.0,0.0,0.0,0.0,0.0,0.0,0.0,0.0,0.0,0.0,0.0,0.0,0.0,0.0,0.0,0.0,0.0,0.0,0.0,0.0,0.0,0.0,0.0,0.0,0.0,0.0,0.0,0.0,0.0,0.0,0.0,0.0,0.0,0.0,0.0,0.0,0.0,0.0,0.0,0.0,0.0,0.0,0.0,0.0,0.0,0.0,0.0,0.0,0.0,0.0,0.0,0.0,0.0,0.0,0.0,0.0,0.0,0.0,0.0,0.0,0.0,0.0,0.0,0.0,0.0,0.0,0.0,0.0,0.0,0.0,0.0,0.0,0.0,0.0,0.0,0.0,0.0,0.0,0.0,0.0,0.0,0.0,0.0,0.0,0.0,0.0,0.0,0.0,0.0,0.0,0.0,0.0,0.0,0.0,0.0,0.0,0.0,0.0,0.0,0.0,0.0,0.0,0.0,0.0,0.0,0.0,0.0,0.0,0.0,0.0,0.0,0.0,0.0,0.0,0.0,0.0,0.0,0.0,0.0,0.0,0.0,0.0,0.0]}],[{"header":{"parameterUnit":"kt","parameterCategory":2,"dx":1,"dy":1,"la1":29.587661999999998,"la2":31.0,"lo1":-88.76705300000003,"lo2":-86.6583820000003,"nx":115,"ny":88,"refTime":"2022-10-25T00:00:00:Z","depth":0,"parameterNumber":2,"parameterNumberName":"V-component_of_WINDS"},"data":[-12.9873,-12.9873,-12.9873,-12.9873,-12.9873,-12.9873,-12.9873,-12.9873,-13.0295,-13.1922,-13.4452,-13.5431,-13.7415,-14.078,-14.3858,-14.6414,-14.8127,-14.8983,-14.9625,-15.0267,-15.0339,-15.0339,-15.0827,-15.2148,-15.279,-15.3767,-15.4812,-15.529,-15.5369,-15.5665,-15.627,-15.717,-15.7233,-15.7631,-15.7631,-15.7631,-15.7631,-15.7631,-15.7631,-15.7631,-15.7631,-15.7631,-15.7631,-15.7631,-15.7631,-15.7856,-15.808,-15.8155,-15.8603,-15.9182,-15.9683,-15.9911,-15.9987,-15.9987,-15.9911,-15.9618,-15.9283,-15.8841,-15.8828,-15.8903,-16.0099,-16.2268,-16.3688,-16.4885,-16.5745,-16.6371,-16.562,-16.4893,-16.3747,-16.2073,-16.1098,-16.0532,-16.0009,-15.9884,-15.9757,-15.9757,-15.9757,-15.9431,-15.8709,-15.7281,-15.5682,-15.3031,-15.0162,-14.8874,-14.8196,-14.7879,-14.7167,-14.6101,-14.6101,-14.5657,-14.5084,-14.2937,-14.0916,-13.8217,-13.4596,-13.1596,-13.0536,-12.9344,-12.68,-12.0297,-11.2946,-10.3723,-9.7682,-9.4073,-8.7327,-7.9815,-7.6122,-7.4794,-7.0986,-6.7979,-6.5598,-6.3055,-5.9508,-5.6852,-5.5077,-12.9873,-12.9873,-12.9873,-12.9873,-12.9873,-12.9873,-12.9873,-13.0133,-13.1524,-13.2465,-13.3146,-13.4735,-13.7485,-14.0218,-14.2864,-14.5397,-14.7271,-14.8316,-14.934,-14.9911,-15.0267,-15.0339,-15.0783,-15.1432,-15.2115,-15.2889,-15.349,-15.3767,-15.4216,-15.5033,-15.5586,-15.6121,-15.6757,-15.757,-15.7631,-15.7631,-15.7434,-15.7371,-15.7631,-15.7631,-15.7631,-15.7631,-15.7631,-15.7631,-15.7631,-15.7706,-15.7856,-15.808,-15.8454,-15.8949,-15.9456,-15.9683,-15.9835,-15.9911,-15.9829,-15.9786,-15.9414,-15.9131,-15.8903,-15.9276,-16.0697,-16.2342,-16.3913,-16.5269,-16.6409,-16.6517,-16.5698,-16.4977,-16.419,-16.3042,-16.2073,-16.1442,-16.0724,-16.0259,-16.0009,-15.9757,-15.9757,-15.9559,-15.8372,-15.7,-15.5093,-15.2971,-15.0528,-14.8408,-14.7786,-14.7418,-14.6543,-14.5467,-14.4634,-14.4827,-14.2738,-14.0026,-13.7913,-13.4905,-13.1831,-13.0357,-13.024,-12.8449,-12.5418,-11.8781,-11.1471,-10.3094,-9.6516,-9.2573,-8.6854,-7.9892,-7.5655,-7.1657,-6.8318,-6.5286,-6.3167,-6.0421,-5.6727,-5.4026,-5.2561,-12.9873,-12.9873,-12.9873,-12.9873,-12.9873,-12.9873,-12.9873,-13.0036,-13.0711,-13.112,-13.1524,-13.5084,-13.7194,-13.7681,-14.1657,-14.4702,-14.6343,-14.7459,-14.8887,-14.9839,-15.0339,-15.0339,-15.0386,-15.0783,-15.1432,-15.1903,-15.2252,-15.2488,-15.3085,-15.4079,-15.4782,-15.4968,-15.575,-15.6192,-15.5598,-15.6266,-15.6478,-15.6615,-15.7371,-15.757,-15.7631,-15.7631,-15.7631,-15.7631,-15.7631,-15.7631,-15.7706,-15.7856,-15.8155,-15.853,-15.8827,-15.9132,-15.9605,-15.9711,-15.9765,-15.9756,-15.9651,-15.9337,-15.9176,-15.9426,-16.0174,-16.1894,-16.3614,-16.5333,-16.655,-16.652,-16.5772,-16.5381,-16.4548,-16.3969,-16.312,-16.2073,-16.1286,-16.0576,-16.0152,-15.9955,-15.9757,-15.9302,-15.7898,-15.6433,-15.448,-15.2478,-15.0707,-14.8741,-14.8116,-14.7747,-14.7167,-14.6101,-14.5276,-14.5084,-13.9964,-13.6175,-13.3838,-13.1302,-13.0235,-13.0119,-12.959,-12.6778,-12.3976,-11.8674,-11.3372,-10.4014,-9.5646,-9.102,-8.5621,-7.9565,-7.3962,-6.9271,-6.5969,-6.3167,-6.0474,-5.8399,-5.4383,-5.0821,-4.7439,-12.9873,-12.9873,-12.9873,-12.9873,-12.9873,-12.9873,-12.9873,-12.9873,-12.9873,-12.9873,-13.087,-13.4735,-13.6785,-13.6727,-14.0639,-14.3774,-14.5487,-14.6887,-14.8484,-14.9768,-15.0267,-15.0339,-15.0267,-15.0505,-15.0827,-15.1169,-15.1055,-15.0942,-15.1796,-15.279,-15.3583,-15.3676,-15.4645,-15.505,-15.439,-15.4812,-15.5598,-15.6047,-15.6621,-15.6965,-15.7105,-15.7233,-15.7631,-15.7631,-15.7631,-15.7631,-15.7631,-15.7706,-15.7856,-15.808,-15.8155,-15.8529,-15.9263,-15.9397,-15.9581,-15.973,-15.967,-15.9547,-15.9504,-15.9786,-16.0983,-16.2417,-16.3763,-16.5259,-16.611,-16.6148,-16.6074,-16.5694,-16.5307,-16.4765,-16.4017,-16.2896,-16.1963,-16.1297,-16.0563,-16.0224,-15.9757,-15.8709,-15.7417,-15.5778,-15.4013,-15.2368,-15.0804,-14.9541,-14.8813,-14.7945,-14.7113,-14.5722,-14.444,-14.1669,-13.6395,-13.4681,-13.1712,-13.0415,-13.0177,-12.9822,-12.8592,-12.6208,-12.2669,-11.9096,-11.4991,-10.6417,-9.777,-9.1601,-8.4853,-7.8901,-7.3387,-6.8253,-6.4345,-6.1175,-5.8728,-5.7534,-5.3904,-4.8743,-4.3597,-12.9873,-12.9873,-12.9873,-12.9873,-12.9873,-12.9873,-12.9873,-12.9873,-12.9873,-12.9873,-13.0617,-13.409,-13.5775,-13.6316,-13.955,-14.2876,-14.4773,-14.5959,-14.7485,-15.0196,-15.0196,-15.0339,-15.0339,-15.0267,-15.0505,-15.0386,-15.0386,-15.0505,-15.0827,-15.1796,-15.2662,-15.2356,-15.349,-15.3767,-15.349,-15.3859,-15.439,-15.4968,-15.5443,-15.5973,-15.612,-15.6899,-15.7631,-15.7496,-15.7496,-15.7557,-15.7557,-15.7706,-15.7781,-15.808,-15.823,-15.8304,-15.8753,-15.9113,-15.9337,-15.9417,-15.9667,-15.9619,-15.9678,-16.0098,-16.1762,-16.3302,-16.4723,-16.6016,-16.7065,-16.7437,-16.7095,-16.6737,-16.6,-16.5393,-16.4414,-16.3438,-16.24,-16.1585,-16.0616,-16.0026,-15.9757,-15.9302,-15.7898,-15.6076,-15.4118,-15.1209,-14.9668,-14.8807,-14.7813,-14.6551,-14.5276,-14.2738,-14.0647,-13.7483,-13.4966,-13.4065,-13.1712,-13.0177,-12.9938,-12.9112,-12.7825,-12.4931,-12.1712,-11.7996,-11.3483,-10.7135,-9.9916,-9.2656,-8.5364,-7.9148,-7.3201,-6.9105,-6.5146,-6.0956,-5.8476,-5.6944,-5.3011,-4.7845,-4.2286,-12.9873,-12.9873,-12.9873,-12.9873,-12.9873,-12.9873,-12.9873,-12.9873,-12.9873,-12.9873,-13.0295,-13.38,-13.5501,-13.5978,-13.9268,-14.2205,-14.4345,-14.5201,-14.6771,-14.9054,-14.9839,-15.0125,-15.0339,-15.0339,-15.0339,-15.0339,-15.0339,-15.0267,-15.0667,-15.1432,-15.1651,-15.1321,-15.2252,-15.2356,-15.2252,-15.259,-15.3182,-15.3469,-15.3859,-15.4476,-15.4968,-15.5521,-15.5957,-15.6145,-15.6466,-15.6433,-15.6462,-15.7407,-15.7631,-15.7856,-15.7856,-15.8005,-15.808,-15.8454,-15.8753,-15.9349,-15.9562,-15.9622,-15.9825,-16.0344,-16.1896,-16.335,-16.4268,-16.6023,-16.7303,-16.8308,-16.7854,-16.7372,-16.6663,-16.5926,-16.4882,-16.3777,-16.2689,-16.1682,-16.0791,-15.9884,-15.9757,-15.9757,-15.8301,-15.6436,-15.3773,-15.0703,-14.872,-14.7771,-14.673,-14.5276,-14.3397,-14.0853,-13.7913,-13.4741,-13.3214,-13.2814,-13.1302,-12.9822,-12.9161,-12.8207,-12.5418,-12.2096,-11.9363,-11.5854,-11.1753,-10.6156,-10.0632,-9.3507,-8.5991,-7.9324,-7.3024,-6.944,-6.5747,-6.1743,-5.8779,-5.5174,-5.0652,-4.5331,-3.996,-12.9873,-12.9873,-12.9873,-12.9873,-12.9873,-12.9873,-12.9873,-12.9873,-12.9873,-12.9873,-13.0199,-13.38,-13.5501,-13.5911,-13.9317,-14.1977,-14.3774,-14.5201,-14.6771,-14.8341,-14.9911,-15.0196,-15.0339,-15.0339,-15.0339,-15.0339,-15.0339,-15.0267,-15.0505,-15.0942,-15.0942,-15.0505,-15.1209,-15.1055,-15.1055,-15.1169,-15.1542,-15.1796,-15.2356,-15.3182,-15.3859,-15.4303,-15.4671,-15.505,-15.5181,-15.5222,-15.5482,-15.6349,-15.689,-15.717,-15.7371,-15.7631,-15.7631,-15.793,-15.8304,-15.8963,-15.9349,-15.9509,-15.992,-16.0564,-16.2162,-16.4093,-16.5007,-16.6465,-16.7743,-16.8538,-16.809,-16.7387,-16.6594,-16.6,-16.5051,-16.3608,-16.2145,-16.1369,-16.0648,-16.0009,-15.9757,-15.9559,-15.8638,-15.6578,-15.426,-15.1332,-14.8068,-14.7167,-14.6101,-14.3986,-14.1669,-13.9189,-13.6236,-13.2984,-13.1302,-13.1067,-13.0119,-12.912,-12.8459,-12.6932,-12.299,-11.9479,-11.6982,-11.3831,-10.972,-10.5215,-10.0608,-9.4799,-8.8218,-8.1109,-7.359,-6.9547,-6.6076,-6.2338,-5.672,-5.2379,-4.7771,-4.2503,-3.7109,-12.9873,-12.9873,-12.9873,-12.9873,-12.9873,-12.9873,-12.9873,-12.9873,-12.9873,-12.9873,-13.0133,-13.3946,-13.5638,-13.6316,-13.9317,-14.2234,-14.4488,-14.5344,-14.7199,-14.9054,-14.9911,-15.0196,-15.0339,-15.0339,-15.0339,-15.0339,-15.0339,-15.0339,-15.0267,-15.0667,-15.0551,-15.0386,-15.0551,-15.0505,-15.0386,-15.0505,-15.0551,-15.0942,-15.1432,-15.2148,-15.279,-15.3279,-15.3518,-15.3854,-15.3958,-15.4009,-15.4415,-15.5148,-15.5602,-15.6263,-15.6899,-15.7371,-15.7631,-15.7706,-15.793,-15.8304,-15.9038,-15.9274,-15.985,-16.2592,-16.4087,-16.4809,-16.6289,-16.7808,-16.8801,-16.8938,-16.8399,-16.7611,-16.6595,-16.5912,-16.5041,-16.3362,-16.1731,-16.0891,-16.0382,-16.0134,-15.9884,-15.9302,-15.8505,-15.6999,-15.4709,-15.1429,-14.8182,-14.673,-14.5912,-14.3199,-13.9818,-13.705,-13.3838,-13.0652,-13.0415,-13.0235,-12.9648,-12.8592,-12.685,-12.5361,-12.2131,-11.9013,-11.5863,-11.1816,-10.747,-10.3298,-9.9216,-9.4631,-8.941,-8.2203,-7.3101,-6.8268,-6.52,-5.9889,-5.3756,-4.9086,-4.4189,-3.9106,-3.276,-12.9873,-12.9873,-12.9873,-12.9873,-12.9873,-12.9873,-12.9873,-12.9873,-12.9873,-13.0551,-13.1922,-13.4234,-13.6047,-13.7623,-13.9744,-14.1991,-14.2633,-14.4488,-14.6914,-14.7199,-14.9197,-15.0125,-15.0339,-15.0339,-15.0339,-15.0339,-15.0339,-15.0339,-15.0339,-15.0339,-15.0339,-15.0339,-15.0267,-15.0339,-15.0339,-15.0339,-15.0339,-15.0386,-15.0667,-15.1321,-15.1796,-15.1904,-15.2,-15.2647,-15.2877,-15.2811,-15.3151,-15.3861,-15.4894,-15.5674,-15.6192,-15.669,-15.7434,-15.7631,-15.7706,-15.7856,-15.835,-15.8876,-15.9759,-16.2177,-16.416,-16.5226,-16.7808,-16.9023,-16.9228,-16.9189,-16.8827,-16.7916,-16.6707,-16.5682,-16.4355,-16.2905,-16.1515,-16.0433,-16.0009,-15.9884,-15.9757,-15.9757,-15.9101,-15.8033,-15.5866,-15.1633,-14.8134,-14.7155,-14.4889,-14.1403,-13.7913,-13.4517,-13.1302,-13.0652,-13.0235,-13.0235,-12.9764,-12.912,-12.7506,-12.481,-12.1338,-11.8473,-11.4163,-10.9964,-10.5711,-10.2194,-9.8247,-9.4096,-8.7656,-8.045,-7.2295,-6.5375,-6.0777,-5.5727,-4.9597,-4.4756,-4.0715,-3.3607,-2.6263,-12.9873,-12.9873,-12.9873,-12.9873,-12.9873,-12.9873,-12.9873,-12.9873,-12.9873,-13.0551,-13.1922,-13.452,-13.6316,-13.7751,-13.9508,-14.1348,-14.2205,-14.4631,-14.62,-14.6771,-14.9126,-15.0053,-15.0339,-15.0339,-15.0339,-15.0339,-15.0339,-15.0339,-15.0339,-15.0339,-15.0339,-15.0339,-15.0339,-15.0339,-15.0339,-15.0339,-15.0339,-15.0339,-15.0267,-15.0551,-15.1321,-15.0783,-15.0743,-15.1505,-15.1558,-15.1614,-15.1617,-15.2695,-15.3419,-15.3853,-15.4637,-15.4995,-15.5416,-15.6584,-15.6659,-15.6809,-15.7766,-15.835,-15.9358,-16.1705,-16.3863,-16.6062,-16.8264,-16.963,-16.9568,-16.9431,-16.9025,-16.8174,-16.704,-16.5713,-16.4217,-16.2866,-16.1609,-16.0525,-15.9757,-15.9757,-15.9757,-15.9757,-15.9431,-15.8372,-15.6363,-15.2258,-14.9305,-14.8164,-14.3148,-13.8775,-13.6553,-13.3442,-13.0889,-13.0415,-13.0235,-13.0235,-13.0177,-12.9648,-12.7678,-12.3419,-11.98,-11.6835,-11.2859,-10.8768,-10.4966,-10.1169,-9.7275,-9.3133,-8.5944,-7.901,-7.3486,-6.7562,-5.9697,-5.1023,-4.4479,-3.9064,-3.3707,-2.6742,-2.0597,-12.9873,-12.9873,-12.9873,-12.9873,-12.9873,-12.9873,-12.9873,-12.9873,-12.9873,-13.0036,-13.0804,-13.3946,-13.5638,-13.6715,-13.9556,-14.1307,-14.2775,-14.4417,-14.5986,-14.7271,-14.8912,-14.9982,-15.0267,-15.0339,-15.0339,-15.0339,-15.0339,-15.0339,-15.0339,-15.0339,-15.0339,-15.0339,-15.0339,-15.0339,-15.0339,-15.0339,-15.0339,-15.0339,-15.0339,-15.0267,-15.0505,-15.0386,-15.0339,-15.0553,-15.0622,-15.0667,-15.0809,-15.1616,-15.2161,-15.2351,-15.3056,-15.3372,-15.3488,-15.4565,-15.5164,-15.5388,-15.6734,-15.7692,-15.8425,-16.2077,-16.4673,-16.6897,-16.8643,-16.9934,-16.9934,-16.9622,-16.921,-16.8561,-16.7468,-16.6319,-16.4775,-16.3333,-16.2319,-16.1297,-16.0134,-15.9757,-15.9757,-15.9757,-15.9173,-15.8372,-15.5715,-15.3148,-15.0925,-14.7564,-14.1452,-13.7666,-13.5412,-13.3273,-13.0889,-13.0235,-13.0235,-13.0235,-13.0177,-12.9648,-12.8046,-12.3111,-11.8578,-11.5279,-11.198,-10.8191,-10.4548,-10.0811,-9.6452,-9.209,-8.44,-7.5122,-7.173,-6.8579,-5.6953,-4.5694,-3.9369,-3.3833,-2.6522,-2.0371,-1.6447,-12.9873,-12.9873,-12.9873,-12.9873,-12.9873,-12.9873,-12.9873,-12.9873,-12.9873,-13.039,-13.1922,-13.4309,-13.6182,-13.7821,-13.9979,-14.1348,-14.2062,-14.3346,-14.4916,-14.6486,-14.8055,-14.9197,-14.9982,-15.0339,-15.0339,-15.0339,-15.0339,-15.0339,-15.0339,-15.0339,-15.0339,-15.0339,-15.0339,-15.0339,-15.0339,-15.0339,-15.0339,-15.0339,-15.0339,-15.0339,-15.0339,-15.0339,-15.0339,-15.0339,-15.0339,-15.0339,-15.0505,-15.0712,-15.1142,-15.1569,-15.1753,-15.2117,-15.2585,-15.3145,-15.3967,-15.479,-15.5762,-15.6659,-15.8155,-16.0759,-16.3192,-16.6549,-16.8719,-16.9858,-17.0086,-16.9952,-16.9363,-16.879,-16.8238,-16.7265,-16.5357,-16.4019,-16.2823,-16.1772,-16.0772,-15.9757,-15.9757,-15.9757,-15.9101,-15.8104,-15.5552,-15.283,-15.0262,-14.6773,-14.1863,-13.9044,-13.5806,-13.2351,-13.0652,-13.0235,-13.0235,-13.0235,-13.0235,-12.9532,-12.8229,-12.3609,-11.9,-11.5739,-11.225,-10.8239,-10.413,-10.014,-9.6075,-8.9821,-8.1739,-7.201,-6.5147,-5.9165,-5.0044,-3.9898,-3.5815,-3.1456,-2.3962,-1.5538,-1.1661,-12.9873,-12.9873,-12.9873,-12.9873,-12.9873,-12.9873,-12.9873,-12.9873,-12.9873,-13.0551,-13.1613,-13.4166,-13.6182,-13.7623,-13.9437,-14.0992,-14.1206,-14.2561,-14.4131,-14.563,-14.7199,-14.8769,-14.9768,-15.0339,-15.0339,-15.0339,-15.0339,-15.0339,-15.0339,-15.0339,-15.0339,-15.0339,-15.0339,-15.0339,-15.0339,-15.0339,-15.0339,-15.0339,-15.0339,-15.0339,-15.0339,-15.0339,-15.0339,-15.0339,-15.0339,-15.0339,-15.0267,-15.0267,-15.0785,-15.1089,-15.0764,-15.1004,-15.1498,-15.159,-15.2098,-15.2846,-15.4565,-15.5612,-15.7033,-16.0024,-16.2567,-16.5835,-16.8264,-17.0086,-17.0086,-17.0086,-16.963,-16.9048,-16.8604,-16.791,-16.6149,-16.4635,-16.3413,-16.2288,-16.1213,-16.0115,-15.9757,-15.9757,-15.9173,-15.7279,-15.5104,-15.2614,-14.9319,-14.5928,-14.3014,-14.0214,-13.542,-13.1478,-13.0889,-13.0235,-13.0235,-13.0235,-13.0235,-12.9648,-12.6914,-12.3303,-11.9365,-11.5883,-11.2565,-10.8429,-10.4083,-9.9706,-9.3416,-8.6893,-7.9345,-7.003,-6.0903,-5.1621,-4.2009,-3.2713,-2.8299,-2.6456,-1.9488,-1.0812,-0.3492,-12.9873,-12.9873,-12.9873,-12.9873,-12.9873,-12.9873,-12.9873,-12.9873,-12.9873,-12.9873,-13.0551,-13.3213,-13.4876,-13.6316,-13.8885,-14.0582,-14.0992,-14.2419,-14.3988,-14.5558,-14.7128,-14.8555,-14.9839,-15.0339,-15.0339,-15.0339,-15.0339,-15.0339,-15.0339,-15.0339,-15.0339,-15.0339,-15.0339,-15.0339,-15.0339,-15.0339,-15.0339,-15.0339,-15.0339,-15.0339,-15.0339,-15.0339,-15.0339,-15.0339,-15.0339,-15.0267,-15.0386,-15.0551,-15.1001,-15.169,-15.0369,-14.9808,-15.0328,-15.0052,-15.0186,-15.1366,-15.3145,-15.4715,-15.6435,-15.9426,-16.2567,-16.4846,-16.7277,-16.9858,-17.001,-17.0086,-16.963,-16.8896,-16.8656,-16.8015,-16.6961,-16.5455,-16.4134,-16.2884,-16.1707,-16.0653,-15.9884,-15.9884,-15.8709,-15.6648,-15.4579,-15.2216,-14.9206,-14.5666,-14.2497,-14.1411,-13.7248,-13.2984,-13.1946,-13.0652,-13.0652,-13.0235,-13.0235,-12.8379,-12.5513,-12.2116,-11.8239,-11.4849,-11.0758,-10.675,-10.3063,-9.7035,-9.1045,-8.3759,-7.4388,-6.7036,-5.8656,-4.6388,-3.4873,-2.5408,-1.9396,-1.6989,-1.1454,-0.4858,0.2776,-12.9873,-12.9873,-12.9873,-12.9873,-12.9873,-12.9873,-12.9873,-12.9873,-12.9873,-12.9873,-13.0133,-13.0962,-13.3065,-13.5432,-13.7751,-13.9791,-14.092,-14.1348,-14.3132,-14.4916,-14.6272,-14.7841,-14.9554,-15.0339,-15.0339,-15.0339,-15.0339,-15.0339,-15.0339,-15.0339,-15.0339,-15.0339,-15.0339,-15.0339,-15.0339,-15.0339,-15.0339,-15.0339,-15.0339,-15.0339,-15.0267,-15.0267,-15.0267,-15.0267,-15.0386,-15.0667,-15.1542,-15.1688,-15.2062,-15.2194,-15.0649,-14.9664,-14.9881,-14.8899,-14.839,-15.017,-15.1932,-15.3593,-15.5687,-15.8542,-16.1968,-16.4804,-16.7644,-16.9479,-16.9858,-16.963,-16.9202,-16.8801,-16.8551,-16.8066,-16.7245,-16.5958,-16.4779,-16.3461,-16.2181,-16.1054,-16.0063,-15.9757,-15.884,-15.6648,-15.4288,-15.1815,-14.9184,-14.5396,-14.3486,-14.2433,-13.9124,-13.4878,-13.2984,-13.1537,-13.1125,-13.0235,-12.9352,-12.6679,-12.3807,-12.0385,-11.7112,-11.3206,-10.814,-10.3804,-10.0467,-9.5127,-8.733,-7.7886,-6.8247,-6.0242,-5.2427,-4.0036,-2.7953,-2.0833,-1.4535,-1.0043,-0.4846,0.1038,0.7956,-12.9873,-12.9873,-12.9873,-12.9873,-12.9873,-12.9873,-12.9873,-12.9873,-12.9873,-12.9873,-13.0036,-13.0551,-13.2075,-13.452,-13.7108,-13.9127,-14.0695,-14.0992,-14.2704,-14.513,-14.5915,-14.7342,-14.9625,-15.0339,-15.0339,-15.0339,-15.0339,-15.0339,-15.0339,-15.0339,-15.0339,-15.0339,-15.0339,-15.0339,-15.0339,-15.0339,-15.0267,-15.0267,-15.0267,-15.0267,-15.0386,-15.0783,-15.1169,-15.1169,-15.1688,-15.2252,-15.279,-15.2988,-15.3436,-15.3727,-15.1441,-15.0339,-15.0339,-14.875,-14.7295,-14.9331,-15.0735,-15.238,-15.4341,-15.7869,-16.1084,-16.4202,-16.6973,-16.8889,-16.9515,-16.9691,-16.9475,-16.8724,-16.8517,-16.8015,-16.7387,-16.6196,-16.5226,-16.4114,-16.2738,-16.1595,-16.0819,-16.0167,-15.89,-15.6436,-15.3996,-15.2056,-14.9721,-14.761,-14.6805,-14.533,-14.1926,-13.8341,-13.6175,-13.3671,-13.1946,-13.0831,-12.8295,-12.5809,-12.2681,-11.9101,-11.5832,-11.0278,-10.4923,-10.1016,-9.7638,-9.0717,-8.1809,-7.2508,-6.3578,-5.4398,-4.4884,-3.4413,-2.3693,-1.6652,-1.0379,-0.4498,0.1039,0.7268,1.5196,-12.9873,-12.9873,-12.9873,-12.9873,-12.9873,-12.9873,-12.9873,-12.9873,-12.9873,-12.9873,-13.0036,-13.1368,-13.2075,-13.3213,-13.6113,-13.8885,-14.0396,-14.1134,-14.2633,-14.5273,-14.5701,-14.7271,-14.9911,-15.0267,-15.0339,-15.0339,-15.0339,-15.0339,-15.0339,-15.0339,-15.0339,-15.0339,-15.0339,-15.0339,-15.0339,-15.0339,-15.0267,-15.0505,-15.0551,-15.0667,-15.1055,-15.1903,-15.2283,-15.2617,-15.3133,-15.3767,-15.4096,-15.4216,-15.4729,-15.5232,-15.271,-15.158,-15.1844,-14.9423,-14.787,-14.8209,-14.9388,-15.1109,-15.3519,-15.706,-16.0647,-16.3826,-16.6419,-16.8291,-16.9226,-16.9603,-16.9666,-16.889,-16.8688,-16.825,-16.7455,-16.6448,-16.5758,-16.4709,-16.3652,-16.2738,-16.1818,-16.1256,-15.9581,-15.7202,-15.5499,-15.3182,-15.1535,-15.0816,-14.9814,-14.7456,-14.5149,-14.2338,-13.9337,-13.5795,-13.3442,-13.171,-12.9366,-12.6208,-12.2935,-11.8073,-11.3177,-10.7039,-10.2198,-9.7984,-9.2158,-8.4969,-7.6302,-6.8267,-5.9157,-5.0117,-3.7536,-2.7222,-1.9115,-1.0043,-0.0346,0.4844,0.7971,1.5218,2.3159,-12.9873,-12.9873,-12.9873,-12.9873,-12.9873,-12.9873,-12.9873,-12.9873,-12.9873,-12.9873,-12.9873,-13.0295,-13.0551,-13.1435,-13.4309,-13.7877,-14.0808,-14.0992,-14.2704,-14.4987,-14.563,-14.7271,-14.9554,-15.0339,-15.0339,-15.0339,-15.0339,-15.0339,-15.0339,-15.0339,-15.0339,-15.0267,-15.0267,-15.0339,-15.0386,-15.0622,-15.1055,-15.1432,-15.1796,-15.2356,-15.3085,-15.349,-15.3639,-15.3666,-15.3834,-15.4537,-15.5271,-15.5285,-15.6047,-15.5659,-15.3725,-15.1499,-15.1709,-14.8647,-14.6934,-14.7795,-14.9331,-15.1724,-15.4117,-15.7135,-15.9974,-16.3464,-16.5771,-16.7371,-16.8431,-16.9326,-16.9752,-16.9238,-16.874,-16.8114,-16.7876,-16.7313,-16.652,-16.562,-16.4977,-16.4207,-16.3242,-16.1892,-16.0221,-15.8733,-15.7067,-15.5665,-15.4544,-15.3588,-15.1303,-14.8941,-14.6653,-14.4117,-14.1326,-13.7698,-13.5291,-13.3252,-13.0364,-12.7035,-12.2114,-11.7477,-11.1517,-10.503,-9.9483,-9.4644,-8.7488,-8.0144,-7.2147,-6.4552,-5.4976,-4.1919,-2.8469,-1.6981,-1.0735,-0.2768,0.8655,1.5247,1.7302,2.2826,3.0339,-12.9873,-12.9873,-12.9873,-12.9873,-12.9873,-12.9873,-12.9873,-12.9873,-12.9873,-12.9873,-13.0133,-13.0644,-13.0644,-13.1278,-13.4594,-13.8198,-14.0396,-14.0992,-14.2276,-14.4202,-14.5344,-14.6985,-14.884,-14.9982,-15.0196,-15.0339,-15.0339,-15.0339,-15.0339,-15.0339,-15.0339,-15.0386,-15.0942,-15.1185,-15.1312,-15.1648,-15.2386,-15.279,-15.3085,-15.3301,-15.3859,-15.3949,-15.4296,-15.4785,-15.538,-15.5973,-15.656,-15.6621,-15.6965,-15.6699,-15.3897,-15.2543,-15.1335,-14.9408,-14.7122,-14.787,-14.9331,-15.1425,-15.3593,-15.6374,-15.8991,-16.2417,-16.5023,-16.6474,-16.7342,-16.8565,-16.941,-16.9038,-16.8533,-16.8355,-16.8141,-16.7876,-16.7305,-16.6445,-16.5698,-16.5061,-16.4281,-16.2738,-16.1562,-16.0341,-15.859,-15.7248,-15.6722,-15.4823,-15.2716,-15.0365,-14.8096,-14.552,-14.3001,-14.0504,-13.8128,-13.5833,-13.2687,-12.8171,-12.1803,-11.6563,-11.0862,-10.3164,-9.6732,-9.1291,-8.4793,-7.745,-6.9447,-5.9439,-4.6316,-3.3557,-2.0694,-0.9311,-0.3455,0.3114,1.2802,2.1128,2.4921,3.0012,3.6745,-12.9873,-12.9873,-12.9873,-12.9873,-12.9873,-12.9873,-12.9873,-12.9873,-12.9873,-12.9873,-12.997,-13.1368,-13.0962,-13.1524,-13.5569,-13.8323,-13.9437,-14.0766,-14.1848,-14.3418,-14.4987,-14.6486,-14.827,-14.9554,-15.0267,-15.0339,-15.0339,-15.0339,-15.0339,-15.0339,-15.0481,-15.0837,-15.1614,-15.2299,-15.266,-15.3372,-15.3767,-15.4127,-15.4216,-15.4476,-15.4812,-15.4976,-15.5305,-15.606,-15.6786,-15.7297,-15.7509,-15.757,-15.7631,-15.7332,-15.4341,-15.2771,-15.15,-14.9331,-14.7853,-14.8135,-14.9705,-15.1425,-15.307,-15.5702,-15.8168,-16.0323,-16.3003,-16.4847,-16.5759,-16.7205,-16.814,-16.8255,-16.8423,-16.8671,-16.8326,-16.8141,-16.7865,-16.7297,-16.6517,-16.5772,-16.5061,-16.3557,-16.2073,-16.1153,-15.9766,-15.8291,-15.6743,-15.4894,-15.2785,-15.0457,-14.8116,-14.5578,-14.2873,-14.0916,-13.8978,-13.6614,-13.4231,-12.7862,-12.164,-11.6462,-10.902,-10.0608,-9.2857,-8.7408,-8.0252,-7.3985,-6.4021,-5.1415,-3.8311,-2.5107,-1.4074,-0.3092,0.4472,1.2735,1.9322,2.5975,3.1715,3.7774,4.4493,-12.9873,-12.9873,-12.9873,-12.9873,-12.9873,-12.9873,-12.9873,-12.9873,-12.9873,-12.9676,-12.997,-13.0036,-12.9994,-13.0737,-13.4104,-13.5842,-13.7168,-13.9127,-14.1491,-14.3132,-14.4773,-14.6343,-14.777,-14.9197,-15.0125,-15.0267,-15.0339,-15.0386,-15.0386,-15.0339,-15.1005,-15.1786,-15.2226,-15.2915,-15.3542,-15.3949,-15.4561,-15.5443,-15.5595,-15.6047,-15.677,-15.6981,-15.7048,-15.7332,-15.7706,-15.7631,-15.7631,-15.7631,-15.7557,-15.7482,-15.4416,-15.2173,-15.0602,-14.8808,-14.7686,-14.791,-15.0527,-15.2098,-15.3369,-15.5762,-15.8304,-15.98,-16.1282,-16.218,-16.3601,-16.5235,-16.634,-16.6995,-16.7926,-16.8737,-16.87,-16.8401,-16.7929,-16.7437,-16.7288,-16.6517,-16.5541,-16.4281,-16.2635,-16.1673,-15.9694,-15.839,-15.6767,-15.4957,-15.2717,-15.0471,-14.7936,-14.5382,-14.2283,-13.9818,-13.7483,-13.5129,-13.2345,-12.6949,-12.2605,-11.7198,-10.6601,-9.7551,-8.8543,-8.1712,-7.3951,-6.4168,-5.2592,-4.1109,-2.9869,-1.7153,-0.5155,0.5491,1.5087,2.3674,2.9926,3.4075,3.981,4.5867,5.0403,-12.9873,-12.9873,-12.9873,-12.9873,-12.9873,-12.9873,-12.9873,-12.9741,-12.9084,-12.8689,-12.8558,-12.7834,-12.8143,-12.9255,-13.1707,-13.4245,-13.5972,-13.854,-14.0492,-14.2205,-14.4488,-14.5915,-14.6985,-14.8198,-14.9554,-15.0267,-15.0339,-15.0783,-15.1157,-15.1472,-15.1845,-15.3081,-15.3855,-15.434,-15.4859,-15.5602,-15.612,-15.6696,-15.7502,-15.8232,-15.8766,-15.8903,-15.8903,-15.8828,-15.808,-15.7631,-15.7631,-15.7631,-15.7183,-15.5986,-15.3967,-15.1873,-15.0303,-14.8658,-14.8359,-14.9181,-15.1425,-15.2771,-15.4192,-15.6211,-15.8005,-15.8678,-16.0085,-16.0833,-16.1731,-16.3377,-16.4349,-16.4798,-16.6192,-16.806,-16.8585,-16.8431,-16.8066,-16.7577,-16.7352,-16.6803,-16.5541,-16.4371,-16.2942,-16.0837,-15.9185,-15.8332,-15.707,-15.5216,-15.3068,-15.1031,-14.8549,-14.5011,-14.2073,-13.9399,-13.6832,-13.3778,-13.0715,-12.7078,-12.2945,-11.5663,-10.5125,-9.4779,-8.4537,-7.4949,-6.5763,-5.3572,-4.1004,-3.0027,-1.9248,-0.6886,0.4459,1.5087,2.5071,3.224,3.802,4.2471,4.7504,5.2622,5.7085,-12.8952,-12.8952,-12.8952,-12.8952,-12.8952,-12.8987,-12.8921,-12.8755,-12.7703,-12.7242,-12.7139,-12.6532,-12.7084,-12.8227,-13.0831,-13.2688,-13.5322,-13.7283,-13.8708,-14.0349,-14.3204,-14.4559,-14.5415,-14.67,-14.8412,-14.9982,-15.0339,-15.0942,-15.1832,-15.2228,-15.2872,-15.4169,-15.4999,-15.5817,-15.6114,-15.6935,-15.7631,-15.7856,-15.9127,-15.9738,-15.98,-16.0174,-16.0548,-16.0398,-15.9052,-15.8155,-15.7781,-15.7631,-15.6584,-15.4715,-15.292,-15.1126,-14.9705,-14.8359,-14.8284,-14.9555,-15.1275,-15.3145,-15.4565,-15.6211,-15.7631,-15.793,-15.9038,-15.9936,-15.965,-16.1357,-16.218,-16.2567,-16.4248,-16.6121,-16.7245,-16.7904,-16.7767,-16.7502,-16.7352,-16.6647,-16.4651,-16.3192,-16.1717,-16.0,-15.8937,-15.8638,-15.8738,-15.5424,-15.3022,-15.1499,-14.8406,-14.4892,-14.2073,-13.9399,-13.6236,-13.2814,-12.9178,-12.4552,-12.062,-11.5141,-10.3882,-9.2841,-7.8888,-6.6874,-5.5778,-4.414,-3.2395,-2.0322,-0.8614,0.2746,1.4396,2.5059,3.4217,4.0012,4.5513,5.1969,5.7085,5.9598,6.4331,-12.5993,-12.6059,-12.6059,-12.5993,-12.6097,-12.6073,-12.6366,-12.6031,-12.5927,-12.5796,-12.607,-12.7187,-12.7542,-12.8383,-13.1064,-13.3325,-13.404,-13.5763,-13.6602,-13.7923,-13.985,-14.2276,-14.3489,-14.4916,-14.7128,-14.9697,-15.0267,-15.0984,-15.2115,-15.2343,-15.3378,-15.5154,-15.5697,-15.6313,-15.7122,-15.7482,-15.7631,-15.808,-15.9501,-16.0323,-16.0772,-16.1669,-16.2193,-16.1968,-16.0697,-15.9215,-15.823,-15.7332,-15.5986,-15.2995,-15.135,-14.9854,-14.8359,-14.7985,-14.7985,-14.8733,-15.0976,-15.2696,-15.3369,-15.6061,-15.7631,-15.7706,-15.793,-15.793,-15.8379,-15.9426,-16.0473,-16.0697,-16.269,-16.4111,-16.5016,-16.6,-16.648,-16.6754,-16.7053,-16.5236,-16.2129,-16.0024,-15.9315,-15.9063,-15.6514,-15.5994,-15.5832,-15.4754,-15.1896,-14.8337,-14.5155,-14.1208,-13.7857,-13.6005,-13.3553,-13.0655,-12.6336,-12.195,-11.8229,-11.3986,-10.1588,-9.0694,-7.6468,-5.9637,-4.8465,-3.3254,-2.2311,-1.0975,0.1029,1.2704,2.3991,3.3446,4.2641,4.911,5.3677,6.0992,6.7878,6.8747,7.363,-12.5599,-12.5533,-12.5608,-12.5518,-12.5599,-12.5609,-12.5543,-12.5467,-12.4744,-12.4905,-12.5569,-12.5717,-12.6733,-12.8733,-13.0251,-13.1888,-13.3653,-13.4531,-13.5426,-13.6354,-13.7528,-13.9453,-14.1491,-14.249,-14.5059,-14.8484,-14.8912,-15.0567,-15.2671,-15.3155,-15.4599,-15.6284,-15.6809,-15.7108,-15.7631,-15.7631,-15.8005,-15.9127,-16.0548,-16.1968,-16.2866,-16.3614,-16.3913,-16.3614,-16.2342,-16.0697,-15.8903,-15.7108,-15.464,-15.1873,-15.0602,-14.9481,-14.7985,-14.7686,-14.8209,-14.9256,-15.1275,-15.3145,-15.4416,-15.6285,-15.7706,-15.793,-15.7706,-15.7631,-15.7781,-15.8155,-15.8753,-15.9382,-16.1186,-16.2346,-16.3023,-16.4054,-16.4596,-16.4622,-16.4511,-16.3446,-16.0942,-15.9941,-15.9539,-15.8261,-15.6266,-15.4477,-15.4853,-15.1383,-14.7862,-14.4611,-14.1789,-13.776,-13.3544,-13.1886,-12.9805,-12.639,-12.2454,-11.8406,-11.4411,-10.7431,-9.608,-9.0205,-7.6366,-5.4979,-3.9324,-2.0273,-1.1022,-0.2411,1.031,2.2322,3.2711,4.2457,5.1192,5.8107,6.1516,6.7228,7.2593,7.5578,8.3029,-12.4481,-12.4415,-12.4508,-12.442,-12.4415,-12.4481,-12.4415,-12.4283,-12.3694,-12.4072,-12.4768,-12.4962,-12.6623,-12.8418,-12.9265,-13.0922,-13.2752,-13.3357,-13.407,-13.4927,-13.5033,-13.6459,-13.8138,-13.9707,-14.2775,-14.6959,-14.8276,-15.0202,-15.3199,-15.4083,-15.5524,-15.757,-15.7557,-15.7631,-15.7631,-15.7631,-15.8454,-15.9949,-16.1595,-16.324,-16.466,-16.5333,-16.5633,-16.5483,-16.4062,-16.2417,-16.0609,-15.7482,-15.4117,-15.0677,-14.9854,-14.8957,-14.791,-14.7761,-14.8135,-14.9481,-15.1275,-15.3294,-15.479,-15.651,-15.7706,-15.8005,-15.7781,-15.7631,-15.7631,-15.7706,-15.8005,-15.8581,-15.9751,-16.0995,-16.1471,-16.2542,-16.2787,-16.2227,-16.1744,-16.0892,-15.9829,-15.9535,-15.9142,-15.8362,-15.5846,-15.4384,-15.3427,-15.0763,-14.6893,-14.3072,-13.9922,-13.6885,-13.2635,-12.9695,-12.6281,-12.2815,-11.7786,-11.4204,-10.872,-10.0414,-9.3215,-8.677,-6.9017,-4.6729,-3.0723,-1.2025,-0.2758,0.6896,2.0926,3.1366,4.1383,5.1496,6.0006,6.8567,7.2901,7.7809,8.1796,8.515,9.2788,-12.1522,-12.1522,-12.1456,-12.1806,-12.1719,-12.1785,-12.1938,-12.2044,-12.305,-12.3195,-12.334,-12.6555,-12.7986,-12.7673,-12.9992,-13.1363,-13.1716,-13.1859,-13.2144,-13.2215,-13.2287,-13.2501,-13.3714,-13.7067,-14.1206,-14.5502,-14.8119,-15.0145,-15.1749,-15.4009,-15.6337,-15.7284,-15.7557,-15.7631,-15.7631,-15.7631,-15.8379,-16.0024,-16.1669,-16.3314,-16.496,-16.638,-16.7203,-16.7053,-16.5568,-16.3849,-16.1744,-15.8739,-15.5014,-15.0752,-14.8882,-14.806,-14.7761,-14.7686,-14.7761,-14.8135,-15.0901,-15.2472,-15.3444,-15.5911,-15.7706,-15.7781,-15.7781,-15.7631,-15.7706,-15.8066,-15.8275,-15.8778,-15.9294,-15.9759,-16.0367,-16.1222,-16.1636,-16.1221,-15.9936,-15.8828,-15.7882,-15.6999,-15.716,-15.7366,-15.5992,-15.4221,-15.305,-15.1667,-14.7432,-14.2823,-13.8742,-13.4491,-13.0164,-12.5457,-12.2667,-11.7681,-11.18,-10.6784,-9.9849,-9.1616,-8.3052,-7.2908,-5.3071,-3.771,-2.4903,-0.7868,0.4474,1.8465,3.1749,4.1051,5.0572,6.0636,6.9619,7.6908,8.3442,8.9827,9.4035,9.6871,10.231,-12.1324,-12.1324,-12.1324,-12.1324,-12.1324,-12.1324,-12.1949,-12.2995,-12.3578,-12.4762,-12.6227,-12.8298,-12.924,-12.988,-13.0901,-13.1573,-13.1573,-13.1573,-13.1573,-13.1573,-13.1573,-13.1573,-13.2144,-13.5426,-13.9636,-14.3756,-14.5954,-14.7915,-15.0062,-15.2828,-15.4857,-15.6164,-15.7183,-15.7631,-15.7631,-15.7706,-15.8379,-16.0024,-16.1669,-16.3464,-16.5333,-16.6979,-16.7801,-16.7652,-16.653,-16.4148,-16.0996,-15.805,-15.4608,-15.1126,-14.8733,-14.7761,-14.7686,-14.7686,-14.7686,-14.8359,-15.0752,-15.2979,-15.3353,-15.6061,-15.8005,-15.8005,-15.8005,-15.8005,-15.808,-15.8379,-15.8723,-15.9088,-15.9304,-15.9607,-15.9911,-16.0282,-16.013,-15.9763,-15.8801,-15.814,-15.7645,-15.717,-15.6993,-15.5817,-15.4096,-15.1528,-14.9109,-14.6956,-14.3104,-13.8423,-13.4877,-13.107,-12.3216,-11.9119,-11.1977,-10.586,-10.2619,-9.7207,-9.044,-8.1848,-7.3285,-5.4965,-3.5084,-2.1558,-1.2496,0.3397,1.6295,3.0152,4.4296,5.3793,6.4519,7.3398,7.976,8.507,9.1522,9.759,10.2809,10.6444,10.9518,-12.0864,-12.1258,-12.1872,-12.2044,-12.2164,-12.2724,-12.3142,-12.3927,-12.5169,-12.6227,-12.7496,-12.9195,-13.0174,-13.0793,-13.1397,-13.1573,-13.1573,-13.1573,-13.1573,-13.1573,-13.1573,-13.1573,-13.2073,-13.4285,-13.7495,-14.0967,-14.4055,-14.6728,-14.9103,-15.1746,-15.3507,-15.452,-15.5986,-15.6809,-15.6809,-15.7407,-15.8379,-16.0024,-16.1744,-16.3676,-16.5546,-16.7317,-16.8031,-16.7474,-16.6659,-16.4137,-15.9861,-15.6837,-15.3992,-15.1183,-14.9107,-14.806,-14.791,-14.7835,-14.7761,-14.8209,-15.1109,-15.3054,-15.3577,-15.6136,-15.8005,-15.8155,-15.823,-15.8259,-15.8403,-15.8739,-15.9088,-15.9349,-15.9532,-15.9607,-15.9835,-15.9597,-15.9296,-15.8843,-15.853,-15.808,-15.7645,-15.717,-15.6189,-15.4443,-15.1992,-14.8592,-14.4839,-14.2144,-13.8681,-13.4175,-12.8855,-12.321,-11.5316,-11.0305,-10.2809,-9.3172,-9.1082,-8.7255,-7.6981,-6.7188,-5.2882,-3.3457,-1.2076,0.4693,0.9736,1.9922,2.9873,4.2087,5.6197,6.817,7.9295,8.7426,9.2581,9.7813,10.1719,10.6132,11.0684,11.4109,11.6582,-12.0009,-12.1497,-12.3034,-12.3784,-12.3981,-12.528,-12.528,-12.4829,-12.7372,-12.7247,-12.6159,-12.9355,-13.0685,-12.995,-13.1079,-13.1573,-13.1573,-13.1573,-13.1573,-13.1573,-13.1573,-13.1573,-13.1645,-13.3357,-13.5283,-13.7391,-14.3425,-14.7043,-14.8414,-15.102,-15.2502,-15.292,-15.4341,-15.5164,-15.5164,-15.6435,-15.808,-15.9501,-16.1432,-16.3499,-16.5582,-16.7257,-16.76,-16.6364,-16.6016,-16.366,-15.8972,-15.5977,-15.3543,-15.154,-14.9744,-14.8715,-14.8266,-14.7985,-14.791,-14.8583,-15.0959,-15.2546,-15.3294,-15.5837,-15.7706,-15.7916,-15.8184,-15.8451,-15.8818,-15.9152,-15.9456,-15.9532,-15.9683,-15.9911,-15.9911,-15.9577,-15.9137,-15.8778,-15.8215,-15.7807,-15.7308,-15.6478,-15.4517,-15.1917,-15.0023,-14.6528,-14.1377,-13.7962,-13.4894,-12.981,-12.2445,-11.4453,-10.889,-9.9679,-9.0535,-8.1451,-7.5651,-7.0762,-6.1878,-5.0676,-3.0716,-1.1575,1.0401,2.562,2.9566,4.1016,5.1966,5.6159,7.0254,8.143,9.2267,9.9156,10.4561,10.8605,11.2627,11.6696,11.946,12.1971,12.4273,-11.9037,-12.1743,-12.4488,-12.5561,-12.5635,-12.6172,-12.6752,-12.7565,-12.8537,-12.9195,-12.9426,-13.0793,-13.1292,-13.0972,-13.1363,-13.1573,-13.1573,-13.1573,-13.1573,-13.1573,-13.1573,-13.1573,-13.1787,-13.3214,-13.5168,-13.7832,-14.1015,-14.4036,-14.6783,-14.9645,-15.0976,-15.1126,-15.2621,-15.3444,-15.3444,-15.3892,-15.4565,-15.5762,-15.8304,-16.0303,-16.1637,-16.4264,-16.5505,-16.4999,-16.4126,-16.1852,-15.8081,-15.562,-15.3543,-15.1857,-14.9949,-14.8713,-14.8377,-14.8209,-14.806,-14.8209,-15.0361,-15.1632,-15.1649,-15.4699,-15.6644,-15.6629,-15.7978,-15.9103,-15.9218,-15.9522,-15.9759,-15.9759,-15.9911,-15.9987,-15.9835,-15.9044,-15.8507,-15.8337,-15.7271,-15.6412,-15.6192,-15.3961,-15.2138,-15.075,-14.8574,-14.54,-14.1116,-13.4649,-12.9665,-12.6369,-11.5959,-10.6563,-9.926,-8.7919,-7.5237,-6.7024,-5.8813,-5.0668,-3.8555,-1.8146,0.3606,1.4233,3.2185,4.0944,4.8981,6.4461,7.4455,7.611,8.3509,9.4351,10.3084,11.0388,11.4917,11.848,12.1608,12.4114,12.6524,12.9436,13.0111,-11.8038,-12.1225,-12.4217,-12.5518,-12.5692,-12.6277,-12.6834,-12.7325,-12.8033,-12.8657,-12.9053,-13.0223,-13.0717,-13.0717,-13.0146,-12.9861,-12.9932,-13.0503,-13.0717,-13.0788,-13.1288,-13.1573,-13.1749,-13.2947,-13.5158,-13.7904,-13.9818,-14.2701,-14.6442,-14.8424,-14.9331,-14.9555,-15.0901,-15.1724,-15.1873,-15.2397,-15.292,-15.356,-15.6781,-15.8915,-15.9759,-16.2797,-16.4011,-16.2948,-16.2037,-16.0595,-15.8469,-15.5909,-15.4091,-15.3073,-15.0659,-14.8895,-14.7948,-14.7835,-14.7462,-14.6639,-14.8116,-14.9014,-14.9107,-15.2156,-15.4254,-15.4342,-15.628,-15.7481,-15.7785,-15.8013,-15.8469,-15.8848,-15.8924,-15.8165,-15.7405,-15.6392,-15.5677,-15.5178,-15.4114,-15.3197,-15.2746,-15.1117,-14.9522,-14.8793,-14.5479,-14.1142,-13.588,-13.0752,-12.5005,-11.9255,-10.6137,-9.3763,-8.3652,-6.8227,-5.4695,-4.7857,-3.8194,-2.5137,-1.0771,1.6297,3.3382,4.2687,5.2352,6.3771,7.2373,8.7302,9.3429,9.4962,10.1281,11.0428,11.1995,11.9093,12.4551,12.7662,12.8282,13.0539,13.2341,13.4175,13.5306,-11.6454,-11.9673,-12.2647,-12.3899,-12.442,-12.6215,-12.5933,-12.4953,-12.632,-12.6039,-12.5426,-12.7916,-12.9147,-12.8862,-12.7792,-12.7007,-12.7221,-12.8607,-12.9178,-12.929,-13.0574,-13.1392,-13.1638,-13.2614,-13.486,-13.8311,-14.0276,-14.3337,-14.7421,-14.7761,-14.7686,-14.791,-14.9406,-15.0228,-15.0378,-15.1857,-15.2887,-15.3098,-15.6657,-15.9,-15.9532,-16.2721,-16.31,-16.0519,-16.0063,-15.9987,-15.938,-15.657,-15.4672,-15.4672,-15.1433,-14.886,-14.7088,-14.677,-14.5927,-14.4376,-14.475,-14.5349,-14.6265,-14.9089,-15.1193,-15.1795,-15.3685,-15.4672,-15.5355,-15.5431,-15.5963,-15.7178,-15.6646,-15.5128,-15.2918,-15.2095,-15.1149,-15.0211,-14.9439,-14.868,-14.8207,-14.6387,-14.6119,-14.4347,-13.9932,-13.3305,-12.577,-12.4655,-11.4356,-10.4764,-8.9827,-7.3173,-6.0451,-4.3253,-3.0352,-2.3792,-1.4359,0.1276,3.6295,5.2151,6.3261,7.1628,7.9519,9.4466,10.148,10.7108,11.0661,11.4718,11.7645,12.0275,12.2818,12.6846,13.1864,13.4386,13.4861,13.5918,13.7009,13.88,13.957,-11.517,-11.7931,-11.8931,-12.1339,-12.4544,-12.6234,-12.663,-12.6282,-12.6732,-12.6732,-12.6353,-12.716,-12.6935,-12.6079,-12.665,-12.7007,-12.7007,-12.7363,-12.7577,-12.7649,-12.8006,-12.9222,-13.0955,-13.1418,-13.4582,-13.9542,-14.079,-14.3382,-14.733,-14.7686,-14.7686,-14.7835,-14.8434,-14.8808,-14.8957,-14.9613,-15.0219,-15.0803,-15.3913,-15.5887,-15.657,-15.9532,-16.0898,-16.0139,-15.9987,-15.938,-15.8089,-15.5355,-15.3077,-15.1483,-14.9373,-14.7276,-14.5308,-14.4864,-14.4424,-14.396,-14.3927,-14.4451,-14.5778,-14.8132,-15.0087,-15.177,-15.3676,-15.4824,-15.49,-15.4976,-15.5052,-15.4824,-15.2757,-15.1091,-15.0251,-14.8938,-14.7874,-14.7337,-14.5212,-14.3029,-14.1087,-13.8652,-13.5942,-13.4388,-12.918,-12.3987,-10.7308,-8.8756,-7.5727,-6.9969,-5.1992,-3.4892,-2.9932,-1.1915,0.4775,0.6323,1.893,3.6772,5.6904,7.3152,8.3418,9.1628,9.9949,10.839,11.0288,11.8281,12.3802,12.3081,12.4141,12.6453,13.0111,13.1971,13.5651,13.7779,13.9288,14.0306,14.1042,14.2119,14.2662,-11.4607,-11.7315,-11.6731,-11.8547,-12.163,-12.3296,-12.401,-12.4081,-12.4652,-12.4937,-12.4937,-12.5009,-12.4438,-12.3653,-12.4509,-12.4937,-12.5009,-12.5651,-12.6008,-12.6008,-12.7099,-12.8317,-12.986,-13.0633,-13.3793,-13.8848,-14.028,-14.2872,-14.6209,-14.7462,-14.7835,-14.7985,-14.8209,-14.8389,-14.855,-14.8963,-14.9599,-15.0572,-15.3229,-15.4976,-15.6191,-15.8544,-15.9987,-15.9987,-15.9987,-15.9152,-15.7405,-15.4596,-15.209,-15.0116,-14.761,-14.5482,-14.3738,-14.3152,-14.2588,-14.1864,-14.0956,-14.0486,-14.0711,-14.3381,-14.5812,-14.7759,-15.0344,-15.2242,-15.285,-15.2774,-15.1371,-14.8795,-14.5835,-14.4026,-14.3517,-14.2129,-14.0879,-14.0135,-13.789,-13.5538,-13.359,-12.5138,-11.8626,-11.637,-10.7932,-9.6404,-8.4181,-6.4131,-4.7905,-3.6244,-2.0571,-0.6821,-0.1818,1.511,2.769,3.2776,5.2816,7.1254,8.2227,9.2927,10.0973,10.8616,11.5656,12.1276,12.3715,12.9936,13.2671,13.2176,13.3707,13.5827,13.7474,13.8604,13.993,14.0269,14.2076,14.3168,14.3311,14.4297,14.5232,-11.4384,-11.6499,-11.548,-11.582,-11.7517,-11.9158,-12.0014,-12.0371,-12.1513,-12.2012,-12.1727,-12.1655,-12.1727,-12.1869,-12.1394,-12.1252,-12.1441,-12.2705,-12.3301,-12.3898,-12.6286,-12.77,-12.8551,-13.0332,-13.2992,-13.6512,-13.8903,-14.1724,-14.4994,-14.6415,-14.7462,-14.7985,-14.8314,-14.8573,-14.8946,-14.9373,-15.0344,-15.2014,-15.3533,-15.5128,-15.695,-15.8469,-15.938,-15.9456,-15.938,-15.862,-15.6874,-15.3989,-15.1483,-14.9509,-14.6016,-14.3431,-14.2102,-14.1212,-14.0178,-13.8594,-13.679,-13.5146,-13.4153,-13.7293,-14.0701,-14.2143,-14.5712,-14.8142,-14.9433,-14.8597,-14.5379,-14.0217,-13.7365,-13.5644,-13.4117,-13.2958,-13.2063,-13.1088,-12.64,-12.4344,-12.053,-10.6842,-9.4202,-9.2694,-7.5483,-6.1142,-5.495,-4.3075,-2.8289,-0.9236,0.9351,2.2103,2.8501,4.1048,5.0284,5.887,8.0935,10.2706,10.6744,11.1581,11.7369,12.5211,12.8556,13.0628,13.4603,13.7897,13.9778,13.8386,14.1438,14.1776,14.2219,14.3372,14.5078,14.3358,14.3702,14.4828,14.5748,14.6167,14.6661,-11.3113,-11.3806,-11.3462,-11.4174,-11.5876,-11.8587,-12.0442,-12.1584,-12.1869,-12.0728,-11.8658,-11.8444,-11.9158,-11.9895,-11.7041,-11.6092,-11.6292,-11.4622,-11.5373,-11.831,-11.9618,-12.3291,-12.855,-12.9252,-13.24,-13.7094,-13.8007,-14.0133,-14.3124,-14.3797,-14.477,-14.6388,-14.8238,-14.9277,-14.9404,-14.9733,-15.0799,-15.2166,-15.0344,-15.0648,-15.3609,-15.4065,-15.4824,-15.5887,-15.5203,-15.4444,-15.3685,-15.1711,-14.9205,-14.6244,-14.2827,-14.02,-13.8672,-13.6932,-13.5825,-13.5198,-13.457,-13.4622,-13.545,-13.9055,-14.2219,-14.4193,-14.5144,-14.5703,-14.5682,-14.0997,-13.5992,-13.2449,-12.9878,-12.765,-12.5748,-12.4541,-12.3987,-12.2619,-10.9779,-9.9528,-9.5585,-8.0846,-6.4723,-5.0578,-4.6425,-3.2721,-1.1443,-0.3059,0.587,2.6181,4.4836,5.6888,6.2973,7.4005,8.4911,9.3927,10.5437,11.5072,11.7636,12.3231,12.888,13.267,13.3818,13.5702,13.8353,13.998,14.061,14.2781,14.3943,14.3965,14.3768,14.4583,14.4792,14.4754,14.508,14.5887,14.6749,14.7274,14.8023,-11.0596,-11.0596,-11.0596,-11.1095,-11.2094,-11.4449,-11.6732,-11.873,-11.7374,-11.5804,-11.4449,-11.692,-11.8549,-11.9052,-11.7049,-11.6574,-11.7298,-11.5165,-11.5686,-11.824,-11.991,-12.2785,-12.6691,-12.8815,-13.1761,-13.5497,-13.7067,-13.9161,-14.1629,-14.2601,-14.3628,-14.474,-14.6312,-14.7231,-14.7458,-14.7686,-14.8597,-15.0116,-14.5408,-14.4193,-14.6699,-14.3814,-14.2675,-14.351,-14.2979,-14.2143,-14.1004,-13.8726,-13.62,-13.35,-13.0152,-12.9399,-13.1531,-13.1139,-13.1814,-13.4024,-13.4749,-13.5175,-13.5244,-13.7144,-13.9398,-14.197,-14.25,-14.1082,-13.7177,-13.1834,-12.7746,-12.5125,-12.2782,-11.798,-10.9075,-10.691,-10.2763,-9.4886,-8.3624,-7.2957,-6.3709,-4.7409,-2.963,-1.3717,-0.6315,0.5452,2.65,3.1078,3.991,5.6964,7.0954,8.1715,8.7876,9.7862,10.7067,11.3286,11.8487,12.2836,12.5986,13.0625,13.3849,13.6395,13.7125,13.8583,14.0575,14.1729,14.259,14.4085,14.4828,14.4999,14.463,14.5378,14.5954,14.6116,14.6665,14.7349,14.7778,14.8279,14.8549,-10.8098,-10.8098,-10.8098,-10.7813,-10.7528,-10.9097,-11.1024,-11.295,-11.1628,-11.1014,-11.14,-11.6204,-11.8418,-11.8636,-11.8069,-11.8313,-11.9043,-11.7803,-11.8025,-11.9469,-12.178,-12.3176,-12.4051,-12.7915,-13.0637,-13.2431,-13.5647,-13.8114,-13.9759,-14.1683,-14.2792,-14.3134,-14.3709,-14.4421,-14.4953,-14.4953,-14.5029,-14.4953,-13.9334,-13.7663,-14.0169,-13.4778,-13.1513,-13.083,-13.0981,-12.9463,-12.6501,-12.3844,-12.1158,-11.9228,-11.6002,-11.6912,-12.2731,-12.3579,-12.6093,-13.0586,-13.1798,-13.2559,-13.2651,-13.2165,-13.3774,-13.789,-13.8689,-13.4616,-12.5259,-12.0204,-11.6473,-11.3714,-10.838,-10.1058,-8.7063,-8.1396,-7.3229,-5.9709,-5.102,-4.1994,-2.8988,-1.0602,0.7152,2.3228,3.6227,4.436,5.3048,5.9678,6.8004,8.0214,8.8267,9.7512,10.3933,11.28,11.8468,12.1664,12.4954,12.8644,13.1204,13.3531,13.5994,13.8391,13.9667,14.0898,14.2831,14.3865,14.4694,14.4999,14.5951,14.6189,14.5731,14.7068,14.7716,14.7654,14.802,14.8723,14.8841,14.8171,14.7812,-10.8098,-10.8098,-10.8098,-10.66,-10.4388,-10.5886,-10.5458,-10.4042,-11.0603,0.0,0.0,-11.5611,-11.6779,-11.773,-11.4587,-11.362,-11.4182,-11.1439,-11.2128,-11.5515,-11.6674,-11.9306,-12.3189,-12.5428,-12.7272,-12.9066,-13.2656,-13.5123,-13.6746,-13.8766,-14.0594,-14.197,-14.2287,-14.3282,-14.4877,-14.4953,-14.108,-13.3487,-13.1969,-13.4778,-14.1688,-14.0852,-13.8347,-13.4171,-13.3943,-13.045,-12.3312,-12.106,-11.9211,-11.731,-11.4274,-11.3169,-11.4277,-11.3243,-11.2947,-11.379,-11.3046,-11.5914,-12.316,-12.2719,-12.595,-13.5069,-13.4779,-12.7605,-11.1614,-10.0392,-9.2499,-8.8895,-7.3922,-6.3623,-6.0273,-4.9019,-3.9729,-3.6668,-1.1655,0.5417,0.9419,2.4787,4.2937,6.1421,6.2142,6.619,8.3065,8.5179,8.7333,9.2713,9.9296,10.5345,10.985,11.6073,12.0306,12.0904,12.6667,13.17,13.2553,13.5442,13.9908,14.1134,14.179,14.2926,14.4767,14.587,14.6557,14.6934,14.8004,14.8058,14.8131,14.8195,14.8846,14.9002,14.9,14.8997,14.9014,14.6914,14.4965,-10.5744,-10.5815,-10.6529,-10.6029,0.0,-10.7099,-10.4959,-10.0186,-10.4533,-10.8186,-11.1455,-11.4744,-11.6607,-11.7197,-11.5327,-11.4904,-11.5626,-11.3569,-11.3943,-11.6426,-11.7683,-11.9495,-12.1962,-12.5327,-12.7272,-12.8244,-13.1758,-13.3802,-13.4586,-13.6047,-13.5454,-13.3107,-13.3259,-13.2576,-13.1133,-13.1057,-12.8628,-12.3692,-12.7033,-13.1133,-13.5765,-13.2044,-12.8552,-12.597,-12.5818,0.0,0.0,0.0,0.0,0.0,0.0,0.0,0.0,-11.332,-11.1729,-11.3297,-10.961,-10.8695,-11.1619,-11.1869,-11.3872,-11.8581,-11.8437,-11.2763,-10.0252,-8.6936,-7.8421,-7.6558,-6.274,-4.7058,-3.1363,-2.2533,-1.0971,0.5047,2.1605,3.6304,4.5785,5.5074,6.8398,8.6369,8.6067,8.6944,9.9866,9.8629,9.9112,10.5537,10.9461,11.3483,11.851,12.055,12.1127,12.1543,12.7274,13.1668,13.3587,13.7212,13.9596,14.0217,14.1116,14.224,14.3378,14.4243,14.5088,14.5628,14.6054,14.6422,14.6569,14.6481,14.6447,14.6766,14.6623,14.6443,14.6296,14.4935,14.3604,-10.4317,-10.4388,-10.5672,-10.5815,-10.553,-10.9022,-10.6821,-10.1015,-10.124,-10.3774,-10.8399,-11.3821,-11.6161,-11.6161,-11.6161,-11.6772,-11.7655,-11.6945,-11.7368,-11.8747,-12.0018,-12.0841,-12.1439,-12.5552,-12.7646,-12.7795,-13.1285,-13.3029,-13.2996,-13.4089,-13.1817,-12.6501,-12.6729,-12.4148,-11.906,0.0,0.0,0.0,-12.3616,-12.8324,-13.0526,-12.4148,-12.0045,-11.889,-11.8785,0.0,-11.6678,-11.6815,-11.6687,-11.6092,-11.5074,0.0,-11.9767,0.0,0.0,0.0,0.0,0.0,0.0,0.0,0.0,0.0,-9.7819,-9.4627,-9.1377,-7.6246,-6.4095,-5.7943,-4.782,-3.0095,-0.2587,0.375,1.7208,4.3752,5.0887,6.0479,7.7506,7.9187,8.5945,10.4258,10.2592,10.2052,10.7055,10.6232,10.7351,11.4313,11.785,12.1324,12.7093,12.3886,12.2158,12.4477,12.641,12.9737,13.4809,13.6459,13.7533,13.8075,13.9368,14.0337,14.115,14.2268,14.2929,14.3644,14.3815,14.4303,14.442,14.4185,14.4261,14.4278,14.4171,14.3663,14.3043,14.2842,14.2701,-10.7456,-10.7456,-10.767,-10.6172,-10.4053,-10.863,-10.9991,-10.9109,-10.9938,-11.066,-11.1439,-11.3049,-11.3753,-11.3753,-11.3753,-11.4545,-11.598,-11.589,-11.7459,-12.0317,-12.0616,-12.1439,-12.2785,-12.4954,-12.5851,-12.6075,-12.9913,-13.1847,-13.1895,-13.3965,-13.455,-13.3639,-13.3639,-13.0374,-12.3996,-11.6782,-11.3897,-11.5415,-12.1946,-12.8096,-13.3715,-13.288,-13.0109,-12.5603,-12.514,-12.2211,-11.6413,-11.6473,-11.5181,-11.2194,-11.2315,-11.2166,-11.1131,-10.2125,-9.6518,0.0,-8.524,0.0,0.0,0.0,0.0,0.0,0.0,0.0,0.0,-6.7311,-4.002,-0.9946,-0.1167,0.8255,2.0821,3.5426,4.8708,5.9908,7.4966,8.8007,9.6376,9.5016,9.7617,10.9197,10.3127,10.194,11.1006,11.2407,11.2098,11.4592,11.9529,12.3854,12.7593,12.5156,12.4604,12.995,12.7308,12.7247,13.2251,13.4676,13.6342,13.7839,13.7849,13.7814,14.0441,14.142,14.231,14.3849,14.4485,14.4724,14.4448,14.442,14.4228,14.3984,14.383,14.3185,14.1518,14.1116,14.024,-10.5718,-10.6205,-10.714,-10.6293,-10.4787,-10.6857,-10.8283,-10.9227,-10.9669,-11.0602,-11.1958,-11.2402,-11.2821,-11.3438,-11.426,-11.5008,-11.5681,-11.6653,-11.785,-11.927,-11.927,-11.9719,-12.0467,-12.3234,-12.4505,-12.4654,-12.8517,-13.0386,-13.049,-13.1654,-13.0374,-12.6653,-12.6577,-12.3236,-11.6858,-11.3973,-11.4277,-11.7769,-12.2553,-12.8096,-13.4171,-13.3466,-13.2121,-13.0501,-13.0269,-12.9116,-12.7122,-12.7419,-12.6915,-12.5321,-12.414,-12.0574,-11.3928,-10.3318,-9.4653,0.0,0.0,0.0,0.0,0.0,0.0,0.0,0.0,0.0,0.0,0.0,-2.3996,0.5846,1.8843,3.0426,4.2276,5.0707,5.8659,6.6235,7.8303,8.7119,8.9915,9.5163,9.9553,10.2081,10.3182,10.5391,10.9882,11.1297,11.3576,11.8593,11.6051,11.411,11.5093,11.7681,11.9839,12.2037,12.4112,12.7069,13.1007,13.3972,13.6153,13.7021,13.7318,13.7847,13.9265,14.0687,14.1973,14.2918,14.3963,14.4591,14.4449,14.4091,14.3748,14.3566,14.3464,14.2956,14.2014,14.1704,14.1629,-10.4401,-10.4498,-10.3411,-10.3085,-10.308,-10.308,-10.4535,-10.6919,-10.6919,-10.8074,-10.9774,-10.8238,-10.7938,-10.8652,-10.8652,-10.9923,-11.2167,-11.3513,-11.5307,-11.7551,-11.8074,-11.8523,-11.9046,-12.2187,-12.3748,-12.3937,-12.6434,-12.7911,-12.8248,-12.6653,-12.3616,-11.9516,-11.8984,-11.5491,-10.9265,-11.2454,-11.6175,-11.982,-12.4361,-12.8976,-13.3525,-13.1849,-13.1634,-13.333,-13.3305,-13.4076,-13.5773,-13.632,-13.5938,-13.4786,-13.065,-12.428,-11.5423,-10.1273,0.0,0.0,0.0,0.0,0.0,0.0,0.0,0.0,0.0,-3.0995,-2.9331,0.0,-0.89,0.0,2.7938,4.47,5.83,6.0604,0.0,0.0,7.7828,8.1918,8.3723,9.1449,9.6246,9.4853,9.9507,10.3439,10.503,10.6434,11.063,11.9059,11.2109,10.5576,10.4787,11.115,11.5539,11.423,11.813,12.3032,12.4965,12.9674,13.3619,13.5837,13.6698,13.7467,13.7986,13.9566,14.0787,14.1281,14.2641,14.3524,14.3582,14.3468,14.3241,14.3137,14.305,14.29,14.29,14.2825,14.2825,-10.5797,-10.3847,-9.5431,-9.3532,-9.5989,-9.6063,-9.8961,-10.3702,-10.3702,-10.3893,-10.3636,-9.7658,-9.5006,-9.4818,-9.0406,0.0,-10.2072,-10.2221,-10.7156,-11.5905,-11.77,-11.9391,-12.1007,-12.2982,-12.3985,-12.3954,-12.3055,-12.346,-12.4603,-11.7618,-11.5188,-11.7466,-11.6175,-11.2075,-10.6228,-11.4656,-11.944,-11.9668,-12.7419,-13.1491,-13.1642,-12.9701,-13.0088,-13.2856,-13.2955,-13.3927,-13.5744,-13.6192,-13.4454,-13.0045,-12.1116,-11.4127,-10.931,0.0,0.0,0.0,0.0,0.0,0.0,0.0,0.0,0.0,0.0,0.0,0.0,0.0,0.0,0.2122,2.8091,0.0,6.5602,6.6881,0.0,0.0,0.0,8.1502,8.974,8.7121,8.702,9.2815,0.0,0.0,9.5499,9.7505,10.1668,11.0154,11.1987,11.0926,10.6225,11.2841,11.6759,10.9742,10.9422,11.0009,11.3264,11.919,12.6468,13.3147,13.479,13.4505,13.627,13.7023,13.766,13.9278,14.0646,14.1547,14.1272,14.2438,14.3197,14.2934,14.2845,14.2845,14.29,14.277,14.277,-9.5808,-8.7295,-8.3978,-8.2941,-8.3372,-8.3447,-8.4819,-8.7116,-8.7116,-8.7639,-8.8312,-8.5695,-8.4574,-8.4499,-8.3601,0.0,0.0,0.0,-9.837,-10.7053,-10.7802,-11.122,-11.6816,-11.8834,-11.9763,-11.9813,-12.0496,-12.1642,-12.3236,-12.0047,-11.1619,-9.8179,0.0,-9.4003,-9.742,-10.7063,-11.4419,-11.9509,-12.8391,-13.2523,-13.1245,-13.0431,-13.0462,-13.1435,-13.1684,-13.2552,-13.4196,-13.2964,-12.839,-12.0262,-11.2221,-10.1489,0.0,0.0,0.0,0.0,0.0,0.0,0.0,0.0,0.0,0.0,0.0,0.1122,0.5452,0.0,0.0,0.0,4.4443,5.57,6.2265,6.7838,0.0,0.0,0.0,0.0,0.0,0.0,0.0,7.6424,8.356,9.0144,9.3466,9.0454,8.9503,9.3918,9.3118,9.1934,9.1352,0.0,10.564,10.7904,10.8772,11.1316,11.7071,11.7123,11.7647,12.1793,12.5374,12.8294,12.9479,13.3714,13.6925,13.7987,13.9637,14.1007,14.0967,14.2055,14.2993,14.288,14.2825,14.29,14.2825,14.2334,14.208,-8.2942,0.0,0.0,0.0,0.0,-7.25,-7.3522,-7.5313,-7.545,-7.6078,-7.708,-7.5272,0.0,0.0,0.0,0.0,0.0,0.0,-9.0317,-9.5703,-10.1763,-10.6321,-10.9924,-11.1972,-11.2834,-11.2758,-11.1847,-11.1998,-11.3055,-11.2129,-10.187,-8.303,0.0,0.0,0.0,0.0,-10.9014,-11.5059,-12.6839,-13.2356,-13.0861,-12.9964,-12.959,-12.9864,-13.0661,-13.1405,-13.2044,-12.7465,-12.0538,-11.1085,-9.9847,0.0,0.0,0.0,0.0,0.0,0.0,0.0,0.0,0.0,0.0,0.0,0.0,0.0,0.0,0.0,0.0,0.0,0.0,0.0,5.9383,6.6212,6.7782,0.0,0.0,0.0,0.0,0.0,0.0,0.0,0.0,0.0,8.8312,8.5278,8.3852,0.0,0.0,8.6481,8.3925,9.2301,9.941,10.1102,10.25,0.0,11.2646,11.0381,10.8993,11.2333,11.8834,12.3726,12.3794,12.6634,12.9043,12.8842,13.3027,13.482,13.0944,13.0477,13.1035,13.1357,13.1327,13.1368,13.1667,13.1386,13.0928,0.0,0.0,0.0,0.0,-6.4774,0.0,0.0,0.0,-7.2901,-7.2886,0.0,-6.682,0.0,0.0,0.0,0.0,-6.9992,-7.9469,0.0,0.0,-10.1869,-10.7518,-10.0304,-10.19,-10.2811,-10.2355,-9.499,-9.118,-9.0794,-8.7642,-8.301,0.0,0.0,0.0,0.0,0.0,-10.4494,-10.4831,-12.199,-13.0936,-13.0412,-12.7421,-12.6673,-12.8543,-13.0337,-13.0497,-12.884,-11.9202,-11.0774,-10.3722,-8.2557,0.0,0.0,0.0,0.0,0.0,0.0,0.0,0.0,0.0,0.0,0.0,0.0,0.0,0.0,0.0,0.0,0.0,0.0,0.0,0.0,6.1954,0.0,0.0,0.0,0.0,0.0,0.0,0.0,0.0,0.0,7.4887,7.7249,8.2356,8.7549,9.079,0.0,0.0,0.0,0.0,10.2369,8.78,8.6574,8.8202,8.935,9.4484,10.1243,10.9543,0.0,0.0,12.2079,11.5533,11.0395,10.9948,11.8767,12.0962,10.5402,10.4183,10.4977,10.4902,10.5491,10.4615,10.5375,10.7883,10.8039,0.0,0.0,0.0,0.0,0.0,0.0,0.0,0.0,0.0,-5.5185,-5.4233,-5.2079,-5.1148,0.0,0.0,0.0,0.0,0.0,0.0,0.0,-7.9467,-8.4188,-8.6941,-8.8536,-8.8834,-8.7654,-8.5902,-7.8801,0.0,0.0,0.0,0.0,0.0,0.0,0.0,0.0,-9.9561,-10.4009,-12.042,-12.9515,-13.0263,-12.8319,-12.7619,-12.8416,-12.7114,-12.304,-11.5947,-10.4784,-9.418,0.0,0.0,0.0,0.0,0.0,0.0,0.0,0.0,0.0,0.0,0.0,0.0,0.0,0.0,0.0,0.0,0.0,0.0,0.0,0.0,0.0,0.0,0.0,6.2339,0.0,0.0,0.0,0.0,0.0,0.0,0.0,0.0,0.0,7.1122,7.5099,8.0991,8.8828,9.166,9.3347,9.4054,0.0,0.0,0.0,0.0,0.0,0.0,0.0,9.6207,9.3449,9.4306,9.6593,10.066,10.1722,10.1989,10.1872,0.0,0.0,9.1397,9.4385,9.8965,9.8424,9.9074,9.9445,9.8338,9.9204,10.0259,0.0,0.0,0.0,0.0,0.0,0.0,0.0,0.0,0.0,-4.4097,-4.3249,0.0,0.0,0.0,0.0,0.0,0.0,0.0,0.0,0.0,0.0,0.0,-7.5768,-7.6882,0.0,0.0,0.0,0.0,0.0,0.0,0.0,0.0,0.0,0.0,0.0,0.0,-9.5189,-10.0219,-11.731,-12.7023,-12.8235,-12.7098,-12.6871,-12.7742,-12.5097,-11.899,-10.9037,0.0,0.0,0.0,-5.7487,0.0,0.0,0.0,0.0,0.0,0.0,0.0,0.0,0.0,0.0,0.0,0.0,0.0,0.0,0.0,0.0,0.0,0.0,0.0,0.0,0.0,5.7727,0.0,0.0,0.0,0.0,0.0,0.0,0.0,0.0,0.0,0.0,6.9261,7.5299,8.3108,8.7825,9.1874,9.5213,9.8555,10.3024,0.0,0.0,0.0,0.0,0.0,0.0,0.0,0.0,0.0,0.0,0.0,0.0,0.0,8.7128,8.3857,7.5719,7.9318,8.353,8.2805,0.0,0.0,0.0,0.0,0.0,0.0,0.0,0.0,0.0,0.0,0.0,0.0,0.0,0.0,0.0,-4.1029,0.0,0.0,-4.1502,0.0,0.0,0.0,0.0,0.0,0.0,0.0,0.0,0.0,0.0,0.0,0.0,0.0,0.0,0.0,0.0,0.0,0.0,0.0,0.0,0.0,0.0,-9.1458,-9.2361,-11.2475,-12.3335,-12.4141,-12.3409,-12.4131,-12.6321,-12.431,-11.8595,-10.8657,0.0,0.0,0.0,0.0,0.0,0.0,0.0,0.0,0.0,0.0,0.0,0.0,0.0,0.0,0.0,0.0,0.0,0.0,0.0,0.0,0.0,0.0,0.0,0.0,0.0,0.0,4.6763,5.3945,6.0398,0.0,0.0,0.0,0.0,0.0,0.0,0.0,0.0,0.0,7.4059,9.1526,10.1156,9.3657,9.7508,10.0985,9.9777,9.396,9.2301,10.0134,9.9996,9.9229,0.0,0.0,0.0,0.0,0.0,0.0,0.0,0.0,0.0,0.0,0.0,0.0,0.0,0.0,0.0,0.0,0.0,0.0,0.0,0.0,0.0,0.0,0.0,0.0,0.0,0.0,0.0,0.0,-3.6448,-3.6089,0.0,0.0,0.0,0.0,0.0,0.0,0.0,0.0,0.0,0.0,0.0,0.0,0.0,0.0,0.0,0.0,0.0,0.0,0.0,0.0,0.0,0.0,0.0,0.0,-8.685,-9.054,-10.8574,-11.9338,-12.2376,-12.1138,-12.1815,-12.4403,-11.6257,-10.7254,-9.7976,0.0,0.0,0.0,0.0,0.0,0.0,0.0,0.0,0.0,0.0,0.0,0.0,0.0,0.0,0.0,0.0,0.0,0.0,0.0,0.0,0.0,0.0,0.0,0.0,0.0,0.0,0.0,6.468,6.632,6.236,0.0,0.0,0.0,0.0,0.0,0.0,0.0,0.0,0.0,0.0,9.4195,9.7754,10.0964,10.3348,10.3983,10.2629,10.0675,9.8501,10.1469,10.0094,8.8539,0.0,0.0,0.0,0.0,0.0,0.0,0.0,0.0,0.0,0.0,0.0,0.0,0.0,0.0,0.0,0.0,0.0,0.0,0.0,0.0,0.0,0.0,0.0,0.0,0.0,-3.302,-3.2293,-3.1619,-3.1556,0.0,0.0,0.0,0.0,0.0,0.0,0.0,0.0,0.0,0.0,0.0,0.0,0.0,0.0,0.0,0.0,0.0,0.0,0.0,0.0,0.0,0.0,0.0,0.0,-8.3122,-8.6598,-10.543,-11.6595,-11.9291,-11.9671,-12.0874,-12.2982,-11.2308,-10.1045,0.0,0.0,0.0,0.0,0.0,0.0,0.0,0.0,0.0,0.0,0.0,0.0,0.0,0.0,0.0,0.0,0.0,0.0,0.0,0.0,0.0,0.0,0.0,0.0,0.0,0.0,0.0,0.0,6.0584,6.271,5.9403,0.0,0.0,0.0,0.0,0.0,0.0,0.0,0.0,0.0,0.0,8.8276,9.3578,9.6991,0.0,0.0,10.0965,9.8728,9.7777,10.2883,10.1364,8.4884,8.1294,0.0,0.0,0.0,0.0,0.0,0.0,0.0,0.0,0.0,0.0,0.0,0.0,0.0,0.0,0.0,0.0,0.0,0.0,0.0,0.0,0.0,0.0,0.0,0.0,0.0,0.0,-2.691,-2.691,0.0,0.0,0.0,0.0,0.0,0.0,0.0,0.0,0.0,0.0,0.0,0.0,0.0,0.0,0.0,0.0,0.0,0.0,0.0,0.0,0.0,0.0,0.0,0.0,-8.0111,-8.1454,-10.2501,-11.4173,-11.543,-11.8315,-12.0298,-12.0933,-11.0727,-9.8112,0.0,0.0,0.0,0.0,0.0,0.0,0.0,0.0,0.0,0.0,0.0,0.0,0.0,0.0,0.0,0.0,0.0,0.0,0.0,0.0,0.0,0.0,0.0,0.0,0.0,0.0,0.0,0.0,0.0,0.0,0.0,0.0,0.0,0.0,0.0,0.0,0.0,0.0,0.0,0.0,0.0,8.3508,8.3398,8.7693,9.2533,0.0,9.141,8.8897,9.5943,10.2674,10.1785,8.597,0.0,0.0,0.0,0.0,0.0,0.0,0.0,0.0,0.0,0.0,0.0,0.0,0.0,0.0,0.0,0.0,0.0,0.0,0.0,0.0,0.0,0.0,0.0,0.0,0.0,0.0,0.0,0.0,0.0,0.0,0.0,0.0,0.0,0.0,0.0,0.0,0.0,0.0,0.0,0.0,0.0,0.0,0.0,0.0,0.0,0.0,0.0,0.0,0.0,0.0,0.0,0.0,0.0,0.0,-7.7595,-9.6468,-10.8284,-11.2119,-11.189,-11.3643,-11.7356,-10.1872,0.0,0.0,0.0,0.0,0.0,0.0,0.0,0.0,0.0,0.0,0.0,0.0,0.0,0.0,0.0,0.0,0.0,0.0,0.0,0.0,0.0,0.0,0.0,0.0,0.0,0.0,0.0,3.6245,0.0,0.0,0.0,0.0,0.0,0.0,0.0,0.0,0.0,0.0,0.0,0.0,0.0,0.0,7.9988,8.0009,8.3281,8.6149,0.0,0.0,8.437,7.9084,8.866,9.0817,0.0,0.0,0.0,0.0,0.0,0.0,0.0,0.0,0.0,0.0,0.0,0.0,0.0,0.0,0.0,0.0,0.0,0.0,0.0,0.0,0.0,0.0,0.0,0.0,0.0,0.0,0.0,0.0,0.0,0.0,0.0,0.0,0.0,0.0,0.0,0.0,0.0,0.0,0.0,0.0,0.0,0.0,0.0,0.0,0.0,0.0,0.0,0.0,0.0,0.0,0.0,0.0,0.0,0.0,-7.2005,-7.5462,-9.0537,-10.1823,-10.8162,-10.9062,-11.1205,-11.4877,-9.7195,-8.1017,0.0,0.0,0.0,0.0,0.0,0.0,0.0,0.0,0.0,0.0,0.0,0.0,0.0,0.0,0.0,0.0,0.0,0.0,0.0,0.0,0.0,0.0,0.0,0.0,0.0,0.0,0.0,0.0,0.0,0.0,0.0,0.0,0.0,0.0,0.0,0.0,0.0,0.0,0.0,0.0,0.0,0.0,7.7216,7.7467,0.0,0.0,0.0,8.1118,7.5392,0.0,0.0,0.0,0.0,0.0,0.0,0.0,0.0,0.0,0.0,0.0,0.0,0.0,0.0,0.0,0.0,0.0,0.0,0.0,0.0,0.0,0.0,0.0,0.0,0.0,0.0,0.0,0.0,0.0,0.0,0.0,0.0,0.0,0.0,0.0,0.0,0.0,0.0,0.0,0.0,0.0,0.0,0.0,0.0,0.0,0.0,0.0,0.0,0.0,0.0,0.0,0.0,0.0,0.0,0.0,0.0,0.0,-7.3646,-8.5036,-9.5374,-10.4388,-10.7596,-11.0145,-11.2073,-9.5742,-7.7605,0.0,0.0,0.0,0.0,0.0,0.0,0.0,0.0,0.0,0.0,0.0,0.0,0.0,0.0,0.0,0.0,0.0,0.0,0.0,0.0,0.0,0.0,0.0,0.0,0.0,0.0,0.0,0.0,0.0,0.0,0.0,0.0,0.0,0.0,0.0,0.0,0.0,0.0,0.0,0.0,0.0,6.669,7.4901,7.168,6.7878,0.0,0.0,7.7495,7.7144,8.1764,0.0,0.0,0.0,0.0,0.0,0.0,0.0,0.0,0.0,0.0,0.0,0.0,0.0,0.0,0.0,0.0,0.0,0.0,0.0,0.0,0.0,0.0,0.0,0.0,0.0,0.0,0.0,0.0,0.0,0.0,0.0,0.0,0.0,0.0,0.0,0.0,0.0,0.0,0.0,0.0,0.0,0.0,0.0,0.0,0.0,0.0,0.0,0.0,0.0,0.0,0.0,0.0,0.0,0.0,0.0,0.0,-7.2483,-7.9968,-9.0113,-10.2646,-10.2333,-10.4088,-10.8773,-9.773,-8.157,0.0,0.0,0.0,0.0,0.0,0.0,0.0,0.0,0.0,0.0,0.0,0.0,0.0,0.0,0.0,0.0,0.0,0.0,0.0,0.0,0.0,0.0,0.0,0.0,0.0,0.0,0.0,0.0,0.0,0.0,0.0,0.0,0.0,0.0,0.0,0.0,0.0,0.0,0.0,0.0,0.0,6.5085,7.3115,6.8959,0.0,0.0,0.0,0.0,6.748,6.7725,0.0,0.0,0.0,0.0,0.0,0.0,0.0,0.0,0.0,0.0,0.0,0.0,0.0,0.0,0.0,0.0,0.0,0.0,0.0,0.0,0.0,0.0,0.0,0.0,0.0,0.0,0.0,0.0,0.0,0.0,0.0,0.0,0.0,0.0,0.0,0.0,0.0,0.0,0.0,0.0,0.0,0.0,0.0,0.0,0.0,0.0,0.0,0.0,0.0,0.0,0.0,0.0,0.0,0.0,0.0,0.0,-6.978,-7.3805,-8.3335,-9.8508,-9.8963,-10.0868,-10.499,-9.6888,-7.8202,0.0,0.0,0.0,0.0,0.0,0.0,0.0,0.0,0.0,0.0,0.0,0.0,0.0,0.0,0.0,0.0,0.0,0.0,0.0,0.0,0.0,0.0,0.0,0.0,0.0,0.0,0.0,0.0,0.0,0.0,0.0,0.0,0.0,0.0,0.0,0.0,0.0,0.0,0.0,0.0,5.6998,5.7815,6.6689,0.0,0.0,0.0,0.0,0.0,0.0,6.5022,6.2759,0.0,0.0,0.0,0.0,0.0,0.0,0.0,0.0,0.0,0.0,0.0,0.0,0.0,0.0,0.0,0.0,0.0,0.0,0.0,0.0,0.0,0.0,0.0,0.0,0.0,0.0,0.0,0.0,0.0,0.0,0.0,0.0,0.0,0.0,0.0,0.0,0.0,0.0,0.0,0.0,0.0,0.0,0.0,0.0,0.0,0.0,0.0,0.0,0.0,0.0,0.0,0.0,0.0,0.0,0.0,-6.6392,-6.7685,-7.6265,-9.2616,-9.5582,-9.8391,-10.1215,-9.4379,-7.235,-3.5113,0.0,0.0,0.0,0.0,0.0,0.0,0.0,0.0,0.0,0.0,0.0,0.0,0.0,0.0,0.0,0.0,0.0,0.0,0.0,0.0,0.0,0.0,0.0,0.0,0.0,0.0,0.0,0.0,0.0,0.0,0.0,0.0,0.0,0.0,0.0,0.0,0.0,0.0,0.0,5.0798,5.0342,0.0,0.0,0.0,0.0,0.0,0.0,0.0,0.0,6.0445,0.0,0.0,0.0,0.0,0.0,0.0,0.0,0.0,0.0,0.0,0.0,0.0,0.0,0.0,0.0,0.0,0.0,0.0,0.0,0.0,0.0,0.0,0.0,0.0,0.0,0.0,0.0,0.0,0.0,0.0,0.0,0.0,0.0,0.0,0.0,0.0,0.0,0.0,0.0,0.0,0.0,0.0,0.0,0.0,0.0,0.0,0.0,0.0,0.0,0.0,0.0,0.0,0.0,0.0,0.0,0.0,-6.2948,-7.0822,-8.4354,-9.0031,-9.4693,-9.8321,-9.0489,-6.8555,-3.1775,0.0,0.0,0.0,0.0,0.0,0.0,0.0,0.0,0.0,0.0,0.0,0.0,0.0,0.0,0.0,0.0,0.0,0.0,0.0,0.0,0.0,0.0,0.0,0.0,0.0,0.0,0.0,0.0,0.0,0.0,0.0,0.0,0.0,0.0,0.0,0.0,0.0,0.0,4.4452,4.5954,0.0,0.0,0.0,0.0,0.0,0.0,0.0,0.0,5.4039,0.0,0.0,0.0,0.0,0.0,0.0,0.0,0.0,0.0,0.0,0.0,0.0,0.0,0.0,0.0,0.0,0.0,0.0,0.0,0.0,0.0,0.0,0.0,0.0,0.0,0.0,0.0,0.0,0.0,0.0,0.0,0.0,0.0,0.0,0.0,0.0,0.0,0.0,0.0,0.0,0.0,0.0,0.0,0.0,0.0,0.0,0.0,0.0,0.0,0.0,0.0,0.0,0.0,0.0,0.0,0.0,0.0,0.0,-6.977,-8.0668,-8.9241,-9.4585,-9.562,-7.389,-5.1546,0.0,0.0,0.0,0.0,0.0,0.0,0.0,0.0,0.0,0.0,0.0,0.0,0.0,0.0,0.0,0.0,0.0,0.0,0.0,0.0,0.0,0.0,0.0,0.0,0.0,0.0,0.0,0.0,0.0,0.0,0.0,0.0,0.0,0.0,0.0,0.0,0.0,0.0,0.0,0.0,0.0,0.0,0.0,0.0,0.0,0.0,0.0,0.0,0.0,0.0,0.0,0.0,0.0,0.0,0.0,0.0,0.0,0.0,0.0,0.0,0.0,0.0,0.0,0.0,0.0,0.0,0.0,0.0,0.0,0.0,0.0,0.0,0.0,0.0,0.0,0.0,0.0,0.0,0.0,0.0,0.0,0.0,0.0,0.0,0.0,0.0,0.0,0.0,0.0,0.0,0.0,0.0,0.0,0.0,0.0,0.0,0.0,0.0,0.0,0.0,0.0,0.0,0.0,0.0,0.0,0.0,0.0,0.0,-6.8436,-7.5824,-8.6954,-9.3255,-9.4216,-6.0857,-3.7637,0.0,0.0,0.0,0.0,0.0,0.0,0.0,0.0,0.0,0.0,0.0,0.0,0.0,0.0,0.0,0.0,0.0,0.0,0.0,0.0,0.0,0.0,0.0,0.0,0.0,0.0,0.0,0.0,0.0,0.0,0.0,0.0,0.0,0.0,0.0,0.0,0.0,0.0,0.0,0.0,0.0,0.0,0.0,0.0,0.0,0.0,0.0,0.0,5.2602,0.0,0.0,0.0,0.0,0.0,0.0,0.0,0.0,0.0,0.0,0.0,0.0,0.0,0.0,0.0,0.0,0.0,0.0,0.0,0.0,0.0,0.0,0.0,0.0,0.0,0.0,0.0,0.0,0.0,0.0,0.0,0.0,0.0,0.0,0.0,0.0,0.0,0.0,0.0,0.0,0.0,0.0,0.0,0.0,0.0,0.0,0.0,0.0,0.0,0.0,0.0,0.0,0.0,0.0,0.0,0.0,0.0,0.0,0.0,-6.3707,-6.5973,-7.8585,-8.7189,-9.0252,-6.3839,-3.8625,0.0,0.0,0.0,0.0,0.0,0.0,0.0,0.0,0.0,0.0,0.0,0.0,0.0,0.0,0.0,0.0,0.0,0.0,0.0,0.0,0.0,0.0,0.0,0.0,0.0,0.0,0.0,0.0,0.0,0.0,0.0,0.0,0.0,0.0,0.0,0.0,0.0,0.0,0.0,0.0,0.0,0.0,0.0,0.0,0.0,0.0,0.0,0.0,0.0,0.0,0.0,0.0,0.0,0.0,0.0,0.0,0.0,0.0,0.0,0.0,0.0,0.0,0.0,0.0,0.0,0.0,0.0,0.0,0.0,0.0,0.0,0.0,0.0,0.0,0.0,0.0,0.0,0.0,0.0,0.0,0.0,0.0,0.0,0.0,0.0,0.0,0.0,0.0,0.0,0.0,0.0,0.0,0.0,0.0,0.0,0.0,0.0,0.0,0.0,0.0,0.0,0.0,0.0,0.0,0.0,0.0,0.0,0.0,-5.7295,-5.7621,-7.5,-7.7705,-6.408,-3.743,-2.0634,0.0,0.0,0.0,0.0,0.0,0.0,0.0,0.0,0.0,0.0,0.0,0.0,0.0,0.0,0.0,0.0,0.0,0.0,0.0,0.0,0.0,0.0,0.0,0.0,0.0,0.0,0.0,0.0,0.0,0.0,0.0,0.0,0.0,0.0,0.0,0.0,0.0,0.0,0.0,0.0,0.0,0.0,0.0,0.0,0.0,0.0,0.0,0.0,0.0,0.0,0.0,0.0,0.0,0.0,0.0,0.0,0.0,0.0,0.0,0.0,0.0,0.0,0.0,0.0,0.0,0.0,0.0,0.0,0.0,0.0,0.0,0.0,0.0,0.0,0.0,0.0,0.0,0.0,0.0,0.0,0.0,0.0,0.0,0.0,0.0,0.0,0.0,0.0,0.0,0.0,0.0,0.0,0.0,0.0,0.0,0.0,0.0,0.0,0.0,0.0,0.0,0.0,0.0,0.0,0.0,0.0,0.0,0.0,0.0,-4.4648,-6.3437,-6.3128,-4.0629,-1.5851,-0.3962,0.0,0.0,0.0,0.0,0.0,0.0,0.0,0.0,0.0,0.0,0.0,0.0,0.0,0.0,0.0,0.0,0.0,0.0,0.0,0.0,0.0,0.0,0.0,0.0,0.0,0.0,0.0,0.0,0.0,0.0,0.0,0.0,0.0,0.0,0.0,0.0,0.0,0.0,0.0,0.0,0.0,0.0,0.0,0.0,0.0,0.0,0.0,0.0,0.0,0.0,0.0,0.0,0.0,0.0,0.0,0.0,0.0,0.0,0.0,0.0,0.0,0.0,0.0,0.0,0.0,0.0,0.0,0.0,0.0,0.0,0.0,0.0,0.0,0.0,0.0,0.0,0.0,0.0,0.0,0.0,0.0,0.0,0.0,0.0,0.0,0.0,0.0,0.0,0.0,0.0,0.0,0.0,0.0,0.0,0.0,0.0,0.0,0.0,0.0,0.0,0.0,0.0,0.0,0.0,0.0,0.0,0.0,0.0,0.0,-2.0664,-3.7579,-4.1144,-2.9496,-1.033,0.6293,0.0,0.0,0.0,0.0,0.0,0.0,0.0,0.0,0.0,0.0,0.0,0.0,0.0,0.0,0.0,0.0,0.0,0.0,0.0,0.0,0.0,0.0,0.0,0.0,0.0,0.0,0.0,0.0,0.0,0.0,0.0,0.0,0.0,0.0,0.0,0.0,0.0,0.0,0.0,0.0,0.0,0.0,0.0,0.0,0.0,0.0,0.0,0.0,0.0,0.0,0.0,0.0,0.0,0.0,0.0,0.0,0.0,0.0,0.0,0.0,0.0,0.0,0.0,0.0,0.0,0.0,0.0,0.0,0.0,0.0,0.0,0.0,0.0,0.0,0.0,0.0,0.0,0.0,0.0,0.0,0.0,0.0,0.0,0.0,0.0,0.0,0.0,0.0,0.0,0.0,0.0,0.0,0.0,0.0,0.0,0.0,0.0,0.0,0.0,0.0,0.0,0.0,0.0,0.0,0.0,0.0,0.0,0.0,0.0,0.2849,-1.1283,-1.5653,-0.6863,0.5867,1.2615,1.274,0.0,0.0,0.0,0.0,0.0,0.0,0.0,0.0,0.0,0.0,0.0,0.0,0.0,0.0,0.0,0.0,0.0,0.0,0.0,0.0,0.0,0.0,0.0,0.0,0.0,0.0,0.0,0.0,0.0,0.0,0.0,0.0,0.0,0.0,0.0,0.0,0.0,0.0,0.0,0.0,0.0,0.0,0.0,0.0,0.0,0.0,0.0,0.0,0.0,0.0,0.0,0.0,0.0,0.0,0.0,0.0,0.0,0.0,0.0,0.0,0.0,0.0,0.0,0.0,0.0,0.0,0.0,0.0,0.0,0.0,0.0,0.0,0.0,0.0,0.0,0.0,0.0,0.0,0.0,0.0,0.0,0.0,0.0,0.0,0.0,0.0,0.0,0.0,0.0,0.0,0.0,0.0,0.0,0.0,0.0,0.0,0.0,0.0,0.0,0.0,0.0,0.0,0.0,0.0,0.0,0.0,0.0,0.0,1.0913,0.3047,0.2078,0.9882,1.8588,2.1087,0.0,0.0,0.0,0.0,0.0,0.0,0.0,0.0,0.0,0.0,0.0,0.0,0.0,0.0,0.0,0.0,0.0,0.0,0.0,0.0,0.0,0.0,0.0,0.0,0.0,0.0,0.0,0.0,0.0,0.0,0.0,0.0,0.0,0.0,0.0,0.0,0.0,0.0,0.0,0.0,0.0,0.0,0.0,0.0,0.0,0.0,0.0,0.0,0.0,0.0,0.0,0.0,0.0,0.0,0.0,0.0,0.0,0.0,0.0,0.0,0.0,0.0,0.0,0.0,0.0,0.0,0.0,0.0,0.0,0.0,0.0,0.0,0.0,0.0,0.0,0.0,0.0,0.0,0.0,0.0,0.0,0.0,0.0,0.0,0.0,0.0,0.0,0.0,0.0,0.0,0.0,0.0,0.0,0.0,0.0,0.0,0.0,0.0,0.0,0.0,0.0,0.0,0.0,0.0,0.0,0.0,0.0,0.0,-1.0178,-0.2785,0.3429,1.0239,1.7706,2.5289,3.2435,0.0,0.0,0.0,0.0,0.0,0.0,0.0,0.0,0.0,0.0,0.0,0.0,0.0,0.0,0.0,0.0,0.0,0.0,0.0,0.0,0.0,0.0,0.0,0.0,0.0,0.0,0.0,0.0,0.0,0.0,0.0,0.0,0.0,0.0,0.0,0.0,0.0,0.0,0.0,0.0,0.0,0.0,0.0,0.0,0.0,0.0,0.0,0.0,0.0,0.0,0.0,0.0,0.0,0.0,0.0,0.0,0.0,0.0,0.0,0.0,0.0,0.0,0.0,0.0,0.0,0.0,0.0,0.0,0.0,0.0,0.0,0.0,0.0,0.0,0.0,0.0,0.0,0.0,0.0,0.0,0.0,0.0,0.0,0.0,0.0,0.0,0.0,0.0,0.0,0.0,0.0,0.0,0.0,0.0,0.0,0.0,0.0,0.0,0.0,0.0,0.0,0.0,0.0,0.0,0.0,0.0,0.0,0.0,0.0,0.2444,1.4546,2.0805,2.0742,2.6713,3.0153,0.0,0.0,0.0,0.0,0.0,0.0,0.0,0.0,0.0,0.0,0.0,0.0,0.0,0.0,0.0,0.0,0.0,0.0,0.0,0.0,0.0,0.0,0.0,0.0,0.0,0.0,0.0,0.0,0.0,0.0,0.0,0.0,0.0,0.0,0.0,0.0,0.0,0.0,0.0,0.0,0.0,0.0,0.0,0.0,0.0,0.0,0.0,0.0,0.0,0.0,0.0,0.0,0.0,0.0,0.0,0.0,0.0,0.0,0.0,0.0,0.0,0.0,0.0,0.0,0.0,0.0,0.0,0.0,0.0,0.0,0.0,0.0,0.0,0.0,0.0,0.0,0.0,0.0,0.0,0.0,0.0,0.0,0.0,0.0,0.0,0.0,0.0,0.0,0.0,0.0,0.0,0.0,0.0,0.0,0.0,0.0,0.0,0.0,0.0,0.0,0.0,0.0,0.0,0.0,0.0,0.0,0.0,0.0,0.0,0.7106,1.6993,2.2465,2.3413,2.7708,2.9289,0.0,0.0,0.0,0.0,0.0,0.0,0.0,0.0,0.0,0.0,0.0,0.0,0.0,0.0,0.0,0.0,0.0,0.0,0.0,0.0,0.0,0.0,0.0,0.0,0.0,0.0,0.0,0.0,0.0,0.0,0.0,0.0,0.0,0.0,0.0,0.0,0.0,0.0,0.0,0.0,0.0,0.0,0.0,0.0,0.0,0.0,0.0,0.0,0.0,0.0,0.0,0.0,0.0,0.0,0.0,0.0,0.0,0.0,0.0,0.0,0.0,0.0,0.0,0.0,0.0,0.0,0.0,0.0,0.0,0.0,0.0,0.0,0.0,0.0,0.0,0.0,0.0,0.0,0.0,0.0,0.0,0.0,0.0,0.0,0.0,0.0,0.0,0.0,0.0,0.0,0.0,0.0,0.0,0.0,0.0,0.0,0.0,0.0,0.0,0.0,0.0,0.0,0.0,0.0,0.0,0.0,0.0,0.0,0.0,1.0791,1.1619,1.627,2.581,2.8544,2.9948,0.0,0.0,0.0,0.0,0.0,0.0,0.0,0.0,0.0,0.0,0.0,0.0,0.0,0.0,0.0,0.0,0.0,0.0,0.0,0.0,0.0,0.0,0.0,0.0,0.0,0.0,0.0,0.0,0.0,0.0,0.0,0.0,0.0,0.0,0.0,0.0,0.0,0.0,0.0,0.0,0.0,0.0,0.0,0.0,0.0,0.0,0.0,0.0,0.0,0.0,0.0,0.0,0.0,0.0,0.0,0.0,0.0,0.0,0.0,0.0,0.0,0.0,0.0,0.0,0.0,0.0,0.0,0.0,0.0,0.0,0.0,0.0,0.0,0.0,0.0,0.0,0.0,0.0,0.0,0.0,0.0,0.0,0.0,0.0,0.0,0.0,0.0,0.0,0.0,0.0,0.0,0.0,0.0,0.0,0.0,0.0,0.0,0.0,0.0,0.0,0.0,0.0,0.0,0.0,0.0,0.0,0.0,0.0,0.0,0.0,1.1421,1.5435,2.3419,2.523,2.7261,3.0061,0.0,0.0,0.0,0.0,0.0,0.0,0.0,0.0,0.0,0.0,0.0,0.0,0.0,0.0,0.0,0.0,0.0,0.0,0.0,0.0,0.0,0.0,0.0,0.0,0.0,0.0,0.0,0.0,0.0,0.0,0.0,0.0,0.0,0.0,0.0,0.0,0.0,0.0,0.0,0.0,0.0,0.0,0.0,0.0,0.0,0.0,0.0,0.0,0.0,0.0,0.0,0.0,0.0,0.0,0.0,0.0,0.0,0.0,0.0,0.0,0.0,0.0,0.0,0.0,0.0,0.0,0.0,0.0,0.0,0.0,0.0,0.0,0.0,0.0,0.0,0.0,0.0,0.0,0.0,0.0,0.0,0.0,0.0,0.0,0.0,0.0,0.0,0.0,0.0,0.0,0.0,0.0,0.0,0.0,0.0,0.0,0.0,0.0,0.0,0.0,0.0,0.0,0.0,0.0,0.0,0.0,0.0,0.0,0.0,0.0,1.5293,2.1556,2.2593,2.4564,0.0,0.0,0.0,0.0,0.0,0.0,0.0,0.0,0.0,0.0,0.0,0.0,0.0,0.0,0.0,0.0,0.0,0.0,0.0,0.0,0.0,0.0,0.0,0.0,0.0,0.0,0.0,0.0,0.0,0.0,0.0,0.0,0.0,0.0,0.0,0.0,0.0,0.0,0.0,0.0,0.0,0.0,0.0,0.0,0.0,0.0,0.0,0.0,0.0,0.0,0.0,0.0,0.0,0.0,0.0,0.0,0.0,0.0,0.0,0.0,0.0,0.0,0.0,0.0,0.0,0.0,0.0,0.0,0.0,0.0,0.0,0.0,0.0,0.0,0.0,0.0,0.0,0.0,0.0,0.0,0.0,0.0,0.0,0.0,0.0,0.0,0.0,0.0,0.0,0.0,0.0,0.0,0.0,0.0,0.0,0.0,0.0,0.0,0.0,0.0,0.0,0.0,0.0,0.0,0.0,0.0,0.0,0.0,0.0,0.0,0.0,1.5375,1.9518,2.0724,0.0,2.3991,0.0,0.0,0.0,0.0,0.0,0.0,0.0,0.0,0.0,0.0,0.0,0.0,0.0,0.0,0.0,0.0,0.0,0.0,0.0,0.0,0.0,0.0,0.0,0.0,0.0,0.0,0.0,0.0,0.0,0.0,0.0,0.0,0.0,0.0,0.0,0.0,0.0,0.0,0.0,0.0,0.0,0.0,0.0,0.0,0.0,0.0,0.0,0.0,0.0,0.0,0.0,0.0,0.0,0.0,0.0,0.0,0.0,0.0,0.0,0.0,0.0,0.0,0.0,0.0,0.0,0.0,0.0,0.0,0.0,0.0,0.0,0.0,0.0,0.0,0.0,0.0,0.0,0.0,0.0,0.0,0.0,0.0,0.0,0.0,0.0,0.0,0.0,0.0,0.0,0.0,0.0,0.0,0.0,0.0,0.0,0.0,0.0,0.0,0.0,0.0,0.0,0.0,0.0,0.0,0.0,0.0,0.0,0.0,0.0,0.0,0.0,0.0,1.9893,2.0983,2.2063,0.0,0.0,0.0,0.0,0.0,0.0,0.0,0.0,0.0,0.0,0.0,0.0,0.0,0.0,0.0,0.0,0.0,0.0,0.0,0.0,0.0,0.0,0.0,0.0,0.0,0.0,0.0,0.0,0.0,0.0,0.0,0.0,0.0,0.0,0.0,0.0,0.0,0.0,0.0,0.0,0.0,0.0,0.0,0.0,0.0,0.0,0.0,0.0,0.0,0.0,0.0,0.0,0.0,0.0,0.0,0.0,0.0,0.0,0.0,0.0,0.0,0.0,0.0,0.0,0.0,0.0,0.0,0.0,0.0,0.0,0.0,0.0,0.0,0.0,0.0,0.0,0.0,0.0,0.0,0.0,0.0,0.0,0.0,0.0,0.0,0.0,0.0,0.0,0.0,0.0,0.0,0.0,0.0,0.0,0.0,0.0,0.0,0.0,0.0,0.0,0.0,0.0,0.0,0.0,0.0,0.0,0.0,0.0,0.0,0.0,1.5063,1.7771,1.8603,1.9539,2.0837,0.0,0.0,0.0,0.0,0.0,0.0,0.0,0.0,0.0,0.0,0.0,0.0,0.0,0.0,0.0,0.0,0.0,0.0,0.0,0.0,0.0,0.0,0.0,0.0,0.0,0.0,0.0,0.0,0.0,0.0,0.0,0.0,0.0,0.0,0.0,0.0,0.0,0.0,0.0,0.0,0.0,0.0,0.0,0.0,0.0,0.0,0.0,0.0,0.0,0.0,0.0,0.0,0.0,0.0,0.0,0.0,0.0,0.0,0.0,0.0,0.0,0.0,0.0,0.0,0.0,0.0,0.0,0.0,0.0,0.0,0.0,0.0,0.0,0.0,0.0,0.0,0.0,0.0,0.0,0.0,0.0,0.0,0.0,0.0,0.0,0.0,0.0,0.0,0.0,0.0,0.0,0.0,0.0,0.0,0.0,0.0,0.0,0.0,0.0,0.0,0.0,0.0,0.0,0.0,0.0,0.0,0.0,0.0,0.0,0.0,1.5847,0.0,0.0,0.0,1.9991,0.0,0.0,0.0,0.0,0.0,0.0,0.0,0.0,0.0,0.0,0.0,0.0,0.0,0.0,0.0,0.0,0.0,0.0,0.0,0.0,0.0,0.0,0.0,0.0,0.0,0.0,0.0,0.0,0.0,0.0,0.0,0.0,0.0,0.0,0.0,0.0,0.0,0.0,0.0,0.0,0.0,0.0,0.0,0.0,0.0,0.0,0.0,0.0,0.0,0.0,0.0,0.0,0.0,0.0,0.0,0.0,0.0,0.0,0.0,0.0,0.0,0.0,0.0,0.0,0.0,0.0,0.0,0.0,0.0,0.0,0.0,0.0,0.0,0.0,0.0,0.0,0.0,0.0,0.0,0.0,0.0,0.0,0.0,0.0,0.0,0.0,0.0,0.0,0.0,0.0,0.0,0.0,0.0,0.0,0.0,0.0,0.0,0.0,0.0,0.0,0.0,0.0,0.0,0.0,0.0,0.0,0.0,0.0,0.0,0.0,0.0,0.0,0.0,0.0,0.0,0.0,0.0,0.0,0.0,0.0,0.0,0.0,0.0,0.0,0.0,0.0,0.0,0.0,0.0,0.0,0.0,0.0,0.0,0.0,0.0,0.0,0.0,0.0,0.0,0.0,0.0,0.0,0.0,0.0,0.0,0.0,0.0,0.0,0.0,0.0,0.0,0.0,0.0,0.0,0.0,0.0,0.0,0.0,0.0,0.0,0.0,0.0,0.0,0.0,0.0,0.0,0.0,0.0,0.0,0.0,0.0,0.0,0.0,0.0,0.0,0.0,0.0,0.0,0.0,0.0,0.0,0.0,0.0,0.0,0.0,0.0,0.0,0.0,0.0,0.0,0.0,0.0,0.0,0.0,0.0,0.0,0.0,0.0,0.0,0.0,0.0,0.0,0.0,0.0,0.0,0.0,0.0,0.0,0.0,0.0,0.0,0.0,0.0,0.0,0.0,0.0,0.0,0.0,0.0,0.0,0.0,0.0,0.0,0.0,0.0,0.0,0.0,0.0,0.0,0.0,0.0,0.0,0.0,0.0,0.0,0.0,0.0,0.0,0.0,0.0,0.0,0.0,0.0,0.0,0.0,0.0,0.0,0.0,0.0,0.0,0.0,0.0,0.0,0.0,0.0,0.0,0.0,0.0,0.0,0.0,0.0,0.0,0.0,0.0,0.0,0.0,0.0,0.0,0.0,0.0,0.0,0.0,0.0,0.0,0.0,0.0,0.0,0.0,0.0,0.0,0.0,0.0,0.0,0.0,0.0,0.0,0.0,0.0,0.0,0.0,0.0,0.0,0.0,0.0,0.0,0.0,0.0,0.0,0.0,0.0,0.0,0.0,0.0,0.0,0.0,0.0,0.0,0.0,0.0,0.0,0.0,0.0,0.0,0.0,0.0,0.0,0.0,0.0,0.0,0.0,0.0,0.0,0.0,0.0,0.0,0.0,0.0,0.0,0.0,0.0,0.0,0.0,0.0,0.0,0.0,0.0,0.0,0.0,0.0,0.0,0.0,0.0,0.0,0.0,0.0,0.0,0.0,0.0,0.0,0.0,0.0,0.0,0.0,0.0,0.0,0.0,0.0,0.0,0.0,0.0,0.0,0.0,0.0,0.0,0.0,0.0,0.0,0.0,0.0,0.0,0.0,0.0,0.0,0.0,0.0,0.0,0.0,0.0,0.0,0.0,0.0,0.0,0.0,0.0,0.0,0.0,0.0,0.0,0.0,0.0,0.0,0.0,0.0,0.0,0.0,0.0,0.0,0.0,0.0,0.0,0.0,0.0,0.0,0.0,0.0,0.0,0.0,0.0,0.0,0.0,0.0,0.0,0.0,0.0,0.0,0.0,0.0,0.0,0.0,0.0,0.0,0.0,0.0,0.0,0.0,0.0,0.0,0.0,0.0,0.0,0.0,0.0,0.0,0.0,0.0,0.0,0.0,0.0,0.0,0.0,0.0,0.0,0.0,0.0,0.0,0.0,0.0,0.0,0.0,0.0,0.0,0.0,0.0,0.0,0.0,0.0,0.0,0.0,0.0,0.0,0.0,0.0,0.0,0.0,0.0,0.0,0.0,0.0,0.0,0.0,0.0,0.0,0.0,0.0,0.0,0.0,0.0,0.0,0.0,0.0,0.0,0.0,0.0,0.0,0.0,0.0,0.0,0.0,0.0,0.0,0.0,0.0,0.0,0.0,0.0,0.0,0.0,0.0,0.0,0.0,0.0,0.0,0.0,0.0,0.0,0.0,0.0,0.0,0.0,0.0,0.0,0.0,0.0,0.0,0.0,0.0,0.0,0.0,0.0,0.0,0.0,0.0,0.0,0.0,0.0,0.0,0.0,0.0,0.0,0.0,0.0,0.0,0.0,0.0,0.0,0.0,0.0,0.0,0.0,0.0,0.0,0.0,0.0,0.0,0.0,0.0,0.0,0.0,0.0,0.0,0.0,0.0,0.0,0.0,0.0,0.0,0.0,0.0,0.0,0.0,0.0,0.0,0.0,0.0,0.0,0.0,0.0,0.0,0.0,0.0,0.0,0.0,0.0,0.0,0.0,0.0,0.0,0.0,0.0,0.0,0.0,0.0,0.0,0.0,0.0,0.0,0.0,0.0,0.0,0.0,0.0,0.0,0.0,0.0,0.0,0.0,0.0,0.0,0.0,0.0,0.0,0.0,0.0,0.0,0.0,0.0,0.0,0.0,0.0,0.0,0.0,0.0,0.0,0.0,0.0,0.0,0.0,0.0,0.0,0.0,0.0,0.0,0.0,0.0,0.0,0.0,0.0,0.0,0.0,0.0,0.0,0.0,0.0,0.0,0.0,0.0,0.0,0.0,0.0,0.0,0.0,0.0,0.0,0.0,0.0,0.0,0.0,0.0,0.0,0.0,0.0,0.0,0.0,0.0,0.0,0.0,0.0,0.0,0.0,0.0,0.0,0.0,0.0,0.0,0.0,0.0,0.0,0.0,0.0,0.0,0.0,0.0,0.0,0.0,0.0,0.0,0.0,0.0,0.0,0.0,0.0,0.0,0.0,0.0,0.0,0.0,0.0,0.0,0.0,0.0,0.0,0.0,0.0,0.0,0.0,0.0,0.0,0.0,0.0,0.0,0.0,0.0,0.0,0.0,0.0,0.0,0.0,0.0,0.0,0.0,0.0,0.0,0.0,0.0,0.0,0.0,0.0,0.0,0.0,0.0,0.0,0.0,0.0,0.0,0.0,0.0,0.0,0.0,0.0,0.0,0.0,0.0,0.0,0.0,0.0,0.0,0.0,0.0,0.0,0.0,0.0,0.0,0.0,0.0,0.0,0.0,0.0,0.0,0.0,0.0,0.0,0.0,0.0,0.0,0.0,0.0,0.0,0.0,0.0,0.0,0.0,0.0,0.0,0.0,0.0,0.0,0.0,0.0,0.0,0.0,0.0,0.0,0.0,0.0,0.0,0.0,0.0,0.0,0.0,0.0,0.0,0.0,0.0,0.0,0.0,0.0,0.0,0.0,0.0,0.0,0.0,0.0,0.0,0.0,0.0,0.0,0.0,0.0,0.0,0.0,0.0,0.0,0.0,0.0,0.0,0.0,0.0,0.0,0.0,0.0,0.0,0.0,0.0,0.0,0.0,0.0,0.0,0.0,0.0,0.0,0.0,0.0,0.0,0.0,0.0,0.0,0.0,0.0,0.0,0.0,0.0,0.0,0.0,0.0,0.0,0.0,0.0,0.0,0.0,0.0,0.0,0.0,0.0,0.0,0.0,0.0,0.0,0.0,0.0,0.0,0.0,0.0,0.0,0.0,0.0,0.0,0.0,0.0,0.0,0.0,0.0,0.0,0.0,0.0,0.0,0.0,0.0,0.0,0.0,0.0,0.0,0.0,0.0,0.0,0.0,0.0,0.0,0.0,0.0,0.0,0.0,0.0,0.0,0.0,0.0,0.0,0.0,0.0,0.0,0.0,0.0,0.0,0.0,0.0,0.0,0.0,0.0,0.0,0.0,0.0,0.0,0.0,0.0,0.0,0.0,0.0,0.0,0.0,0.0,0.0,0.0,0.0,0.0,0.0,0.0,0.0,0.0,0.0,0.0,0.0,0.0,0.0,0.0,0.0,0.0,0.0,0.0,0.0,0.0,0.0,0.0,0.0,0.0,0.0,0.0,0.0,0.0,0.0,0.0,0.0,0.0,0.0,0.0,0.0,0.0,0.0,0.0,0.0,0.0,0.0,0.0,0.0,0.0,0.0,0.0,0.0,0.0,0.0,0.0,0.0,0.0,0.0,0.0,0.0,0.0,0.0,0.0,0.0,0.0,0.0,0.0,0.0,0.0,0.0,0.0,0.0,0.0,0.0,0.0,0.0,0.0,0.0,0.0,0.0,0.0,0.0,0.0,0.0]}]]]